[[{"header":{"parameterUnit":"m.s-1","parameterCategory":1,"la1":30.6,"la2":29.2853,"lo1":-89.7004,"lo2":-87.6739,"dy":0.0162,"dx":0.0183,"nx":112,"ny":82,"refTime":"2023-06-14T12:00:00:Z","depth":0,"parameterNumber":2,"parameterNumberName":"U-component_of_WINDS"},"data":[0.0,0.0,0.0,0.0,0.0,0.0,0.0,0.0,0.0,0.0,0.0,0.0,0.0,0.0,0.0,0.0,0.0,0.0,0.0,0.0,0.0,0.0,0.0,0.0,0.0,0.0,0.0,0.0,0.0,0.0,0.0,0.0,0.0,0.0,0.0,0.0,0.0,0.0,0.0,0.0,0.0,0.0,0.0,0.0,0.0,0.0,0.0,0.0,0.0,0.0,0.0,0.0,0.0,0.0,0.0,0.0,0.0,0.0,0.0,0.0,0.0,0.0,0.0,0.0,0.0,0.0,0.0,0.0,0.0,0.0,0.0,0.0,0.0,0.0,0.0,0.0,0.0,0.0,0.0,0.0,0.0,0.0,0.0,0.0,0.0,0.0,0.0,0.0,0.0,0.0,-4.6173,-5.0099,-5.2938,-5.4573,-5.4573,-5.4318,-5.3044,-5.041,0.0,0.0,0.0,0.0,0.0,0.0,0.0,0.0,0.0,0.0,0.0,0.0,0.0,0.0,0.0,0.0,0.0,0.0,0.0,0.0,0.0,0.0,0.0,0.0,0.0,0.0,0.0,0.0,0.0,0.0,0.0,0.0,0.0,0.0,0.0,0.0,0.0,0.0,0.0,0.0,0.0,0.0,0.0,0.0,0.0,0.0,0.0,0.0,0.0,0.0,0.0,0.0,0.0,0.0,0.0,0.0,0.0,0.0,0.0,0.0,0.0,0.0,0.0,0.0,0.0,0.0,0.0,0.0,0.0,0.0,0.0,0.0,0.0,0.0,0.0,0.0,0.0,0.0,0.0,0.0,0.0,0.0,0.0,0.0,0.0,0.0,0.0,0.0,0.0,0.0,0.0,0.0,0.0,0.0,0.0,0.0,0.0,0.0,0.0,0.0,0.0,0.0,0.0,0.0,-4.8302,-5.3646,-5.595,-5.7128,-5.7128,-5.5722,-5.4007,-5.1971,0.0,0.0,0.0,0.0,0.0,0.0,0.0,0.0,0.0,0.0,0.0,0.0,0.0,0.0,0.0,0.0,0.0,0.0,0.0,0.0,0.0,0.0,0.0,0.0,0.0,0.0,0.0,0.0,0.0,0.0,0.0,0.0,0.0,0.0,0.0,0.0,0.0,0.0,0.0,0.0,0.0,0.0,0.0,0.0,0.0,0.0,0.0,0.0,0.0,0.0,0.0,0.0,0.0,0.0,0.0,0.0,0.0,0.0,0.0,0.0,0.0,0.0,0.0,0.0,0.0,0.0,0.0,0.0,0.0,0.0,0.0,0.0,0.0,0.0,0.0,0.0,0.0,0.0,0.0,0.0,0.0,0.0,0.0,0.0,0.0,0.0,0.0,0.0,0.0,0.0,0.0,0.0,0.0,0.0,0.0,0.0,0.0,0.0,0.0,0.0,0.0,0.0,0.0,-4.8539,-5.2054,-5.5178,-5.718,-5.8295,-5.8295,-5.7051,-5.5481,-5.3585,-5.062,0.0,0.0,0.0,0.0,0.0,0.0,0.0,0.0,0.0,0.0,0.0,0.0,0.0,0.0,0.0,0.0,0.0,0.0,0.0,0.0,0.0,0.0,0.0,0.0,0.0,0.0,0.0,0.0,0.0,0.0,0.0,0.0,0.0,0.0,0.0,0.0,0.0,0.0,0.0,0.0,0.0,0.0,0.0,0.0,0.0,0.0,0.0,0.0,0.0,0.0,0.0,0.0,0.0,0.0,0.0,0.0,0.0,0.0,0.0,0.0,0.0,0.0,0.0,0.0,0.0,0.0,0.0,0.0,0.0,0.0,0.0,0.0,0.0,0.0,0.0,0.0,0.0,0.0,0.0,0.0,0.0,0.0,0.0,0.0,0.0,0.0,0.0,0.0,0.0,0.0,0.0,0.0,0.0,0.0,0.0,0.0,0.0,0.0,0.0,0.0,0.0,0.0,-5.2721,-5.5484,-5.6765,-5.8553,-5.9671,-5.964,-5.8597,-5.7057,-5.5115,-5.2217,0.0,0.0,0.0,0.0,0.0,0.0,0.0,0.0,0.0,0.0,0.0,0.0,0.0,0.0,0.0,0.0,0.0,0.0,0.0,0.0,0.0,0.0,0.0,0.0,0.0,0.0,0.0,0.0,0.0,0.0,0.0,0.0,0.0,0.0,0.0,0.0,0.0,0.0,0.0,0.0,0.0,0.0,0.0,0.0,0.0,0.0,0.0,0.0,0.0,0.0,0.0,0.0,0.0,0.0,0.0,0.0,0.0,0.0,0.0,0.0,0.0,0.0,0.0,0.0,0.0,0.0,0.0,0.0,0.0,0.0,0.0,0.0,0.0,0.0,0.0,0.0,0.0,0.0,0.0,0.0,0.0,0.0,0.0,0.0,0.0,0.0,0.0,0.0,0.0,0.0,0.0,0.0,0.0,0.0,0.0,0.0,0.0,0.0,0.0,0.0,0.0,0.0,-5.444,-5.7459,-5.932,-6.1169,-6.2222,-6.2159,-6.0509,-5.8588,-5.6556,-5.307,0.0,0.0,0.0,0.0,0.0,0.0,0.0,0.0,0.0,0.0,0.0,0.0,0.0,0.0,0.0,0.0,0.0,0.0,0.0,0.0,0.0,0.0,0.0,0.0,0.0,0.0,0.0,0.0,0.0,0.0,0.0,0.0,0.0,0.0,0.0,0.0,0.0,0.0,0.0,0.0,0.0,0.0,0.0,0.0,0.0,0.0,0.0,0.0,0.0,0.0,0.0,0.0,0.0,0.0,0.0,0.0,0.0,0.0,0.0,0.0,0.0,0.0,0.0,0.0,0.0,0.0,0.0,0.0,0.0,0.0,0.0,0.0,0.0,0.0,0.0,0.0,0.0,0.0,0.0,0.0,0.0,0.0,0.0,0.0,0.0,0.0,0.0,0.0,0.0,0.0,0.0,0.0,0.0,0.0,0.0,0.0,0.0,0.0,0.0,0.0,0.0,0.0,-5.5323,-5.8105,-5.9537,-6.121,-6.2266,-6.2263,-6.0523,-5.9027,-5.8164,0.0,0.0,0.0,0.0,0.0,0.0,0.0,0.0,0.0,0.0,0.0,0.0,0.0,0.0,0.0,0.0,0.0,0.0,0.0,0.0,0.0,0.0,0.0,0.0,0.0,0.0,0.0,0.0,0.0,0.0,0.0,0.0,0.0,0.0,0.0,0.0,0.0,0.0,0.0,0.0,0.0,0.0,0.0,0.0,0.0,0.0,0.0,0.0,0.0,0.0,0.0,0.0,0.0,0.0,0.0,0.0,0.0,0.0,0.0,0.0,0.0,0.0,0.0,0.0,0.0,0.0,0.0,0.0,0.0,0.0,0.0,0.0,0.0,0.0,0.0,0.0,0.0,0.0,0.0,0.0,0.0,0.0,0.0,0.0,0.0,0.0,0.0,0.0,0.0,0.0,0.0,0.0,0.0,0.0,0.0,0.0,0.0,0.0,0.0,0.0,0.0,0.0,-5.3234,-5.663,-5.9328,-6.0903,-6.2409,-6.3389,-6.3652,-6.1921,-6.0507,-5.9746,0.0,0.0,0.0,0.0,0.0,0.0,0.0,0.0,0.0,0.0,0.0,0.0,0.0,0.0,0.0,0.0,0.0,0.0,0.0,0.0,0.0,0.0,0.0,0.0,0.0,0.0,0.0,0.0,0.0,0.0,0.0,0.0,0.0,0.0,0.0,0.0,0.0,0.0,0.0,0.0,0.0,0.0,0.0,0.0,0.0,0.0,0.0,0.0,0.0,0.0,0.0,0.0,0.0,0.0,0.0,0.0,0.0,0.0,0.0,0.0,0.0,0.0,0.0,0.0,0.0,0.0,0.0,0.0,0.0,0.0,0.0,0.0,0.0,0.0,0.0,0.0,0.0,0.0,0.0,0.0,0.0,0.0,0.0,0.0,0.0,0.0,0.0,0.0,0.0,0.0,0.0,0.0,0.0,0.0,0.0,0.0,0.0,0.0,0.0,0.0,0.0,0.0,-5.5438,-5.8466,-6.1347,-6.4021,-6.5215,-6.6122,-6.6852,-6.5203,-6.3306,0.0,0.0,0.0,0.0,0.0,0.0,0.0,0.0,0.0,0.0,0.0,0.0,0.0,0.0,0.0,0.0,0.0,0.0,0.0,0.0,0.0,0.0,0.0,0.0,0.0,0.0,0.0,0.0,0.0,0.0,0.0,0.0,0.0,0.0,0.0,0.0,0.0,0.0,0.0,0.0,0.0,0.0,0.0,0.0,0.0,0.0,0.0,0.0,0.0,0.0,0.0,0.0,0.0,0.0,0.0,0.0,0.0,0.0,0.0,0.0,0.0,0.0,0.0,0.0,0.0,0.0,0.0,0.0,0.0,0.0,0.0,0.0,0.0,0.0,0.0,0.0,0.0,0.0,0.0,0.0,0.0,0.0,0.0,0.0,0.0,0.0,0.0,0.0,0.0,0.0,0.0,0.0,0.0,0.0,0.0,0.0,0.0,0.0,0.0,0.0,0.0,0.0,0.0,-5.5512,-5.8842,-6.1799,-6.4076,-6.5561,-6.652,-6.6869,-6.5645,-6.4364,-6.3109,0.0,0.0,0.0,0.0,0.0,0.0,0.0,0.0,0.0,0.0,0.0,0.0,0.0,0.0,0.0,0.0,0.0,0.0,0.0,0.0,0.0,0.0,0.0,0.0,0.0,0.0,0.0,0.0,0.0,0.0,0.0,0.0,0.0,0.0,0.0,0.0,0.0,0.0,0.0,0.0,0.0,0.0,0.0,0.0,0.0,0.0,0.0,0.0,0.0,0.0,0.0,0.0,0.0,0.0,0.0,0.0,0.0,0.0,0.0,0.0,0.0,0.0,0.0,0.0,0.0,0.0,0.0,0.0,0.0,0.0,0.0,0.0,0.0,0.0,0.0,0.0,0.0,0.0,0.0,0.0,0.0,0.0,0.0,0.0,0.0,0.0,0.0,0.0,0.0,0.0,0.0,0.0,0.0,0.0,0.0,0.0,0.0,0.0,0.0,0.0,0.0,0.0,-5.7191,-6.0196,-6.303,-6.5715,-6.688,-6.7807,-6.8575,-6.7382,-6.6045,-6.4778,0.0,0.0,0.0,0.0,0.0,0.0,0.0,0.0,0.0,0.0,0.0,0.0,0.0,0.0,0.0,0.0,0.0,0.0,0.0,0.0,0.0,0.0,0.0,0.0,0.0,0.0,0.0,0.0,0.0,0.0,0.0,0.0,0.0,0.0,0.0,0.0,0.0,0.0,0.0,0.0,0.0,0.0,0.0,0.0,0.0,0.0,0.0,0.0,0.0,0.0,0.0,0.0,0.0,0.0,0.0,0.0,0.0,0.0,0.0,0.0,0.0,0.0,0.0,0.0,0.0,0.0,0.0,0.0,0.0,0.0,0.0,0.0,0.0,0.0,0.0,0.0,0.0,0.0,0.0,0.0,0.0,0.0,0.0,0.0,0.0,0.0,0.0,0.0,0.0,0.0,0.0,0.0,0.0,0.0,0.0,0.0,0.0,0.0,0.0,0.0,0.0,0.0,-5.9847,-6.2181,-6.4768,-6.8134,-6.887,-6.972,-7.1162,-6.9849,-6.8166,-6.6435,0.0,0.0,0.0,0.0,0.0,0.0,0.0,0.0,0.0,0.0,0.0,0.0,0.0,0.0,0.0,0.0,0.0,0.0,0.0,0.0,0.0,0.0,0.0,0.0,0.0,0.0,0.0,0.0,0.0,0.0,0.0,0.0,0.0,0.0,0.0,0.0,0.0,0.0,0.0,0.0,0.0,0.0,0.0,0.0,0.0,0.0,0.0,0.0,0.0,0.0,0.0,0.0,0.0,0.0,0.0,0.0,0.0,0.0,0.0,0.0,-4.0206,0.0,0.0,0.0,0.0,0.0,0.0,0.0,0.0,0.0,0.0,0.0,0.0,0.0,0.0,0.0,0.0,0.0,0.0,0.0,0.0,0.0,0.0,0.0,0.0,0.0,0.0,0.0,0.0,0.0,0.0,0.0,0.0,0.0,0.0,0.0,0.0,0.0,0.0,0.0,0.0,0.0,-6.0671,-6.3757,-6.643,-6.8296,-6.9669,-7.0697,-7.1251,-7.0856,-6.9889,-6.824,-6.6182,0.0,0.0,0.0,0.0,0.0,0.0,0.0,0.0,0.0,0.0,0.0,0.0,0.0,0.0,0.0,0.0,0.0,0.0,0.0,0.0,0.0,0.0,0.0,0.0,0.0,0.0,0.0,0.0,0.0,0.0,0.0,0.0,0.0,0.0,0.0,0.0,0.0,0.0,0.0,0.0,0.0,0.0,0.0,0.0,0.0,0.0,0.0,0.0,0.0,0.0,0.0,0.0,0.0,0.0,0.0,0.0,0.0,0.0,0.0,0.0,-4.2672,0.0,0.0,0.0,0.0,0.0,0.0,0.0,0.0,0.0,0.0,0.0,0.0,0.0,0.0,0.0,0.0,0.0,0.0,0.0,0.0,0.0,0.0,0.0,0.0,0.0,0.0,0.0,0.0,0.0,0.0,0.0,0.0,0.0,0.0,0.0,0.0,0.0,0.0,0.0,0.0,-6.2449,-6.5167,-6.7787,-7.0186,-7.1305,-7.2129,-7.2743,-7.2383,-7.1429,-6.9843,-6.8061,0.0,0.0,0.0,0.0,0.0,0.0,0.0,0.0,0.0,0.0,0.0,0.0,0.0,0.0,0.0,0.0,0.0,0.0,0.0,0.0,0.0,0.0,0.0,0.0,0.0,0.0,0.0,0.0,0.0,0.0,0.0,0.0,0.0,0.0,0.0,0.0,0.0,0.0,0.0,0.0,0.0,0.0,0.0,0.0,0.0,0.0,0.0,0.0,0.0,0.0,0.0,0.0,0.0,-5.0614,-5.129,-5.129,-5.129,-5.129,-5.1122,-4.828,-4.67,-4.6217,-4.6323,0.0,0.0,0.0,0.0,0.0,0.0,0.0,0.0,0.0,0.0,0.0,0.0,0.0,0.0,0.0,0.0,0.0,0.0,0.0,0.0,0.0,0.0,-5.2245,-5.3299,-5.4666,-5.5048,-5.2635,0.0,0.0,0.0,0.0,0.0,0.0,0.0,0.0,0.0,0.0,0.0,-6.4483,-6.6741,-6.9234,-7.2173,-7.2953,-7.3619,-7.4515,-7.3959,-7.2902,-7.139,-6.9829,-6.7778,0.0,0.0,0.0,0.0,0.0,0.0,0.0,0.0,0.0,0.0,0.0,0.0,0.0,0.0,0.0,0.0,0.0,0.0,0.0,0.0,0.0,0.0,0.0,0.0,0.0,0.0,0.0,0.0,0.0,0.0,0.0,0.0,-3.3805,-3.5474,0.0,0.0,0.0,0.0,0.0,0.0,0.0,0.0,0.0,0.0,0.0,0.0,0.0,-4.8757,-5.0276,-5.1619,-5.2298,-5.2333,-5.3723,-5.4425,-5.4425,-5.4425,-5.4425,-5.4391,-5.4102,0.0,-4.9813,-4.9841,0.0,0.0,0.0,0.0,0.0,0.0,0.0,0.0,0.0,0.0,0.0,0.0,0.0,0.0,0.0,0.0,0.0,0.0,0.0,0.0,0.0,0.0,-5.5913,-5.737,-5.8488,-5.9322,-5.9572,-5.7335,-5.5256,-5.5362,-5.5186,-5.5347,0.0,0.0,0.0,0.0,0.0,0.0,-6.6043,-6.9001,-7.1332,-7.2401,-7.3773,-7.4838,-7.5235,-7.5189,-7.4469,-7.2976,-7.1976,-7.0295,-6.7726,-6.5275,0.0,0.0,0.0,0.0,0.0,0.0,0.0,0.0,0.0,0.0,0.0,0.0,0.0,0.0,0.0,0.0,0.0,0.0,0.0,0.0,0.0,0.0,0.0,0.0,0.0,0.0,0.0,0.0,0.0,-3.393,-3.6358,-3.7764,-3.8964,-4.0305,0.0,0.0,0.0,0.0,0.0,0.0,0.0,0.0,0.0,-5.1165,-5.1181,-5.1926,-5.3471,-5.4501,-5.5179,-5.5669,-5.676,-5.7464,-5.7884,-5.7884,-5.7884,-5.7849,-5.7946,-5.7272,-5.5929,-5.4144,-5.3436,-5.3436,0.0,0.0,0.0,0.0,-5.128,-5.1309,-5.1309,-5.1337,-5.1464,-5.1882,0.0,0.0,0.0,0.0,0.0,0.0,0.0,-5.5835,-5.6988,-5.8361,-5.9775,-6.0968,-6.1889,-6.277,-6.3555,-6.2572,-6.0955,-5.9088,-5.8586,-5.8542,-5.8804,-6.0022,0.0,0.0,0.0,-6.6693,-6.8071,-7.0152,-7.2128,-7.3791,-7.4743,-7.5428,-7.5757,-7.5787,-7.5396,-7.4506,-7.3212,-7.1716,-7.0069,-6.762,-6.5169,0.0,0.0,0.0,0.0,0.0,0.0,0.0,0.0,0.0,0.0,0.0,0.0,0.0,0.0,0.0,0.0,0.0,0.0,0.0,0.0,0.0,0.0,0.0,0.0,0.0,0.0,0.0,0.0,-3.6684,-3.8617,-4.027,-4.1148,-4.2505,0.0,0.0,0.0,0.0,0.0,0.0,-4.9741,-5.1251,-5.2671,-5.3917,-5.4128,-5.4869,-5.6234,-5.718,-5.795,-5.8545,-5.938,-6.0078,-6.0604,-6.0879,-6.0984,-6.102,-6.1195,-6.1395,-6.1408,-5.8235,-5.6929,-5.7023,-5.684,-5.6721,-5.6561,-5.5849,-5.5579,-5.5549,-5.5518,-5.5488,-5.5593,-5.6152,-5.6326,-5.6326,-5.6484,0.0,0.0,0.0,0.0,-5.947,-6.0366,-6.1903,-6.3405,-6.4131,-6.4912,-6.5661,-6.6268,-6.6553,-6.5807,-6.2724,-6.1969,-6.1781,-6.1687,-6.2849,0.0,-6.4114,-6.6352,-6.8502,-6.9997,-7.1402,-7.2962,-7.4899,-7.5527,-7.5926,-7.627,-7.6301,-7.6056,-7.5551,-7.4335,-7.3026,-7.1728,-6.9779,-6.7386,-6.4594,0.0,0.0,0.0,0.0,0.0,0.0,0.0,0.0,0.0,0.0,0.0,0.0,0.0,0.0,0.0,0.0,0.0,0.0,0.0,0.0,0.0,0.0,0.0,0.0,0.0,0.0,0.0,0.0,0.0,-4.303,-4.3993,0.0,0.0,0.0,0.0,-4.9005,-5.1198,-5.2515,-5.2486,-5.3948,-5.5166,-5.5935,-5.6631,-5.7396,-5.8229,-5.9725,-6.0526,-6.056,-6.1496,-6.1946,-6.2016,-6.2989,-6.3407,-6.3442,-6.4179,-6.47,-6.4787,-6.1514,-6.0238,-6.0361,-6.0361,-6.0361,-6.0295,-6.0141,-6.0078,-6.0078,-5.9823,-5.9791,-5.9791,-5.9861,-5.9829,-5.9861,-5.9861,-5.9861,0.0,0.0,-6.1747,-6.2685,-6.3621,-6.5166,-6.6503,-6.677,-6.7374,-6.7945,-6.798,-6.8587,-6.8444,-6.6018,-6.5264,-6.5035,-6.5035,0.0,-6.6352,-6.7231,-6.889,-7.0448,-7.1613,-7.3184,-7.4397,-7.5047,-7.5801,-7.6406,-7.6765,-7.6761,-7.6496,-7.5812,-7.5696,-7.4604,-7.2263,-7.1311,-6.9558,-6.6902,-6.4918,0.0,0.0,0.0,0.0,0.0,0.0,0.0,0.0,0.0,0.0,0.0,0.0,0.0,0.0,0.0,0.0,0.0,0.0,0.0,0.0,0.0,0.0,0.0,0.0,0.0,0.0,0.0,0.0,-4.4769,-4.6126,0.0,-4.9013,-5.03,-5.1378,-5.2109,-5.3848,-5.4892,-5.4892,-5.6353,-5.7535,-5.8335,-5.9066,-5.9831,-6.0631,-6.1188,-6.1953,-6.2857,-6.3345,-6.4114,-6.5092,-6.5549,-6.5794,-6.5794,-6.6075,-6.6321,-6.6492,-6.533,-6.4503,-6.3903,-6.3808,-6.3712,-6.3618,-6.3456,-6.3291,-6.3191,-6.3091,-6.3056,-6.3056,-6.3056,-6.3056,-6.3056,-6.3056,-6.3056,-6.3231,-6.4039,-6.4597,-6.5261,-6.6599,-6.7444,-6.8289,-6.9387,-6.9813,-7.0168,-7.0629,-7.0949,-7.0913,-7.0061,-6.8999,-6.8221,-6.8082,-6.8681,-6.9245,-6.9599,-7.0806,-7.2015,-7.2941,-7.3797,-7.4761,-7.5977,-7.6478,-7.6761,-7.7036,-7.7207,-7.6977,-7.634,-7.589,-7.5041,-7.3654,-7.2249,-7.0532,-6.8397,-6.6349,-6.4312,0.0,0.0,0.0,0.0,0.0,0.0,0.0,0.0,0.0,0.0,0.0,0.0,0.0,0.0,0.0,0.0,0.0,0.0,0.0,0.0,0.0,0.0,0.0,0.0,0.0,0.0,-4.5208,-4.6976,-4.8536,-4.9992,-5.1304,-5.2795,-5.3905,-5.4391,-5.6059,-5.7064,-5.7064,-5.8553,-5.9629,-6.0149,-6.1155,-6.1918,-6.2473,-6.2993,-6.3722,-6.4693,-6.4983,-6.5649,-6.6661,-6.716,-6.7409,-6.7445,-6.769,-6.7903,-6.8082,-6.8082,-6.7726,-6.7105,-6.6472,-6.6162,-6.6028,-6.5858,-6.5686,-6.5548,-6.5478,-6.5478,-6.5478,-6.5478,-6.5478,-6.5478,-6.5478,-6.5478,-6.5654,-6.6461,-6.6989,-6.7588,-6.8927,-6.9529,-7.006,-7.1194,-7.1478,-7.1619,-7.2115,-7.2434,-7.2574,-7.2499,-7.1474,-7.0554,-7.0409,-7.0793,-7.1216,-7.15,-7.2218,-7.3111,-7.4249,-7.4687,-7.5441,-7.6801,-7.7127,-7.7308,-7.7522,-7.7375,-7.7116,-7.6712,-7.6049,-7.5284,-7.4518,-7.3305,-7.1697,-6.9688,-6.7282,-6.5237,-6.3615,0.0,0.0,0.0,0.0,0.0,0.0,0.0,0.0,0.0,0.0,0.0,0.0,0.0,0.0,0.0,0.0,0.0,0.0,0.0,0.0,0.0,0.0,0.0,-4.4328,-4.5699,-4.7534,-4.9775,-5.136,-5.2567,-5.3391,-5.4839,-5.5736,-5.5736,-5.7805,-5.9081,-5.9081,-6.053,-6.1358,-6.1358,-6.2875,-6.3669,-6.3669,-6.5152,-6.5911,-6.5949,-6.6361,-6.6547,-6.6617,-6.7754,-6.8287,-6.8322,-6.9095,-6.9556,-6.9668,-6.9668,-6.9777,-6.9778,-6.8257,-6.7655,-6.7621,-6.7446,-6.7376,-6.7377,-6.7199,-6.7128,-6.7128,-6.7128,-6.7128,-6.7128,-6.7128,-6.7128,-6.7268,-6.8075,-6.8884,-6.9658,-7.0617,-7.1431,-7.2033,-7.2218,-7.2255,-7.2255,-7.2255,-7.2892,-7.3383,-7.3194,-7.263,-7.2101,-7.2066,-7.1912,-7.2082,-7.305,-7.3194,0.0,-7.5511,-7.595,-7.646,-7.7433,-7.7692,-7.7915,-7.8062,-7.7416,-7.6949,-7.6877,-7.6194,-7.5439,-7.4612,-7.4366,-7.3151,-7.0682,-6.7689,-6.5794,-6.5033,0.0,0.0,0.0,0.0,0.0,0.0,0.0,0.0,0.0,0.0,0.0,0.0,0.0,0.0,0.0,0.0,0.0,0.0,0.0,0.0,0.0,0.0,-4.5562,-4.5617,-4.7477,-4.9492,-5.1245,-5.2881,-5.4184,-5.4943,-5.6874,-5.8081,-5.8081,-5.9702,-6.0668,-6.0668,-6.2117,-6.2979,-6.2979,-6.4462,-6.5255,-6.5255,-6.5669,-6.6152,-6.6669,-6.709,-6.7591,-6.8113,-6.933,-6.9867,-6.9902,-7.071,-7.1099,-7.1136,-7.1136,-7.1174,-7.1073,-6.9778,-6.9177,-6.9035,-6.8999,-6.9242,-6.9658,-7.0033,-7.0132,-7.0094,-6.9942,-6.9903,-6.9903,-6.9903,-6.9903,-6.9977,-7.0374,-7.0622,-7.0976,-7.2012,-7.2401,-7.2756,-7.3357,-7.3498,-7.3498,-7.3498,-7.4096,-7.4624,-7.4585,-7.4862,-7.4756,-7.3632,-7.3838,-7.426,-7.451,-7.5156,-7.5803,-7.6305,-7.6533,-7.6972,-7.7831,-7.8015,-7.8054,-7.8132,-7.8034,-7.7504,-7.6328,-7.619,-7.5549,-7.4226,-7.3975,-7.2547,-6.9741,-6.8416,-6.7058,0.0,0.0,0.0,0.0,0.0,0.0,0.0,0.0,0.0,0.0,0.0,0.0,0.0,0.0,0.0,0.0,0.0,0.0,0.0,0.0,0.0,0.0,-4.6215,-4.7719,-4.8579,-5.0021,-5.1504,-5.2766,-5.4613,-5.6121,-5.6978,-5.853,-5.9633,-5.9944,-6.1116,-6.1944,-6.2255,-6.3393,-6.422,-6.4531,-6.5704,-6.6359,-6.6359,-6.6669,-6.7014,-6.7463,-6.82,-6.8774,-6.9227,-7.045,-7.1026,-7.1026,-7.1517,-7.1728,-7.1728,-7.1728,-7.1728,-7.1622,0.0,0.0,0.0,0.0,-7.0642,-7.0874,-7.1214,-7.1237,-7.1159,-7.1041,-7.1002,-7.1002,-7.1002,-7.1002,-7.1072,-7.1538,-7.1682,-7.1936,-7.2902,-7.319,-7.3366,-7.4291,-7.4466,-7.4537,-7.4888,-7.5194,-7.5469,-7.5469,-7.5738,0.0,-7.4816,-7.5188,-7.559,-7.559,-7.6132,-7.6594,-7.6911,-7.7147,-7.759,-7.8367,-7.8518,-7.8558,-7.8558,-7.8394,0.0,0.0,0.0,-7.577,-7.4414,-7.3593,0.0,0.0,0.0,-6.8521,-6.7146,-6.6384,0.0,0.0,-6.2615,-6.1841,0.0,0.0,0.0,0.0,0.0,0.0,0.0,0.0,0.0,0.0,0.0,0.0,0.0,0.0,0.0,0.0,-4.8082,-5.0224,-5.2131,-5.2902,-5.3572,-5.4451,-5.6437,-5.8118,-5.9116,-5.9978,-6.0737,-6.1392,-6.2255,-6.3013,-6.3669,0.0,0.0,0.0,0.0,-6.7118,-6.7118,-6.7842,-6.8261,-6.8261,-6.945,-7.0027,-7.0101,-7.1291,-7.1833,-7.1833,-7.1938,-7.1974,-7.1974,-7.1974,-7.1974,-7.1938,-7.1763,-7.1728,-7.1728,-7.176,-7.1645,-7.1416,-7.1482,0.0,0.0,-7.1201,-7.1201,-7.1201,-7.1201,-7.1201,-7.134,-7.2076,-7.2284,-7.2499,-7.3542,-7.3757,-7.4047,-7.4943,-7.5158,-7.5334,-7.607,-7.6082,-7.6028,-7.6028,-7.5931,-7.5832,-7.5832,-7.6139,-7.6351,-7.6351,-7.6421,-7.6702,-7.7368,-7.7638,-7.8043,-7.8753,-7.8947,0.0,-7.9069,-7.8433,-7.8049,-7.7978,-7.7037,-7.5941,-7.4805,-7.3402,-7.2284,-7.1456,-7.0753,-6.9917,-6.8968,-6.8239,-6.7924,-6.7945,-6.4951,-6.3738,0.0,0.0,0.0,0.0,0.0,0.0,0.0,0.0,0.0,0.0,0.0,0.0,0.0,0.0,0.0,-4.8135,-5.0234,-5.2062,-5.3112,-5.4838,-5.6163,-5.6507,-5.774,-5.8909,-5.9665,-6.1149,-6.2117,-6.2255,-6.3496,-6.4324,-6.4462,-6.5807,-6.6635,-6.6773,-6.7497,-6.7876,-6.7876,-6.867,-6.9169,-6.9327,0.0,0.0,-7.1136,-7.2139,-7.2606,-7.2606,-7.3273,-7.3553,-7.3553,-7.3553,-7.3553,-7.3448,-7.2184,-7.1728,-7.176,-7.2201,-7.2294,-7.2285,-7.2592,-7.2637,-7.2596,-7.2431,-7.2347,-7.2347,-7.2347,-7.2347,0.0,-7.2728,-7.288,-7.3094,-7.4065,-7.435,-7.4524,-7.5297,-7.5513,-7.5582,-7.5722,-7.6203,-7.6656,-7.6656,-7.7101,-7.7476,-7.7476,-7.7039,-7.6698,-7.6698,-7.7221,-7.7639,-7.7779,-7.7856,-7.7969,-7.8109,-7.8151,-7.8151,-7.8151,-7.8012,-7.7662,-7.7069,-7.6259,-7.5325,-7.4274,-7.3795,-7.2816,-7.1274,-7.0515,-6.9795,-6.8968,-6.8294,-6.8014,-6.7978,-6.6543,-6.6014,0.0,0.0,0.0,0.0,0.0,0.0,0.0,0.0,0.0,0.0,0.0,-4.3982,0.0,0.0,-4.8195,-4.9738,-5.156,-5.318,-5.443,-5.619,-5.7412,-5.7661,-5.8486,-5.9587,-6.0897,-6.183,-6.2697,-6.3531,-6.4289,-6.5048,-6.5807,-6.6566,-6.7152,-6.7532,-6.7911,-6.829,-6.8704,-6.9084,-6.9583,-7.0164,-7.1126,-7.1713,-7.1979,-7.2984,-7.3413,-7.3413,-7.3834,-7.401,-7.401,-7.401,-7.401,-7.394,-7.3167,-7.2851,-7.2848,-7.3155,-7.3098,-7.2933,-7.3113,-7.3046,-7.2838,-7.2713,-7.2713,-7.2713,-7.2713,-7.2713,-7.2713,-7.2838,-7.3115,-7.3537,-7.4128,-7.4629,-7.5115,-7.5972,-7.6223,-7.6327,-7.6675,-7.7007,-7.7198,-7.7198,-7.7389,-7.7579,-7.7579,-7.7232,-7.7077,-7.7293,-7.765,-7.7893,-7.7893,-7.7893,-7.7893,-7.7893,-7.7893,-7.7893,-7.7893,-7.7893,-7.7667,-7.7068,-7.6262,-7.55,-7.4738,-7.4263,-7.3323,-7.1844,-7.1457,-7.0726,-6.9625,-6.9662,-6.9503,-6.9268,-6.8983,-6.8547,0.0,0.0,0.0,0.0,0.0,0.0,0.0,0.0,-4.2545,-4.3213,-4.4645,-4.5979,-4.6483,-4.7985,-4.9621,-5.1127,-5.264,-5.4157,-5.568,-5.7135,-5.8225,-5.854,-5.9256,-6.0356,-6.1919,-6.2404,-6.3205,-6.4525,-6.4942,-6.5704,-6.6911,-6.7118,-6.7497,-6.8083,-6.8256,-6.8635,-6.9256,-6.9647,-7.0217,-7.1006,-7.2006,-7.2629,-7.2827,-7.3615,-7.401,-7.401,-7.401,-7.401,-7.401,-7.401,-7.401,-7.401,-7.401,-7.401,-7.401,-7.397,-7.3657,-7.3293,-7.3252,-7.3005,-7.2713,-7.2713,-7.2713,-7.2713,-7.2713,-7.2713,-7.2747,-7.2885,-7.3326,-7.3886,-7.4368,-7.4964,-7.5665,-7.6643,-7.6894,-7.7033,-7.7659,-7.7623,-7.7525,-7.7525,-7.7357,-7.7223,-7.7223,-7.7223,-7.7357,-7.771,-7.7763,-7.7763,-7.7763,-7.7763,-7.7763,-7.7763,-7.7763,-7.7719,-7.7676,-7.7676,-7.75,-7.7099,-7.6503,-7.5911,-7.5242,-7.4662,-7.3788,-7.2585,-7.246,-7.1833,-7.0609,-7.1161,-7.1172,-7.0733,-7.1077,-7.0516,-3.8595,-3.9051,-3.9957,-4.0851,-4.1569,-4.21,0.0,0.0,-4.4384,-4.4483,-4.6302,-4.7894,-4.7961,-4.9892,-5.1698,-5.2569,-5.4084,-5.5469,-5.6311,-5.7839,-5.9133,-5.9814,-6.0744,-6.1439,-6.1647,-6.3178,-6.4229,-6.4439,-6.5864,-6.6807,-6.698,-6.7601,-6.8014,-6.8083,-6.8773,-6.9227,-6.9291,-7.0839,-7.1735,-7.2041,-7.3048,-7.3632,-7.383,-7.3975,-7.401,-7.401,-7.401,-7.401,-7.401,-7.401,-7.401,-7.401,-7.401,-7.401,-7.397,-7.3812,-7.3537,-7.3293,-7.3088,-7.288,-7.2713,-7.2713,-7.2713,-7.2713,-7.2713,-7.2713,-7.2851,-7.3464,-7.374,-7.4119,-7.5499,-7.5957,-7.6198,-7.6957,-7.713,-7.7164,-7.7233,-7.7268,-7.7223,-7.7223,-7.7223,-7.7223,-7.7223,-7.7223,-7.7223,-7.7268,-7.7268,-7.7268,-7.7268,-7.7268,-7.7268,-7.7268,-7.7268,-7.7189,-7.6929,-7.6929,-7.6828,-7.6587,-7.6519,-7.6005,-7.5046,-7.4944,-7.4305,-7.305,-7.2781,-7.2496,-7.2174,-7.1999,-7.1787,-7.1457,-7.1307,-7.0989,-3.9877,-4.0475,0.0,0.0,-4.3082,-4.3743,-4.4293,-4.5549,-4.6609,-4.6609,-4.8067,-4.9493,-4.9924,-5.0823,-5.1924,0.0,-5.4303,-5.5384,-5.6373,-5.8201,-5.9591,-6.0047,-6.124,-6.2101,-6.2251,-6.3324,-6.4337,-6.5053,-6.6161,-6.7069,-6.7601,-6.7911,-6.829,-6.8773,-6.9118,-6.9704,-7.0567,-7.1468,-7.2227,-7.2847,-7.3437,-7.3812,-7.401,-7.401,-7.401,-7.401,-7.401,-7.401,-7.401,-7.401,-7.401,-7.401,-7.401,-7.401,-7.401,-7.3931,-7.3697,-7.3496,-7.3252,-7.3046,-7.2838,-7.2755,-7.2713,-7.2713,-7.2713,-7.2713,-7.2885,-7.3567,-7.4119,-7.4705,-7.5809,-7.643,-7.6844,-7.7154,-7.7223,-7.7223,-7.7223,-7.7223,-7.7223,-7.7223,-7.7223,-7.7178,-7.7009,-7.6964,-7.6918,-7.6816,-7.7043,-7.7223,-7.7223,-7.7054,-7.6918,-7.6816,-7.6771,-7.6771,-7.6645,-7.6599,-7.6507,-7.6262,-7.6262,-7.6033,-7.5459,-7.5236,-7.4661,-7.3572,-7.3298,-7.2856,-7.2165,-7.2498,-7.2415,-7.1963,-7.2255,-7.2176,-4.1439,0.0,0.0,-4.3695,-4.4447,-4.5233,-4.6117,-4.7339,-4.8365,-4.8564,-4.9624,-5.0651,-5.1216,-5.1481,-5.2113,-5.3681,-5.4419,-5.5232,-5.6459,-5.8455,-5.9852,-6.0,-6.1429,-6.2561,-6.2882,-6.3639,-6.4443,-6.5338,-6.6421,-6.7295,-6.8004,-6.8251,-6.8704,-6.9256,-6.967,-7.0394,-7.1498,-7.2028,-7.2614,-7.3334,-7.3617,-7.3852,-7.401,-7.401,-7.401,-7.401,-7.401,-7.401,-7.401,-7.401,-7.401,-7.401,-7.401,-7.401,-7.401,-7.401,-7.3891,-7.3692,-7.3415,-7.317,-7.2963,-7.2755,-7.2713,-7.2713,-7.2713,-7.2809,-7.3153,-7.3878,-7.4671,-7.5386,-7.6223,-7.6809,-7.7223,-7.7223,-7.7223,-7.7223,-7.7223,-7.7223,-7.7178,-7.7099,-7.7088,-7.7009,-7.6782,-7.6736,-7.6645,-7.6541,-7.6771,-7.6998,-7.6998,-7.6828,-7.6645,-7.6541,-7.6495,-7.6449,-7.6402,-7.6402,-7.6262,-7.6028,-7.5981,-7.5899,-7.5709,-7.547,-7.4944,-7.4198,-7.3954,-7.3442,-7.2614,-7.3044,-7.3024,-7.2499,-7.2952,-7.2952,0.0,0.0,-4.4168,-4.5014,-4.5896,-4.6749,-4.7474,-4.8365,-4.9293,-4.9988,-5.0717,-5.1282,-5.1315,-5.1879,-5.2804,-5.4262,-5.4642,-5.5322,-5.6792,-5.8605,-5.9775,-5.9775,-6.1351,-6.2685,0.0,-6.4307,-6.4869,-6.4943,-6.6667,-6.7765,-6.7799,-6.8762,-6.9256,-6.9291,-7.067,-7.1429,-7.1498,-7.2671,-7.3258,-7.3334,-7.3737,-7.401,-7.401,-7.401,-7.401,-7.401,-7.401,-7.401,-7.401,-7.401,-7.401,-7.401,-7.401,-7.401,-7.401,-7.401,-7.3891,-7.3692,-7.3415,-7.317,-7.2963,-7.2755,-7.2713,-7.2713,-7.2713,-7.3188,-7.3912,-7.4628,-7.542,-7.6258,-7.6937,-7.7189,-7.7223,-7.7223,-7.7223,-7.7223,-7.7223,-7.7223,-7.7133,-7.6839,-7.6793,-7.6782,-7.6541,-7.6495,-7.6495,-7.6495,-7.6495,-7.6541,-7.6541,-7.6495,-7.6495,-7.6495,-7.6495,-7.6402,-7.6122,-7.6122,-7.6028,-7.5757,-7.5709,-7.5709,-7.5709,-7.547,-7.5179,-7.4984,-7.4688,-7.4439,-7.4155,-7.3884,-7.3628,-7.3252,-7.3005,-7.2774,0.0,0.0,-4.5308,-4.5734,-4.652,-4.7407,-4.8231,-4.9158,-5.0055,-5.0783,-5.1547,-5.2045,-5.2045,-5.2243,-5.2837,-5.4295,-5.4564,-5.5173,-5.6787,-5.8523,-5.9621,-5.9775,-6.1351,0.0,0.0,0.0,0.0,-6.5576,-6.6854,-6.7638,-6.7799,-6.8722,-6.9497,-6.998,-7.0981,-7.1739,-7.2291,-7.2825,-7.317,-7.3334,-7.3777,-7.401,-7.401,-7.401,-7.401,-7.401,-7.401,-7.401,-7.401,-7.401,-7.401,-7.401,-7.401,-7.3931,-7.3812,-7.3812,-7.3617,-7.3415,-7.3334,-7.317,-7.2963,-7.2755,-7.2713,-7.2713,-7.2713,-7.323,-7.3947,-7.4662,-7.5455,-7.6292,-7.7016,-7.7223,-7.7223,-7.7223,-7.7223,-7.7178,-7.6964,-7.6918,-7.6873,-7.6645,-7.6599,-7.6507,-7.6262,-7.6216,-7.6169,-7.5994,-7.6262,-7.6449,-7.6262,-7.6216,-7.6169,-7.5994,-7.5947,-7.5947,-7.5852,-7.5852,-7.5805,-7.5709,-7.5709,-7.5614,-7.547,-7.5228,-7.4968,-7.4722,-7.4473,-7.4272,-7.4221,-7.395,-7.3609,-7.3285,-7.3005,-7.2774,0.0,-4.4917,-4.589,-4.6317,-4.6942,-4.77,-4.8491,-4.9289,-5.0021,-5.075,-5.1479,-5.2011,-5.2011,-5.2279,-5.2845,-5.404,-5.4509,-5.5185,-5.6496,-5.8394,-5.966,-5.9775,-6.1351,-6.2787,0.0,0.0,0.0,-6.5834,-6.6821,-6.751,-6.7678,-6.8917,-6.9871,-7.036,-7.1394,-7.2153,-7.2671,-7.2922,-7.317,-7.3456,-7.3737,-7.3931,-7.401,-7.401,-7.401,-7.401,-7.401,-7.401,-7.401,-7.3931,-7.3891,-7.3891,-7.3777,-7.3657,-7.3537,-7.3537,-7.3589,-7.3559,-7.3281,-7.3302,-7.3344,-7.3169,-7.3257,-7.3498,-7.3498,-7.4016,-7.4705,-7.5223,-7.5913,-7.6602,-7.7085,-7.7223,-7.7223,-7.7223,-7.7133,-7.7009,-7.6839,-7.6702,-7.6645,-7.6402,-7.6356,-7.6262,-7.5994,-7.5947,-7.5899,-7.5757,-7.5994,-7.6135,-7.5981,-7.5947,-7.5899,-7.5709,-7.5709,-7.5709,-7.5709,-7.5709,-7.5709,-7.5709,-7.5709,-7.5614,-7.5325,-7.5115,-7.487,-7.4606,-7.4322,-7.4171,-7.407,-7.3764,-7.3422,-7.3162,-7.2847,-7.2668,-4.4593,-4.5305,-4.6018,-4.6732,-4.7233,-4.77,-4.8354,-4.8824,-4.9326,-5.0055,-5.0785,-5.1249,0.0,0.0,-5.279,-5.3523,-5.447,-5.5347,-5.6118,-5.8283,-5.9775,0.0,0.0,0.0,0.0,0.0,0.0,-6.5696,0.0,-6.7304,-6.7544,-6.9193,-7.0223,-7.0429,-7.1953,-7.2713,-7.2713,-7.2922,-7.3211,-7.3692,-7.3692,-7.3772,-7.397,-7.397,-7.397,-7.397,-7.397,-7.397,-7.397,-7.3772,-7.3692,-7.3617,-7.3415,-7.3293,-7.3293,-7.3328,-7.3656,-7.3968,-7.3351,-7.3552,-7.4141,-7.3929,-7.4326,-7.4903,-7.4903,-7.5455,-7.612,-7.612,-7.6637,-7.7223,-7.7223,-7.7178,-7.7178,-7.7178,-7.6964,-7.6793,-7.6748,-7.6599,-7.6402,-7.6122,-7.6075,-7.6028,-7.5757,-7.5709,-7.5709,-7.5709,-7.5709,-7.5709,-7.5709,-7.5709,-7.5709,-7.5709,-7.5709,-7.5709,-7.5709,-7.5709,-7.5709,-7.5709,-7.5709,-7.5566,-7.5325,-7.5115,-7.487,-7.4573,-7.4322,-7.407,-7.3797,-7.3473,-7.3162,-7.288,-7.2615,-7.2508,-4.4755,-4.5694,-4.67,-4.7032,-4.7335,-4.7734,-4.8525,-4.8926,-4.9326,-5.0191,-5.0491,-5.0658,0.0,0.0,0.0,-5.3001,-5.4207,0.0,-5.6118,-5.8283,0.0,0.0,0.0,-6.2956,-6.4478,-6.4613,0.0,0.0,-6.6954,-6.7543,-6.8295,-6.9467,-7.043,-7.1187,-7.2153,-7.2713,-7.2713,-7.2922,-7.3046,-7.317,-7.3334,-7.3415,-7.3496,-7.3496,-7.3496,-7.3496,-7.3496,-7.3496,-7.3496,-7.3415,-7.3415,-7.3415,-7.3334,-7.3211,-7.3157,-7.3712,-7.3898,-7.3929,-7.4309,-7.4507,-7.468,-7.4636,-7.4731,-7.4903,-7.4903,-7.5455,-7.612,-7.612,-7.6637,-7.7223,-7.7223,-7.7054,-7.6918,-7.6918,-7.6736,-7.6541,-7.6322,-7.6262,-7.6122,-7.5852,-7.5805,-7.5805,-7.5709,-7.5709,-7.5709,-7.5709,-7.5709,-7.5709,-7.5709,-7.5709,-7.5709,-7.5709,-7.5709,-7.5709,-7.5709,-7.5709,-7.5709,-7.5709,-7.5518,-7.5325,-7.5115,-7.4821,-7.4573,-7.4322,-7.4221,-7.407,-7.3797,-7.3473,-7.3162,-7.288,-7.2615,-7.2508,-4.4886,-4.5859,-4.6961,-4.7132,-4.7369,-4.7636,-4.8198,-4.8531,-4.8862,-4.9327,-4.9792,0.0,0.0,0.0,0.0,0.0,0.0,0.0,-5.5799,-5.7961,-5.9591,0.0,-6.1356,0.0,-6.4478,-6.4613,-6.5222,0.0,-6.6938,-6.7486,-6.8534,-6.9446,-7.045,-7.1463,-7.2257,-7.2713,-7.2713,-7.2797,-7.2922,-7.3005,-7.3129,-7.3211,-7.3293,-7.3293,-7.3293,-7.3293,-7.3293,-7.3293,-7.3293,-7.3211,-7.317,-7.317,-7.3088,-7.2963,-7.2915,-7.333,-7.3833,-7.4361,-7.4731,-7.5317,-7.5834,-7.5524,-7.5627,-7.5903,-7.5903,-7.6258,-7.6602,-7.6602,-7.6913,-7.7178,-7.7054,-7.6918,-7.6748,-7.6691,-7.6461,-7.6262,-7.6122,-7.6028,-7.5852,-7.5757,-7.5709,-7.5709,-7.5709,-7.5709,-7.5709,-7.5709,-7.5709,-7.5709,-7.5709,-7.5709,-7.5709,-7.5709,-7.5709,-7.5709,-7.5709,-7.5709,-7.5709,-7.5709,-7.547,-7.5179,-7.5018,-7.4722,-7.4473,-7.4221,-7.4221,-7.4019,-7.3609,-7.337,-7.311,-7.2721,-7.2562,-7.2508,-4.5017,-4.5927,-4.69,-4.7201,-4.7403,-4.7538,-4.7605,-4.7868,-4.8061,-4.7993,0.0,0.0,-4.9384,0.0,-5.1023,-5.1865,0.0,-5.4025,-5.5478,-5.7543,-5.9167,-6.0013,-6.1366,-6.2854,-6.4444,-6.4613,-6.5222,-6.6711,-6.6812,-6.7353,-6.8664,-6.9389,-7.0393,-7.1636,-7.2326,-7.2713,-7.2713,-7.2713,-7.2797,-7.2963,-7.2963,-7.3046,-7.3211,-7.3211,-7.3211,-7.3211,-7.3211,-7.3211,-7.3211,-7.3046,-7.2963,-7.2963,-7.2755,-7.2713,-7.2705,-7.2816,-7.3705,-7.4903,-7.5007,-7.5972,-7.712,-7.6464,-7.6706,-7.7223,-7.7223,-7.7223,-7.7178,-7.7178,-7.7178,-7.7088,-7.6828,-7.6702,-7.6691,-7.6495,-7.6262,-7.6075,-7.6075,-7.5852,-7.5709,-7.5709,-7.5709,-7.5709,-7.5709,-7.5709,-7.5709,-7.5709,-7.5709,-7.5709,-7.5709,-7.5709,-7.5709,-7.5709,-7.5709,-7.5709,-7.5709,-7.5709,-7.5709,-7.5709,-7.5422,-7.5179,-7.5018,-7.4722,-7.4423,-7.4221,-7.4221,-7.3884,-7.3285,-7.3285,-7.3005,-7.2508,-7.2508,-7.2508,-4.5079,-4.5832,-4.6683,-4.744,-4.7638,-4.7573,-4.727,-4.7231,0.0,0.0,0.0,-4.7436,-4.8229,-4.8972,0.0,-5.1378,0.0,0.0,0.0,0.0,-5.8592,0.0,0.0,0.0,0.0,0.0,0.0,0.0,0.0,-6.7514,-6.9203,-6.9578,-7.0633,-7.2429,-7.2644,-7.2713,-7.2713,-7.2713,-7.2713,-7.2755,-7.2755,-7.2755,-7.2797,-7.2797,-7.2797,-7.2797,-7.2797,-7.2797,-7.2797,-7.2755,-7.2755,-7.2755,-7.2713,-7.2713,-7.2782,-7.336,-7.4154,-7.4972,-7.5671,-7.6499,-7.7189,-7.7085,-7.712,-7.7223,-7.7223,-7.7223,-7.7178,-7.6918,-7.6873,-7.6828,-7.6633,-7.6402,-7.6216,-7.6169,-7.5947,-7.5757,-7.5757,-7.5757,-7.5709,-7.5709,-7.5709,-7.5709,-7.5709,-7.5709,-7.5709,-7.5709,-7.5709,-7.5709,-7.5709,-7.5709,-7.5709,-7.5709,-7.5709,-7.5709,-7.5709,-7.5709,-7.5709,-7.5709,-7.5277,-7.5018,-7.5018,-7.4523,-7.4221,-7.4221,-7.4221,-7.3884,-7.3285,-7.3285,-7.3005,-7.2508,-7.2508,-7.2508,-4.4616,-4.5339,-4.593,-4.6421,-4.6649,-4.6678,-4.6566,0.0,0.0,0.0,0.0,-4.7253,-4.8089,0.0,0.0,0.0,0.0,0.0,0.0,0.0,0.0,0.0,0.0,0.0,0.0,0.0,0.0,0.0,0.0,-6.7946,-6.9322,-7.0396,-7.1405,-7.2467,-7.2501,-7.2544,-7.2713,-7.2713,-7.2713,-7.2713,-7.2713,-7.2713,-7.2713,-7.2713,-7.2713,-7.2713,-7.2713,-7.2713,-7.2713,-7.2713,-7.2713,-7.2713,-7.2713,-7.2713,-7.2747,-7.3084,-7.3671,-7.443,-7.5223,-7.5982,-7.6661,-7.6906,-7.7088,-7.7223,-7.7223,-7.7099,-7.6964,-7.6839,-7.6736,-7.6599,-7.6356,-7.6216,-7.6075,-7.5899,-7.5805,-7.5709,-7.5709,-7.5709,-7.5709,-7.5709,-7.5709,-7.5709,-7.5709,-7.5709,-7.5709,-7.5709,-7.5709,-7.5709,-7.5709,-7.5709,-7.5709,-7.5709,-7.5709,-7.5709,-7.5709,-7.5709,-7.5662,-7.5518,-7.5179,-7.4919,-7.4771,-7.4423,-7.4221,-7.4221,-7.4221,-7.3968,-7.3558,-7.337,-7.311,-7.2721,-7.2562,-7.2508,-4.4169,-4.4803,-4.5334,-4.5623,-4.5783,-4.5906,-4.5921,-4.6186,0.0,0.0,0.0,-4.7005,-4.7786,0.0,0.0,0.0,0.0,0.0,0.0,0.0,0.0,0.0,0.0,0.0,0.0,0.0,0.0,0.0,0.0,0.0,-6.956,-7.1061,-7.2029,-7.2245,-7.2245,-7.2373,-7.2628,-7.2628,-7.2628,-7.2713,-7.2713,-7.2713,-7.2713,-7.2713,-7.2713,-7.2713,-7.2713,-7.2713,-7.2713,-7.2713,-7.2713,-7.2713,-7.2713,-7.2713,-7.2671,-7.2628,-7.3111,-7.3792,-7.4334,-7.516,-7.6011,-7.6381,-7.6781,-7.7133,-7.7088,-7.6873,-7.6702,-7.6691,-7.6507,-7.6356,-7.6075,-7.6028,-7.5947,-7.5757,-7.5709,-7.5709,-7.5709,-7.5709,-7.5709,-7.5709,-7.5709,-7.5709,-7.5709,-7.5709,-7.5709,-7.5709,-7.5709,-7.5709,-7.5709,-7.5709,-7.5709,-7.5709,-7.5709,-7.5709,-7.5709,-7.5709,-7.5614,-7.5325,-7.5115,-7.487,-7.4606,-7.4322,-7.4221,-7.4221,-7.4221,-7.407,-7.3797,-7.3558,-7.3214,-7.288,-7.2721,-7.2562,-4.3939,-4.4679,-4.535,-4.6082,-4.6249,-4.614,-4.5732,0.0,0.0,0.0,-4.5275,-4.5623,-4.6378,-4.7099,0.0,0.0,0.0,0.0,0.0,0.0,0.0,0.0,0.0,0.0,0.0,0.0,0.0,0.0,0.0,0.0,-7.0376,-7.1202,-7.1732,-7.2029,-7.2029,-7.2115,-7.2331,-7.2331,-7.2459,-7.2713,-7.2713,-7.2713,-7.2713,-7.2713,-7.2713,-7.2713,-7.2713,-7.2713,-7.2713,-7.2713,-7.2713,-7.2713,-7.2713,-7.2713,-7.2671,-7.2416,-7.2854,-7.3498,-7.3313,-7.4227,-7.5458,-7.5527,-7.6142,-7.6793,-7.6633,-7.6541,-7.6495,-7.6262,-7.6169,-7.6075,-7.5805,-7.5757,-7.5757,-7.5709,-7.5709,-7.5709,-7.5709,-7.5709,-7.5709,-7.5709,-7.5709,-7.5709,-7.5709,-7.5709,-7.5709,-7.5709,-7.5709,-7.5709,-7.5709,-7.5709,-7.5709,-7.5709,-7.5709,-7.5709,-7.5709,-7.5709,-7.5614,-7.5325,-7.5115,-7.487,-7.4606,-7.4322,-7.4221,-7.4221,-7.4221,-7.407,-7.3797,-7.3797,-7.3454,-7.2932,-7.288,-7.2721,-4.3121,-4.3662,-4.4093,-4.4888,-4.5173,-4.5187,-4.5145,0.0,0.0,-4.5138,-4.5238,-4.5585,-4.6343,-4.7134,-4.8133,0.0,0.0,0.0,0.0,0.0,0.0,0.0,0.0,0.0,0.0,0.0,0.0,0.0,0.0,0.0,-7.0938,-7.1243,-7.1546,-7.1732,-7.1732,-7.1898,-7.2115,-7.2115,-7.2245,-7.2459,-7.2459,-7.2544,-7.2713,-7.2713,-7.2713,-7.2713,-7.2713,-7.2713,-7.2713,-7.2713,-7.2713,-7.2671,-7.2544,-7.2459,-7.2459,-7.2202,-7.2321,-7.2663,-7.2986,-7.3762,-7.4718,-7.506,-7.5708,-7.6368,-7.6495,-7.6402,-7.6262,-7.6122,-7.5947,-7.5852,-7.5757,-7.5709,-7.5709,-7.5709,-7.5709,-7.5709,-7.5709,-7.5709,-7.5709,-7.5709,-7.5709,-7.5709,-7.5709,-7.5709,-7.5709,-7.5709,-7.5709,-7.5709,-7.5709,-7.5709,-7.5709,-7.5709,-7.5709,-7.5709,-7.5709,-7.5566,-7.5373,-7.5131,-7.487,-7.4622,-7.4372,-7.4272,-7.4221,-7.4221,-7.4221,-7.4171,-7.4019,-7.3899,-7.3694,-7.3403,-7.309,-7.2827,-4.226,-4.2739,-4.3036,-4.3686,-4.387,-4.4007,0.0,0.0,0.0,-4.4913,-4.5198,-4.5622,-4.6148,-4.7017,-4.8148,0.0,0.0,0.0,0.0,0.0,0.0,0.0,0.0,0.0,0.0,0.0,0.0,0.0,0.0,0.0,-7.1278,-7.1312,-7.1356,-7.1501,-7.1546,-7.1634,-7.1898,-7.1898,-7.1985,-7.2202,-7.2202,-7.2331,-7.2501,-7.2501,-7.2501,-7.2501,-7.2501,-7.2501,-7.2501,-7.2501,-7.2501,-7.2459,-7.2288,-7.2202,-7.2202,-7.1985,-7.1898,-7.1922,-7.2424,-7.3027,-7.3776,-7.4342,-7.5077,-7.5722,-7.6148,-7.6122,-7.5981,-7.5981,-7.5852,-7.5709,-7.5709,-7.5709,-7.5709,-7.5709,-7.5709,-7.5709,-7.5709,-7.5709,-7.5709,-7.5709,-7.5709,-7.5709,-7.5709,-7.5709,-7.5709,-7.5709,-7.5709,-7.5709,-7.5709,-7.5709,-7.5662,-7.5614,-7.5614,-7.5614,-7.5614,-7.5422,-7.5179,-7.4919,-7.4672,-7.4473,-7.4221,-7.4221,-7.4221,-7.4221,-7.4221,-7.4221,-7.4221,-7.4019,-7.3899,-7.3797,-7.3351,-7.309,-4.1417,-4.2134,-4.2714,-4.2714,-4.2714,-4.2766,0.0,0.0,-4.4311,-4.4311,-4.501,-4.5554,-4.5423,-4.6672,-4.7913,-4.8672,0.0,0.0,0.0,0.0,0.0,0.0,0.0,0.0,0.0,0.0,0.0,0.0,0.0,0.0,-7.1278,-7.1312,-7.1312,-7.1312,-7.1312,-7.1367,-7.16,-7.16,-7.1732,-7.1985,-7.1985,-7.1985,-7.1985,-7.1985,-7.1985,-7.1985,-7.1985,-7.1985,-7.1985,-7.1985,-7.1985,-7.1985,-7.1985,-7.1985,-7.1985,-7.1688,-7.16,-7.1556,-7.1401,-7.1819,-7.2529,-7.3274,-7.4018,-7.4762,-7.5473,-7.5709,-7.5709,-7.5709,-7.5709,-7.5709,-7.5709,-7.5709,-7.5709,-7.5709,-7.5709,-7.5709,-7.5709,-7.5709,-7.5709,-7.5709,-7.5709,-7.5709,-7.5709,-7.5709,-7.5709,-7.5709,-7.5709,-7.5709,-7.5709,-7.5709,-7.5614,-7.5325,-7.5325,-7.5325,-7.5325,-7.5325,-7.5082,-7.4622,-7.4606,-7.4473,-7.4221,-7.4221,-7.4221,-7.4221,-7.4221,-7.4221,-7.4221,-7.4221,-7.407,-7.3797,-7.3797,-7.3454,-4.0889,-4.1656,-4.2368,-4.2984,-4.3113,-4.3138,-4.3286,0.0,-4.4539,-4.4473,-4.5061,-4.5727,-4.6113,-4.7017,-4.8058,-4.9246,-5.0686,0.0,0.0,0.0,0.0,0.0,0.0,0.0,0.0,0.0,0.0,0.0,0.0,0.0,-7.1312,-7.1312,-7.1312,-7.1312,-7.1312,-7.1356,-7.1367,-7.1367,-7.1501,-7.1732,-7.1732,-7.181,-7.1985,-7.1985,-7.1985,-7.1985,-7.1985,-7.1985,-7.1985,-7.1985,-7.1985,-7.1985,-7.181,-7.1732,-7.1688,-7.1457,-7.1367,-7.1401,-7.1312,-7.1785,-7.2428,-7.2665,-7.3578,-7.4661,-7.4897,-7.5303,-7.5709,-7.5709,-7.5709,-7.5709,-7.5709,-7.5709,-7.5709,-7.5709,-7.5709,-7.5709,-7.5709,-7.5566,-7.5422,-7.5422,-7.5325,-7.5213,-7.5213,-7.5213,-7.5213,-7.5213,-7.5213,-7.5213,-7.5213,-7.5213,-7.5213,-7.5115,-7.5115,-7.5115,-7.5115,-7.4919,-7.4771,-7.4606,-7.4423,-7.4272,-7.4221,-7.4221,-7.4221,-7.4221,-7.4221,-7.4221,-7.4221,-7.4221,-7.407,-7.3797,-7.3558,-7.3266,0.0,-4.0919,-4.1497,-4.2295,-4.2493,0.0,0.0,0.0,-4.4272,-4.4098,-4.493,-4.5875,-4.6485,-4.7403,-4.8489,-4.988,0.0,0.0,0.0,0.0,0.0,0.0,0.0,0.0,0.0,0.0,0.0,0.0,0.0,0.0,-7.1312,-7.1312,-7.1312,-7.1312,-7.1312,-7.1312,-7.1312,-7.1312,-7.1356,-7.1501,-7.1501,-7.159,-7.1756,-7.1756,-7.1756,-7.1756,-7.1756,-7.1756,0.0,-7.1756,-7.1756,-7.1756,-7.1546,-7.1501,-7.1457,-7.1356,-7.1312,-7.1267,-7.1176,-7.1447,-7.1886,-7.2064,-7.313,-7.4411,-7.468,-7.5195,-7.5709,-7.5709,-7.5709,-7.5709,-7.5566,-7.5566,-7.5518,-7.547,-7.5422,-7.5422,-7.5422,-7.5277,-7.5179,-7.5179,-7.5115,-7.5018,-7.5018,-7.5018,-7.5018,-7.5018,-7.5018,-7.5018,-7.5018,-7.5018,-7.4968,-7.487,-7.4821,-7.4821,-7.4722,-7.4622,-7.4556,-7.4456,-7.4272,-7.4221,-7.4221,-7.4221,-7.4221,-7.4221,-7.4221,-7.4221,-7.4221,-7.4221,-7.412,-7.3917,-7.3525,-7.3214,0.0,0.0,0.0,0.0,0.0,0.0,0.0,0.0,0.0,-4.3429,-4.4703,-4.6022,-4.6589,-4.7767,-4.9193,-5.0673,0.0,0.0,0.0,0.0,0.0,0.0,0.0,0.0,0.0,0.0,0.0,0.0,0.0,0.0,-7.1312,-7.1312,-7.1312,-7.1312,-7.1312,-7.1312,-7.1312,-7.1312,-7.1312,-7.1312,-7.1312,-7.1312,-7.1312,-7.1312,-7.1312,0.0,-7.1312,-7.1312,-7.1312,-7.1312,-7.1312,-7.1312,-7.1312,-7.1312,-7.1312,-7.1267,-7.1267,-7.1222,-7.0961,-7.087,-7.0959,-7.158,-7.2692,-7.3964,-7.4734,-7.5277,-7.5662,-7.5662,-7.5662,-7.5614,-7.5325,-7.5277,-7.5228,-7.5067,-7.5018,-7.5018,-7.5018,-7.4968,-7.4968,-7.4968,-7.4968,-7.4919,-7.4919,-7.4919,-7.4919,-7.4919,-7.4919,-7.4919,-7.4919,-7.4919,-7.4821,-7.4606,-7.4606,-7.4473,-7.4221,-7.4423,-7.4473,-7.4221,-7.4221,-7.4221,-7.4221,-7.4221,-7.4221,-7.4221,-7.4221,-7.4221,-7.4221,-7.4221,-7.4221,-7.4171,-7.3577,-7.3285,-3.9063,0.0,-4.0591,-4.1305,-4.1515,0.0,0.0,0.0,0.0,0.0,0.0,0.0,0.0,0.0,0.0,0.0,0.0,0.0,0.0,0.0,0.0,0.0,0.0,0.0,0.0,0.0,0.0,0.0,0.0,-7.1052,-7.1267,-7.1312,-7.1312,-7.1312,-7.1312,-7.1312,-7.1312,-7.1312,-7.1312,-7.1312,-7.1312,-7.1312,-7.1312,-7.1312,-7.1312,-7.1312,-7.1312,-7.1312,-7.1312,-7.1312,-7.1312,-7.1312,-7.1312,-7.1312,-7.1267,-7.1086,-7.0961,-7.0961,-7.0687,-7.0561,-7.0796,-7.2055,-7.2692,-7.3227,-7.4567,-7.5067,-7.5164,-7.5164,-7.5164,-7.5164,-7.5115,-7.5067,-7.5067,-7.5018,-7.5018,-7.5018,-7.5018,-7.4821,-7.4672,-7.4672,-7.4523,-7.4372,-7.4372,-7.4372,-7.4372,-7.4372,-7.4372,-7.4372,-7.4372,-7.4372,-7.4372,-7.4272,-7.4272,-7.4272,-7.4221,-7.4272,-7.4272,-7.4221,-7.4221,-7.4221,-7.4221,-7.4221,-7.4221,-7.4221,-7.4221,-7.4221,-7.4221,-7.4221,-7.4221,-7.4171,-7.3577,-7.3285,-3.8901,-3.9638,-4.02,-4.1323,-4.184,-4.2181,0.0,0.0,0.0,0.0,0.0,0.0,0.0,0.0,0.0,0.0,0.0,0.0,0.0,0.0,0.0,0.0,0.0,0.0,0.0,0.0,0.0,0.0,0.0,-7.1467,-7.1637,-7.1728,-7.165,-7.1312,-7.1312,-7.1312,-7.1312,-7.1312,-7.1312,-7.1312,-7.1312,-7.1312,-7.1312,-7.1312,-7.1312,-7.1312,-7.1312,-7.1312,-7.1312,-7.1312,-7.1312,-7.1267,-7.1176,-7.1131,-7.1052,-7.0825,-7.0733,-7.0654,-7.0456,-7.0316,-7.0456,-7.1923,-7.2389,-7.2689,-7.4156,-7.4622,-7.4672,-7.4919,-7.5018,-7.4968,-7.4821,-7.4821,-7.4771,-7.4672,-7.4622,-7.4622,-7.4622,-7.4523,-7.4423,-7.4423,-7.4272,-7.4221,-7.4221,-7.4221,-7.4221,-7.4221,-7.4221,-7.4221,-7.4221,-7.4221,-7.4221,-7.4221,-7.4221,-7.4221,-7.4221,-7.4221,-7.4221,-7.4221,-7.4221,-7.4221,-7.4221,-7.4221,-7.4221,-7.4221,-7.4221,-7.4221,-7.4221,-7.4221,-7.412,-7.3968,-7.3525,-7.3266,-3.8859,-3.935,-3.9785,-4.1349,-4.217,-4.2672,0.0,0.0,0.0,0.0,0.0,0.0,0.0,0.0,0.0,0.0,0.0,0.0,0.0,0.0,0.0,0.0,0.0,0.0,0.0,0.0,0.0,0.0,0.0,-7.2035,-7.1934,-7.2165,-7.1919,-7.1176,-7.1176,-7.1176,-7.1176,-7.1222,-7.1222,-7.1176,-7.1176,-7.1176,-7.1176,-7.1176,-7.1176,-7.1176,-7.1176,-7.1176,-7.1176,-7.1176,-7.1176,-7.1176,-7.0916,-7.0825,-7.0825,-7.0515,-7.0423,-7.0423,-7.0223,-7.0054,-7.0196,-7.1554,-7.2084,-7.2415,-7.3773,-7.4221,-7.4272,-7.4771,-7.487,-7.4821,-7.4573,-7.4556,-7.4473,-7.4272,-7.4221,-7.4221,-7.4221,-7.4221,-7.4221,-7.4221,-7.4221,-7.4221,-7.4221,-7.4221,-7.4221,-7.4221,-7.4221,-7.4221,-7.4221,-7.4221,-7.4221,-7.4221,-7.4221,-7.4221,-7.4221,-7.4221,-7.4221,-7.4221,-7.4221,-7.4221,-7.4221,-7.4221,-7.4221,-7.4221,-7.4221,-7.4221,-7.4221,-7.4221,-7.407,-7.3797,-7.3473,-7.3162,-3.8895,-3.9543,-4.0349,-4.2032,-4.244,-4.2938,0.0,0.0,0.0,0.0,0.0,0.0,0.0,0.0,0.0,0.0,0.0,0.0,0.0,0.0,0.0,0.0,0.0,0.0,0.0,0.0,0.0,0.0,0.0,-7.2133,-7.1687,-7.1701,-7.1379,-7.0641,-7.0608,-7.0608,-7.0608,-7.087,-7.087,-7.0608,-7.0608,-7.0608,-7.0608,-7.0608,-7.0608,-7.0608,-7.0608,-7.0608,-7.0608,-7.0608,-7.0608,-7.0608,-7.0561,-7.0561,-7.0515,-7.0316,-7.0223,-7.0223,-6.9941,-7.0244,-7.0858,-7.172,-7.2415,-7.3078,-7.3906,-7.4221,-7.4221,-7.4322,-7.4322,-7.4322,-7.4272,-7.4272,-7.4272,-7.4221,-7.4221,-7.4221,-7.4221,-7.4221,-7.4221,-7.4221,-7.4221,-7.4221,-7.4221,-7.4221,-7.4221,-7.4221,-7.4221,-7.4221,-7.4221,-7.4221,-7.4221,-7.4221,-7.4221,-7.4221,-7.4221,-7.4221,-7.4221,-7.4221,-7.4221,-7.4221,-7.4221,-7.4221,-7.4221,-7.4221,-7.4221,-7.4221,-7.4221,-7.4221,-7.407,-7.3797,-7.3473,-7.3162,-3.888,-3.9795,-4.0932,-4.2493,-4.3138,-4.3746,0.0,0.0,0.0,0.0,0.0,0.0,0.0,0.0,0.0,0.0,0.0,0.0,0.0,0.0,0.0,0.0,0.0,0.0,0.0,0.0,0.0,0.0,-7.2111,-7.2289,-7.2052,-7.176,-7.1319,-7.0549,-7.0515,-7.0423,-7.0363,-7.0456,-7.0502,-7.0515,-7.0515,-7.0515,-7.0515,-7.0515,-7.0515,-7.0515,-7.0515,-7.0515,-7.0515,-7.0515,-7.0515,-7.0469,-7.041,-7.0363,-7.0316,-7.0082,-6.9988,-7.0007,-7.031,-7.0626,-7.109,-7.2216,-7.2813,-7.3243,-7.3972,-7.4221,-7.4221,-7.4221,-7.4221,-7.4221,-7.4221,-7.4221,-7.4221,-7.4221,-7.4221,-7.4221,-7.4221,-7.4221,-7.4221,-7.4221,-7.4221,-7.4221,-7.4221,-7.4221,-7.4221,-7.4221,-7.4221,-7.4221,-7.4221,-7.4221,-7.4221,-7.4221,-7.4221,-7.4221,-7.4221,-7.4221,-7.4221,-7.4221,-7.4221,-7.4221,-7.4221,-7.4221,-7.4221,-7.4221,-7.4221,-7.4221,-7.4221,-7.407,-7.3815,-7.3525,-7.3214,-7.2952,-3.926,-4.0319,-4.1574,-4.32,0.0,-4.4698,0.0,0.0,0.0,0.0,0.0,0.0,0.0,0.0,0.0,0.0,0.0,0.0,0.0,0.0,0.0,0.0,0.0,0.0,0.0,0.0,0.0,-7.2216,-7.2446,-7.2477,-7.2311,-7.1771,-7.1178,-7.0363,-7.033,-7.027,-7.0082,-7.0082,-7.0176,-7.033,-7.033,-7.033,-7.033,-7.033,-7.033,-7.033,-7.033,-7.033,-7.033,-7.033,-7.033,-7.033,-7.0176,-7.0082,-7.0082,-6.9893,-6.9798,-6.9898,-7.0626,-7.1024,-7.1355,-7.268,-7.321,-7.3442,-7.4005,-7.4221,-7.4221,-7.4221,-7.4089,-7.3972,-7.4188,-7.4038,-7.3906,-7.3906,-7.3807,-7.3674,-7.3674,-7.3674,-7.3674,-7.3674,-7.3674,-7.3674,-7.3674,-7.3674,-7.3707,-7.3906,-7.3906,-7.3972,-7.4188,-7.4221,-7.4221,-7.4221,-7.4221,-7.4221,-7.4221,-7.4221,-7.4221,-7.4221,-7.4221,-7.4221,-7.4221,-7.4221,-7.4221,-7.4221,-7.4221,-7.4171,-7.412,-7.3899,-7.3609,-7.3214,-7.3005,-7.2774,-4.047,-4.1285,-4.2284,-4.449,0.0,0.0,0.0,0.0,0.0,0.0,0.0,0.0,0.0,0.0,0.0,0.0,0.0,0.0,0.0,0.0,0.0,0.0,0.0,0.0,0.0,0.0,-7.2216,-7.2978,-7.3045,-7.2713,-7.2051,-7.1337,-7.0608,-6.9846,-6.9846,-6.9846,-6.9846,-6.9846,-6.9846,-6.9846,-6.9846,-6.9846,-6.9846,-6.9846,-6.9846,-6.9846,-6.9846,-6.9846,-6.9846,-6.9846,-6.9846,-6.9846,-6.9846,-6.9846,-6.9846,-6.9798,-6.9798,-6.9898,-7.0626,-7.1355,-7.2051,-7.2846,-7.3541,-7.4155,-7.4188,-7.4221,-7.4221,-7.4221,-7.3707,-7.3343,-7.4005,-7.3674,-7.3177,-7.3177,-7.2647,-7.215,-7.215,-7.215,-7.215,-7.215,-7.215,-7.215,-7.215,-7.215,-7.2382,-7.3078,-7.3177,-7.3442,-7.4122,-7.4221,-7.4221,-7.4221,-7.4221,-7.4221,-7.4221,-7.4221,-7.4221,-7.4221,-7.4221,-7.4221,-7.4221,-7.4221,-7.4221,-7.4221,-7.4221,-7.407,-7.3848,-7.3797,-7.3506,-7.2932,-7.2932,-7.2774,-4.0433,-4.1965,-4.3451,-4.4599,0.0,0.0,0.0,0.0,0.0,0.0,0.0,0.0,0.0,0.0,0.0,0.0,0.0,0.0,0.0,0.0,0.0,0.0,0.0,0.0,0.0,-7.0891,-7.1421,-7.172,-7.172,-7.162,-7.1322,-7.0626,-7.0096,-6.9798,-6.9798,-6.9798,-6.9798,-6.9798,-6.9798,-6.9798,-6.9798,-6.9798,-6.9798,-6.9798,-6.9798,-6.9798,-6.9798,-6.9798,-6.9798,-6.9798,-6.9798,-6.9798,-6.9798,-6.9798,-6.9798,-6.9798,-6.9798,-6.9898,-7.0626,-7.1388,-7.2117,-7.2879,-7.3575,-7.4122,-7.3641,-7.3508,-7.3409,-7.2945,-7.2614,-7.2581,-7.331,-7.2978,-7.2415,-7.2415,-7.2216,-7.2018,-7.2018,-7.2018,-7.2018,-7.2018,-7.2018,-7.2018,-7.2018,-7.2018,-7.2084,-7.2382,-7.2563,-7.2794,-7.306,-7.3207,-7.3207,-7.3093,-7.3343,-7.3674,-7.4188,-7.4221,-7.4221,-7.4221,-7.4221,-7.4221,-7.4221,-7.4221,-7.4221,-7.4221,-7.4019,-7.3668,-7.3105,-7.2798,-7.226,-7.1597,-7.1389,-7.1285,-4.1037,-4.2775,-4.4456,0.0,0.0,0.0,0.0,0.0,0.0,0.0,0.0,0.0,0.0,0.0,0.0,0.0,0.0,0.0,0.0,0.0,0.0,0.0,0.0,0.0,-7.0129,-7.0593,-7.0991,-7.1223,-7.1024,-7.0891,-7.0891,-7.0196,-6.9798,-6.9798,-6.9798,-6.9798,-6.9798,-6.9798,-6.9798,-6.9798,-6.9798,-6.9798,-6.9798,-6.9798,-6.9798,-6.9798,-6.9798,-6.9751,-6.9703,-6.9703,-6.9622,-6.9559,-6.9655,-6.9703,-6.9703,-6.9798,-6.9798,-6.9898,-7.0626,-7.1223,-7.1786,-7.2515,-7.3028,-7.3276,-7.2813,-7.2547,-7.2398,-7.2002,-7.1721,-7.1655,-7.2233,-7.2051,-7.1653,-7.1653,-7.1488,-7.1322,-7.1322,-7.1322,-7.1322,-7.1322,-7.1322,-7.1322,-7.1322,-7.1322,-7.1388,-7.162,-7.1848,-7.2141,-7.2374,-7.2567,-7.2615,-7.2408,-7.2629,-7.2945,-7.3442,-7.3707,-7.384,-7.384,-7.384,-7.3939,-7.4221,-7.4221,-7.4072,-7.3739,-7.3536,-7.3021,-7.2095,-7.1738,-7.1271,-7.068,-7.0507,-7.0403,-4.2533,-4.3807,0.0,0.0,0.0,0.0,0.0,0.0,0.0,0.0,0.0,0.0,0.0,0.0,0.0,0.0,0.0,0.0,0.0,0.0,0.0,0.0,0.0,-7.0096,-7.0825,-7.0891,-7.1189,-7.1918,-7.1289,-7.0891,-7.0891,-7.0196,-6.9798,-6.9798,-6.9798,-6.9798,-6.9798,-6.9798,-6.9798,-6.9798,-6.9798,-6.9798,-6.9798,-6.9798,-6.9798,-6.9798,-6.9798,-6.9655,-6.9415,-6.9415,-6.9237,-6.9042,-6.9285,-6.9415,-6.943,-6.9703,-6.9798,-6.9898,-7.0626,-7.0891,-7.1024,-7.1753,-7.1788,-7.1589,-7.1589,-7.139,-7.1206,-7.1507,-7.1062,-7.0551,-7.0795,-7.0891,-7.0891,-7.0891,-7.0328,-6.9798,-6.9798,-6.9798,-6.9798,-6.9798,-6.9798,-6.9798,-6.9798,-6.9798,-7.003,-7.0792,-7.1132,-7.1542,-7.2308,-7.2534,-7.263,-7.2408,-7.2131,-7.1985,-7.2018,-7.268,-7.3111,-7.3111,-7.3111,-7.3409,-7.4188,-7.4188,-7.3706,-7.2709,-7.2676,-7.2062,-7.0801,-7.075,-7.0629,-7.0403,-7.0403,-7.0403,-4.3707,0.0,0.0,0.0,0.0,0.0,0.0,0.0,0.0,0.0,0.0,0.0,0.0,0.0,0.0,0.0,0.0,0.0,0.0,0.0,0.0,0.0,0.0,-6.9864,-7.0096,-7.0129,-7.0229,-7.0428,-7.0262,-7.0129,-7.0129,-6.9931,-6.9798,-6.9798,-6.9798,-6.9798,-6.9798,-6.9798,-6.9798,-6.9798,-6.9798,-6.9798,-6.9798,-6.9574,-6.9526,-6.9511,-6.9334,-6.9188,-6.9091,-6.9091,-6.9091,-6.8994,-6.9091,-6.9091,-6.914,-6.9188,-6.9237,-6.927,-6.95,-6.9894,-7.0388,-7.0585,-7.0962,-7.1241,-7.0716,-7.0502,-7.0354,-6.9879,-6.9583,-6.9468,-6.9517,-6.9711,-6.9856,-7.0082,-6.9964,-6.9798,-6.9798,-6.9798,-6.9798,-6.9798,-6.9798,-6.9798,-6.9798,-6.9798,-6.9864,-7.0096,-7.0367,-7.0656,-7.1045,-7.0998,-7.1137,-7.1575,-7.1368,-7.1455,-7.1951,-7.2216,-7.2349,-7.2349,-7.2349,-7.2647,-7.3409,-7.2763,-7.2249,-7.1919,-7.1567,-7.0953,-7.0001,-6.9849,-6.9436,-6.8849,-6.8849,-6.8849,0.0,0.0,0.0,0.0,0.0,0.0,0.0,0.0,0.0,0.0,0.0,0.0,0.0,0.0,0.0,0.0,0.0,0.0,0.0,0.0,0.0,0.0,0.0,-6.9798,-6.9798,-6.9798,-6.9798,-6.9798,-6.9798,-6.9798,-6.9798,-6.9798,-6.9798,-6.9798,-6.9798,-6.9798,-6.9798,-6.9798,-6.9798,-6.9798,-6.9703,-6.9655,-6.9655,-6.9478,-6.9334,-6.9237,-6.8945,-6.8847,-6.8847,-6.8748,-6.8699,-6.8699,-6.8797,-6.8847,-6.8847,-6.8945,-6.8994,-6.8994,-6.8994,-6.9288,-6.9649,-6.9649,-6.9894,-7.0089,-6.9631,-6.9451,-6.9253,-6.8928,-6.8847,-6.8847,-6.8994,-6.9091,-6.9285,-6.9607,-6.9751,-6.9798,-6.9798,-6.9798,-6.9798,-6.9798,-6.9798,-6.9798,-6.9798,-6.9798,-6.9798,-6.9798,-7.0035,-7.027,-7.0469,-7.0316,-7.0376,-7.0809,-7.0604,-7.0626,-7.109,-7.1388,-7.1554,-7.1554,-7.1554,-7.1704,-7.2068,-7.1788,-7.1358,-7.0863,-7.0529,-6.9918,-6.9101,-6.895,-6.8622,-6.8201,-6.8201,-6.8201,0.0,0.0,0.0,0.0,0.0,0.0,0.0,0.0,0.0,0.0,0.0,0.0,0.0,0.0,0.0,0.0,0.0,0.0,-6.9699,0.0,0.0,0.0,-6.9798,-6.9798,-6.9798,-6.9798,-6.9798,-6.9798,-6.9798,-6.9798,-6.9798,-6.9798,-6.9798,-6.9798,-6.9798,-6.9798,-6.9798,-6.9798,-6.9798,-6.9798,-6.9559,-6.9382,-6.9334,-6.9334,-6.9188,-6.8896,-6.8649,-6.855,-6.855,-6.8301,-6.8201,-6.8251,-6.8451,-6.855,-6.86,-6.8847,-6.8945,-6.8945,-6.8945,-6.8945,-6.8945,-6.8945,-6.8748,-6.855,-6.855,-6.8401,-6.8251,-6.8501,-6.855,-6.86,-6.8847,-6.8945,-6.9042,-6.9237,-6.9526,-6.9751,-6.9751,-6.9798,-6.9798,-6.9798,-6.9798,-6.9798,-6.9798,-6.9798,-6.9798,-6.9798,-6.9988,-7.0223,-7.0423,-7.027,-7.0129,-7.0129,-6.9941,-6.9798,-6.9798,-7.0394,-7.0792,-7.0792,-7.0792,-7.0647,-7.0403,-7.098,-7.0814,-6.961,-6.9577,-6.9101,-6.8201,-6.8201,-6.8201,-6.8201,-6.8201,-6.8201,0.0,0.0,0.0,0.0,0.0,0.0,0.0,0.0,0.0,0.0,0.0,0.0,0.0,0.0,0.0,0.0,0.0,0.0,0.0,-6.9798,-6.9798,-6.9798,-6.9798,-6.9798,-6.9798,-6.9798,-6.9798,-6.9798,-6.9798,-6.9798,-6.9798,-6.9798,-6.9798,-6.9798,-6.9798,-6.9798,-6.9798,-6.9798,-6.9798,-6.9798,-6.9559,-6.9285,-6.9091,-6.8847,-6.8649,-6.8351,-6.8301,-6.8301,-6.8301,-6.8251,-6.8201,-6.8201,-6.8251,-6.8301,-6.8301,-6.8351,-6.8351,-6.8351,-6.8351,-6.8351,-6.8351,-6.8351,-6.8351,-6.8301,-6.8301,-6.8251,-6.8201,-6.8251,-6.8301,-6.8301,-6.8351,-6.855,-6.8699,-6.8748,-6.914,-6.9511,-6.9511,-6.9655,-6.9798,-6.9798,-6.9798,-6.9798,-6.9798,-6.9798,-6.9798,-6.9798,-6.9846,-6.9893,-6.9907,-6.9893,-6.9893,-6.9893,-6.9846,-6.9798,-6.9798,-6.9931,-7.003,-7.003,-6.9838,-6.9564,-6.9321,-6.9485,-6.9338,-6.8828,-6.8629,-6.8413,-6.8201,-6.8201,-6.8201,-6.8201,-6.8201,-6.8201,0.0,0.0,0.0,0.0,0.0,0.0,0.0,0.0,0.0,0.0,0.0,0.0,0.0,0.0,0.0,0.0,0.0,0.0,0.0,-6.9798,-6.9798,-6.9798,-6.9798,-6.9798,-6.9798,-6.9798,-6.9798,-6.9798,-6.9798,-6.9798,-6.9798,-6.9798,-6.9798,-6.9798,-6.9798,-6.9798,-6.9798,-6.9798,-6.9751,-6.9607,-6.9334,-6.8994,-6.86,-6.8451,-6.8351,-6.8201,-6.8201,-6.8201,-6.8201,-6.8201,-6.8201,-6.8201,-6.8201,-6.8201,-6.8201,-6.8201,-6.8201,-6.8201,-6.8201,-6.8201,-6.8201,-6.8201,-6.8101,-6.805,-6.8151,-6.8101,-6.805,-6.8151,-6.8201,-6.8201,-6.8201,-6.8301,-6.8401,-6.8401,-6.8797,-6.9188,-6.9188,-6.943,-6.9607,-6.9607,-6.9703,-6.9798,-6.9798,-6.9798,-6.9798,-6.9798,-6.9798,-6.9798,-6.9798,-6.9798,-6.9798,-6.9798,-6.9798,-6.9798,-6.9798,-6.9798,-6.9798,-6.9798,-6.9559,-6.9285,-6.8994,-6.8896,-6.8699,-6.8401,-6.8251,-6.8201,-6.8201,-6.8201,-6.8201,-6.8201,-6.8201,-6.8201,0.0,0.0,0.0,0.0,0.0,0.0,0.0,0.0,0.0,0.0,0.0,0.0,0.0,0.0,0.0,0.0,0.0,0.0,0.0,-6.9798,-6.9798,-6.9798,-6.9798,-6.9798,-6.9798,-6.9798,-6.9798,-6.9798,-6.9798,-6.9798,-6.9798,-6.9798,-6.9798,-6.9798,-6.9798,-6.9798,-6.9798,-6.9751,-6.9655,-6.9415,-6.9091,-6.8699,-6.8201,-6.8201,-6.8201,-6.8201,-6.8201,-6.8201,-6.8201,-6.8201,-6.8201,-6.8201,-6.8201,-6.8201,-6.8201,-6.8201,-6.8201,-6.8201,-6.8151,-6.8151,-6.8101,-6.8101,-6.7899,-6.7746,-6.8,-6.7899,-6.7797,-6.805,-6.8151,-6.8151,-6.8201,-6.8201,-6.8201,-6.8201,-6.855,-6.8896,-6.8896,-6.914,-6.9334,-6.9334,-6.9559,-6.9751,-6.9751,-6.9798,-6.9798,-6.9798,-6.9798,-6.9798,-6.9798,-6.9798,-6.9798,-6.9798,-6.9798,-6.9798,-6.9798,-6.9798,-6.9798,-6.9751,-6.9478,-6.9188,-6.8945,-6.8699,-6.8451,-6.8201,-6.8201,-6.8201,-6.8201,-6.8201,-6.8201,-6.8201,-6.8201,-6.8201,0.0,0.0,0.0,0.0,0.0,0.0,0.0,0.0,0.0,0.0,0.0,0.0,0.0,0.0,0.0,0.0,0.0,0.0,0.0,-6.9798,-6.9798,-6.9798,-6.9798,-6.9798,-6.9798,-6.9798,-6.9798,-6.9798,-6.9798,-6.9798,-6.9798,-6.9798,-6.9798,-6.9798,-6.9798,-6.9798,-6.9798,-6.9559,-6.9463,-6.9382,-6.8896,-6.8501,-6.8201,-6.8201,-6.8201,-6.8201,-6.8201,-6.8201,-6.8201,-6.8201,-6.8201,-6.8201,-6.8201,-6.8201,-6.8201,-6.8201,-6.8201,-6.8151,-6.7949,-6.7848,-6.7797,-6.7593,-6.7491,-6.7439,-6.7523,-6.7491,-6.7491,-6.7797,-6.7848,-6.7899,-6.8151,-6.8201,-6.8201,-6.8201,-6.8251,-6.8351,-6.86,-6.8847,-6.9042,-6.9042,-6.9237,-6.943,-6.943,-6.9655,-6.9798,-6.9798,-6.9798,-6.9798,-6.9798,-6.9798,-6.9798,-6.9798,-6.9798,-6.9798,-6.9798,-6.9798,-6.9703,-6.9463,-6.9188,-6.8945,-6.8649,-6.8401,-6.8251,-6.8201,-6.8201,-6.8201,-6.8201,-6.8201,-6.8201,-6.8201,-6.8201,-6.8201,0.0,0.0,0.0,0.0,0.0,0.0,0.0,0.0,0.0,0.0,0.0,0.0,0.0,0.0,0.0,0.0,0.0,0.0,0.0,-6.9798,-6.9798,-6.9798,-6.9798,-6.9798,-6.9798,-6.9798,-6.9798,-6.9798,-6.9798,-6.9798,-6.9798,-6.9798,-6.9798,-6.9798,-6.9655,-6.9607,-6.9607,-6.9285,-6.9091,-6.8945,-6.855,-6.8301,-6.8201,-6.8201,-6.8201,-6.8201,-6.8201,-6.8201,-6.8201,-6.8201,-6.8201,-6.8201,-6.8201,-6.8201,-6.8201,-6.8201,-6.8101,-6.7949,-6.7848,-6.7695,-6.7542,-6.7439,-6.7317,-6.7213,-6.7336,-6.7317,-6.7265,-6.7695,-6.7797,-6.7848,-6.8151,-6.8201,-6.8201,-6.8201,-6.8201,-6.8251,-6.8351,-6.86,-6.8797,-6.8994,-6.9091,-6.9188,-6.9188,-6.9285,-6.9334,-6.9334,-6.9478,-6.9607,-6.9607,-6.9703,-6.9798,-6.9798,-6.9798,-6.9798,-6.9798,-6.9798,-6.9703,-6.943,-6.914,-6.8896,-6.86,-6.8351,-6.8201,-6.8201,-6.8201,-6.8201,-6.8201,-6.8201,-6.8201,-6.8201,-6.8201,-6.8201,0.0,0.0,0.0,0.0,0.0,0.0,0.0,0.0,0.0,0.0,0.0,0.0,0.0,0.0,0.0,0.0,0.0,0.0,0.0,-6.9798,-6.9798,-6.9798,-6.9798,-6.9798,-6.9798,-6.9798,-6.9798,-6.9798,-6.9798,-6.9798,-6.9798,-6.9798,-6.9798,-6.9703,-6.9478,-6.9334,-6.9285,-6.9042,-6.8748,-6.8501,-6.8301,-6.8201,-6.8201,-6.8201,-6.8201,-6.8201,-6.8201,-6.8201,-6.8201,-6.8201,-6.8201,-6.8201,-6.8201,-6.8201,-6.8201,-6.8101,-6.7949,-6.7797,-6.7644,-6.7439,-6.7317,-6.7213,-6.7057,-6.6953,-6.7161,-6.7057,-6.7005,-6.7542,-6.7695,-6.7746,-6.8101,-6.8201,-6.8201,-6.8201,-6.8201,-6.8201,-6.8201,-6.8351,-6.855,-6.8748,-6.8847,-6.8896,-6.8896,-6.8945,-6.8994,-6.8994,-6.9188,-6.9285,-6.9285,-6.9526,-6.9703,-6.9703,-6.9751,-6.9798,-6.9798,-6.9798,-6.9703,-6.943,-6.914,-6.8896,-6.86,-6.8351,-6.8201,-6.8201,-6.8201,-6.8201,-6.8201,-6.8201,-6.8201,-6.8201,-6.8201,-6.8201,0.0,0.0,0.0,0.0,0.0,0.0,0.0,0.0,0.0,0.0,0.0,0.0,0.0,0.0,0.0,0.0,0.0,0.0,0.0,-6.9798,-6.9798,-6.9798,-6.9798,-6.9798,-6.9798,-6.9798,-6.9798,-6.9798,-6.9798,-6.9798,-6.9798,-6.9798,-6.9703,-6.943,-6.9382,-6.9285,-6.8994,-6.8748,-6.8501,-6.8201,-6.8201,-6.8201,-6.8201,-6.8201,-6.8201,-6.8201,-6.8201,-6.8201,-6.8201,-6.8201,-6.8201,-6.8201,-6.8201,-6.8201,-6.8151,-6.7899,-6.7797,-6.7746,-6.7213,-6.7057,-6.7005,-6.6691,-6.667,-6.6586,-6.667,-6.667,-6.6744,-6.7265,-6.7388,-6.7542,-6.805,-6.8201,-6.8201,-6.8201,-6.8201,-6.8201,-6.8201,-6.8201,-6.8251,-6.8251,-6.8451,-6.86,-6.86,-6.8847,-6.8994,-6.8994,-6.8994,-6.8994,-6.8994,-6.9237,-6.943,-6.943,-6.9655,-6.9798,-6.9798,-6.9798,-6.9703,-6.943,-6.914,-6.8896,-6.86,-6.8351,-6.8201,-6.8201,-6.8201,-6.8201,-6.8201,-6.8201,-6.8201,-6.8201,-6.8201,-6.8201,0.0,0.0,0.0,0.0,0.0,0.0,0.0,0.0,0.0,0.0,0.0,0.0,0.0,0.0,0.0,0.0,0.0,0.0,0.0,0.0,-6.8407,-6.8407,-6.8407,-6.8407,-6.8407,-6.8407,-6.8407,-6.8407,-6.8407,-6.8313,-6.822,-6.8173,-6.8078,-6.7794,-6.765,-6.7606,-6.785,-6.8174,-6.8301,-6.8201,-6.8201,-6.8201,-6.8201,-6.8201,-6.8201,-6.8201,-6.8201,-6.8201,-6.8201,-6.8201,-6.8201,-6.8201,-6.8201,-6.8201,-6.8151,-6.7899,-6.7695,-6.7491,-6.7109,-6.6901,-6.6691,-6.667,-6.6617,-6.6617,-6.6617,-6.6691,-6.6953,-6.7317,-6.7491,-6.7746,-6.8101,-6.8201,-6.8201,-6.8201,-6.8201,-6.8201,-6.8201,-6.8201,-6.8201,-6.8201,-6.8301,-6.8351,-6.8351,-6.8401,-6.8501,-6.8501,-6.8649,-6.8748,-6.8748,-6.8994,-6.9188,-6.9382,-6.9511,-6.9607,-6.9798,-6.9798,-6.9703,-6.943,-6.914,-6.8896,-6.86,-6.8351,-6.8201,-6.8201,-6.8201,-6.8201,-6.8201,-6.8201,-6.8201,-6.8201,-6.8201,-6.8201,0.0,0.0,0.0,0.0,0.0,0.0,0.0,0.0,0.0,0.0,0.0,0.0,0.0,0.0,0.0,0.0,0.0,0.0,0.0,0.0,-6.7566,-6.7566,-6.7566,-6.7566,-6.7566,-6.7519,-6.7506,-6.7506,-6.7427,-6.732,-6.718,-6.718,-6.7039,-6.6769,-6.6483,-6.655,-6.6809,-6.7521,-6.7845,-6.7877,-6.8072,-6.8201,-6.8201,-6.8201,-6.8201,-6.8201,-6.8201,-6.8201,-6.8201,-6.8201,-6.8201,-6.8201,-6.8201,-6.8151,-6.805,-6.7746,-6.7523,-6.7213,-6.6953,-6.6744,-6.6617,-6.6617,-6.6617,-6.6617,-6.6617,-6.6796,-6.7057,-6.7285,-6.7593,-6.7848,-6.8151,-6.8201,-6.8201,-6.8201,-6.8201,-6.8201,-6.8201,-6.8201,-6.8201,-6.8201,-6.8201,-6.8201,-6.8201,-6.8201,-6.8201,-6.8201,-6.8351,-6.8451,-6.8451,-6.8797,-6.9042,-6.9237,-6.943,-6.9607,-6.9798,-6.9798,-6.9751,-6.9559,-6.9188,-6.8896,-6.8748,-6.8401,-6.8201,-6.8201,-6.8201,-6.8201,-6.8201,-6.8201,-6.8201,-6.8201,-6.8201,-6.8201,0.0,0.0,0.0,0.0,0.0,0.0,0.0,0.0,0.0,0.0,0.0,0.0,0.0,0.0,0.0,0.0,0.0,0.0,0.0,0.0,-6.7533,-6.7533,-6.7533,-6.7499,-6.7533,-6.7347,-6.7254,-6.7208,-6.6973,-6.6799,-6.6799,-6.6831,-6.6737,-6.6418,-6.6209,-6.6064,-6.6064,-6.6776,-6.7165,-6.7197,-6.7845,-6.8169,-6.8201,-6.8201,-6.8201,-6.8201,-6.8201,-6.8201,-6.8201,-6.8201,-6.8201,-6.8201,-6.8201,-6.8,-6.7746,-6.7491,-6.7213,-6.6953,-6.6691,-6.6617,-6.6617,-6.6617,-6.6617,-6.6617,-6.6617,-6.6796,-6.7057,-6.7317,-6.7593,-6.7848,-6.8151,-6.8201,-6.8201,-6.8201,-6.8201,-6.8201,-6.8201,-6.8201,-6.8201,-6.8201,-6.8201,-6.8201,-6.8201,-6.8201,-6.8201,-6.8201,-6.8201,-6.8201,-6.8201,-6.8649,-6.8994,-6.8994,-6.9478,-6.9798,-6.9798,-6.9798,-6.9798,-6.9798,-6.9285,-6.8994,-6.8994,-6.8501,-6.8201,-6.8201,-6.8201,-6.8201,-6.8201,-6.8201,-6.8201,-6.8201,-6.8201,-6.8201,-5.5721,0.0,0.0,0.0,0.0,0.0,0.0,0.0,0.0,0.0,0.0,0.0,0.0,0.0,0.0,0.0,0.0,0.0,0.0,0.0,-6.6022,-6.6022,-6.6022,-6.5932,-6.5783,-6.5738,-6.5646,0.0,-6.5338,-6.5199,-6.5013,-6.4858,-6.4796,-6.4701,-6.506,-6.5319,-6.5319,-6.6031,-6.6679,-6.7197,-6.7392,-6.7715,-6.8201,-6.8,-6.7899,-6.7899,-6.7695,-6.7593,-6.7644,-6.805,-6.8101,-6.7899,-6.7899,-6.7746,-6.7491,-6.7213,-6.7057,-6.6953,-6.6691,-6.6617,-6.6617,-6.6617,-6.6617,-6.6617,-6.6617,-6.6901,-6.7285,-6.7388,-6.7746,-6.8101,-6.8201,-6.8201,-6.8201,-6.8201,-6.8201,-6.8201,-6.8201,-6.8201,-6.8201,-6.8201,-6.8201,-6.8201,-6.8201,-6.8201,-6.8201,-6.8201,-6.8201,-6.8201,-6.8201,-6.8501,-6.8797,-6.8994,-6.9285,-6.9607,-6.9798,-6.9798,-6.9798,-6.9798,-6.9285,-6.8994,-6.8994,-6.8501,-6.8201,-6.8201,-6.8201,-6.8201,-6.8201,-6.8201,-6.8201,-6.8201,-6.8201,-6.8201,-5.6568,-5.6392,-5.6249,-5.6945,0.0,0.0,-5.9297,-6.0589,0.0,0.0,0.0,0.0,0.0,0.0,0.0,0.0,0.0,0.0,0.0,0.0,-6.4531,-6.4531,-6.4443,-6.431,-6.4177,-6.3998,-6.3817,-6.3649,-6.3852,-6.4007,-6.4146,-6.4038,-6.4024,-6.4024,-6.4412,-6.4606,-6.4606,-6.5319,-6.5821,-6.6144,-6.6758,-6.7193,-6.7479,-6.7567,-6.7644,-6.7593,-6.7439,-6.7388,-6.7388,-6.7746,-6.7746,-6.7644,-6.7644,-6.7439,-6.7213,-6.7057,-6.6901,-6.6796,-6.6638,-6.6617,-6.6617,-6.6617,-6.6617,-6.6617,-6.6617,-6.6953,-6.7388,-6.7388,-6.7797,-6.8201,-6.8201,-6.8201,-6.8201,-6.8201,-6.8201,-6.8201,-6.8201,-6.8201,-6.8201,-6.8201,-6.8201,-6.8201,-6.8201,-6.8201,-6.8201,-6.8201,-6.8201,-6.8251,-6.8351,-6.86,-6.8847,-6.914,-6.9382,-6.9655,-6.9798,-6.9798,-6.9751,-6.9655,-6.9237,-6.8945,-6.8847,-6.8451,-6.8201,-6.8201,-6.8201,-6.8201,-6.8201,-6.8201,-6.8201,-6.8201,-6.8201,-6.8201,-5.7906,-5.7442,-5.7077,-5.774,-5.8469,0.0,-5.986,-6.0589,-6.1285,0.0,0.0,0.0,0.0,0.0,0.0,0.0,0.0,0.0,0.0,0.0,-6.3272,-6.3272,-6.3056,-6.2881,-6.2837,-6.2451,-6.2183,-6.2183,-6.2542,-6.3052,-6.3732,-6.3829,-6.3894,-6.3894,-6.3959,-6.4024,-6.4024,-6.4559,-6.4819,-6.4723,-6.6027,-6.6552,-6.6415,-6.7068,-6.7368,-6.7336,-6.7285,-6.7285,-6.7285,-6.7285,-6.7317,-6.7368,-6.7368,-6.7213,-6.6953,-6.6953,-6.6796,-6.6617,-6.6617,-6.6617,-6.6617,-6.6617,-6.6617,-6.6617,-6.6617,-6.6953,-6.7368,-6.7471,-6.7797,-6.8201,-6.8201,-6.8201,-6.8201,-6.8201,-6.8201,-6.8201,-6.8201,-6.8201,-6.8201,-6.8201,-6.8201,-6.8201,-6.8201,-6.8201,-6.8201,-6.8201,-6.8251,-6.8351,-6.855,-6.8847,-6.914,-6.9382,-6.9655,-6.9798,-6.9798,-6.9798,-6.9703,-6.943,-6.914,-6.8896,-6.86,-6.8351,-6.8201,-6.8201,-6.8201,-6.8201,-6.8201,-6.8201,-6.8201,-6.8201,-6.8201,-6.8201,-5.8668,-5.8568,-5.8502,-5.8634,-5.9231,0.0,-5.996,-6.0589,-6.1152,0.0,0.0,0.0,0.0,0.0,0.0,0.0,0.0,0.0,0.0,0.0,0.0,-6.3012,-6.2925,-6.276,-6.2362,-6.224,-6.2105,-6.188,-6.1997,-6.2081,-6.2242,-6.2793,-6.3117,-6.3117,-6.37,-6.4024,-6.4024,-6.3931,-6.4143,-6.4723,-6.5314,-6.587,-6.6447,-6.6894,-6.7109,-6.7057,-6.6849,-6.6744,-6.6744,-6.6744,-6.6901,-6.7109,-6.7109,-6.6901,-6.6638,-6.6638,-6.6638,-6.6617,-6.6617,-6.6617,-6.6617,-6.6617,-6.6617,-6.6617,-6.6617,-6.6796,-6.7161,-6.7593,-6.7949,-6.8201,-6.8201,-6.8201,-6.8201,-6.8201,-6.8201,-6.8201,-6.8201,-6.8201,-6.8201,-6.8201,-6.8201,-6.8201,-6.8201,-6.8201,-6.8201,-6.8201,-6.8401,-6.855,-6.86,-6.8994,-6.9334,-6.9382,-6.9655,-6.9798,-6.9798,-6.9798,-6.9703,-6.943,-6.914,-6.8896,-6.86,-6.8351,-6.8201,-6.8201,-6.8201,-6.8201,-6.8201,-6.8201,-6.8201,-6.8201,-6.8201,-6.8201,-5.9993,-5.9463,-5.8999,-5.9363,-5.9728,0.0,0.0,-6.0854,-6.0978,0.0,0.0,0.0,0.0,0.0,0.0,0.0,0.0,0.0,0.0,0.0,0.0,-6.0623,-6.0496,-6.0292,-6.0076,-6.0272,-6.0659,-6.1239,-6.1303,-6.1465,-6.1789,-6.2145,-6.2502,-6.289,-6.3246,-6.3588,-6.3802,-6.366,-6.3677,-6.374,-6.4296,-6.4898,-6.5447,-6.6024,-6.6479,-6.6796,-6.667,-6.6617,-6.6617,-6.6617,-6.6638,-6.6796,-6.6796,-6.6691,-6.6617,-6.6617,-6.6617,-6.6617,-6.6617,-6.6617,-6.6617,-6.6617,-6.6617,-6.6617,-6.6617,-6.6796,-6.7109,-6.7644,-6.7899,-6.805,-6.8151,-6.8201,-6.8201,-6.8201,-6.8201,-6.8201,-6.8201,-6.8201,-6.8201,-6.8201,-6.8201,-6.8201,-6.8201,-6.8201,-6.8251,-6.8401,-6.8501,-6.8699,-6.8945,-6.9237,-6.943,-6.9607,-6.9751,-6.9798,-6.9798,-6.9798,-6.9655,-6.9237,-6.9091,-6.8797,-6.8401,-6.8251,-6.8201,-6.8201,-6.8201,-6.8201,-6.8201,-6.8201,-6.8201,-6.8201,-6.8201,-6.8201,-6.1516,-6.0556,-5.9661,-6.0258,-6.0324,-6.0357,0.0,0.0,0.0,0.0,0.0,0.0,0.0,0.0,0.0,0.0,0.0,0.0,0.0,0.0,0.0,-5.8174,-5.8041,-5.7883,-5.7841,-5.8183,-5.8907,-6.0073,-6.0299,-6.0623,-6.1174,-6.1465,-6.1886,-6.2423,-6.2682,-6.2995,-6.3339,-6.342,-6.3244,-6.2808,-6.349,-6.3975,-6.4342,-6.5195,-6.589,-6.6396,-6.6554,-6.6617,-6.6617,-6.6617,-6.6617,-6.6617,-6.6617,-6.6617,-6.6617,-6.6617,-6.6617,-6.6617,-6.6617,-6.6617,-6.6617,-6.6617,-6.6617,-6.6617,-6.6617,-6.6796,-6.7109,-6.7491,-6.7695,-6.7848,-6.805,-6.8151,-6.8201,-6.8201,-6.8201,-6.8201,-6.8201,-6.8201,-6.8201,-6.8201,-6.8201,-6.8201,-6.8201,-6.8251,-6.8351,-6.855,-6.8699,-6.8896,-6.9334,-6.943,-6.9559,-6.9798,-6.9798,-6.9798,-6.9798,-6.9798,-6.9574,-6.9042,-6.8994,-6.8748,-6.8201,-6.8201,-6.8201,-6.8201,-6.8201,-6.8201,-6.8201,-6.8201,-6.8201,-6.8201,-6.8201,-6.8201,-6.3083,-6.2453,-6.1857,-6.1956,-6.145,-6.102,-6.1086,0.0,-6.0804,-5.9869,0.0,0.0,0.0,0.0,0.0,0.0,0.0,0.0,0.0,0.0,0.0,-5.7729,-5.7925,-5.78,-5.7664,-5.7686,-5.7773,-5.7978,-5.8518,-5.8863,-5.8961,-6.0202,-6.0857,-6.0664,-6.192,-6.2488,-6.2348,-6.2683,-6.2856,-6.2808,-6.3291,-6.3571,-6.3647,-6.4974,-6.5658,-6.5732,-6.6333,-6.6617,-6.6617,-6.6617,-6.6617,-6.6617,-6.6617,-6.6617,-6.6617,-6.6617,-6.6617,-6.6617,-6.6617,-6.6617,-6.6617,-6.6617,-6.6617,-6.6617,-6.6617,-6.6796,-6.7005,-6.7057,-6.7439,-6.7797,-6.7848,-6.8,-6.8201,-6.8201,-6.8201,-6.8201,-6.8201,-6.8201,-6.8201,-6.8201,-6.8201,-6.8201,-6.8201,-6.8401,-6.855,-6.86,-6.8994,-6.9334,-6.9382,-6.9607,-6.9798,-6.9798,-6.9798,-6.9798,-6.9798,-6.9798,-6.9574,-6.9042,-6.8994,-6.8748,-6.8201,-6.8201,-6.8201,-6.8201,-6.8201,-6.8201,-6.8201,-6.8201,-6.8201,-6.8201,-6.8201,-6.8201,-6.4034,-6.3415,-6.2752,-6.2321,-6.1989,-6.1616,-6.1218,-6.1119,-6.0705,-5.9218,0.0,0.0,0.0,0.0,0.0,0.0,-5.5539,0.0,0.0,0.0,0.0,0.0,0.0,0.0,-5.6251,-5.6316,-5.6631,-5.7312,-5.7625,-5.7743,-5.7613,-5.8578,-5.9274,-5.9601,-6.0596,-6.1387,-6.1934,-6.2124,-6.2329,-6.2562,-6.278,-6.3078,-6.352,-6.45,-6.5195,-6.5658,-6.6301,-6.6617,-6.6617,-6.6617,-6.6617,-6.6617,-6.6617,-6.6617,-6.6617,-6.6617,-6.6617,-6.6617,-6.6617,-6.6617,-6.6617,-6.6617,-6.6617,-6.6617,-6.6617,-6.6638,-6.6796,-6.6953,-6.7161,-6.742,-6.7695,-6.7899,-6.8,-6.8151,-6.8201,-6.8201,-6.8201,-6.8201,-6.8201,-6.8201,-6.8201,-6.8251,-6.8401,-6.855,-6.8699,-6.8994,-6.9237,-6.9463,-6.9607,-6.9751,-6.9798,-6.9798,-6.9798,-6.9798,-6.9798,-6.9798,-6.9655,-6.9237,-6.8945,-6.8649,-6.8451,-6.8301,-6.8201,-6.8201,-6.8201,-6.8201,-6.8201,-6.8201,-6.8201,-6.8201,-6.8201,-6.8201,-6.516,-6.4432,-6.367,-6.2984,-6.252,-6.2089,-6.1516,-6.1251,-6.063,-5.893,-5.8453,0.0,0.0,0.0,-5.5409,-5.5409,0.0,-5.4341,0.0,0.0,0.0,0.0,0.0,0.0,0.0,-5.4665,-5.5099,-5.6156,-5.6413,-5.6552,-5.6573,-5.7245,-5.7948,-5.8595,-5.9298,-6.0163,-6.1122,-6.1503,-6.1851,-6.2161,-6.2302,-6.2699,-6.3204,-6.39,-6.4626,-6.5322,-6.6017,-6.6428,-6.6617,-6.6617,-6.6617,-6.6617,-6.6617,-6.6617,-6.6617,-6.6617,-6.6617,-6.6617,-6.6617,-6.6617,-6.6617,-6.6617,-6.6617,-6.6617,-6.6617,-6.6617,-6.667,-6.6849,-6.6953,-6.7109,-6.7542,-6.7746,-6.7848,-6.8151,-6.8201,-6.8201,-6.8201,-6.8201,-6.8201,-6.8201,-6.8201,-6.8301,-6.855,-6.8649,-6.8847,-6.9334,-6.943,-6.9607,-6.9798,-6.9798,-6.9798,-6.9798,-6.9798,-6.9798,-6.9798,-6.9798,-6.9703,-6.943,-6.8945,-6.8699,-6.8699,-6.8501,-6.8401,-6.8401,-6.8351,-6.8301,-6.8301,-6.8251,-6.8201,-6.8201,-6.8201,-6.8201,-6.6651,-6.5922,-6.5194,-6.4498,-6.3282,-6.2221,-6.2188,-6.1616,-6.0762,-5.9512,-5.874,-5.7895,-5.6691,-5.5895,-5.5409,-5.5409,-5.4859,0.0,0.0,0.0,0.0,0.0,0.0,0.0,0.0,-5.2813,-5.3061,-5.3757,-5.447,-5.5175,-5.5805,-5.6509,-5.7157,-5.7624,-5.8292,-5.8899,-5.938,-6.0708,-6.1403,-6.1435,-6.2098,-6.2396,-6.2428,-6.3204,-6.39,-6.4595,-6.529,-6.5985,-6.6617,-6.6617,-6.6617,-6.6617,-6.6617,-6.6617,-6.6617,-6.6617,-6.6617,-6.6617,-6.6617,-6.6617,-6.6617,-6.6617,-6.6617,-6.6617,-6.6617,-6.6617,-6.6617,-6.6617,-6.6796,-6.7057,-6.7368,-6.7593,-6.7848,-6.8151,-6.8201,-6.8201,-6.8201,-6.8201,-6.8201,-6.8201,-6.8201,-6.8301,-6.855,-6.8797,-6.9091,-6.9334,-6.9655,-6.9798,-6.9798,-6.9798,-6.9798,-6.9798,-6.9798,-6.9798,-6.9798,-6.9798,-6.9703,-6.943,-6.914,-6.8994,-6.8994,-6.8994,-6.8994,-6.8994,-6.8699,-6.86,-6.86,-6.8351,-6.8201,-6.8201,-6.8201,-6.8201,-6.7446,-6.6717,-6.5989,-6.526,-6.4332,-6.3415,-6.242,-6.2022,-6.1399,-5.9885,-5.9258,-5.8493,-5.7028,-5.644,-5.596,-5.5507,-5.4438,-5.3556,0.0,-5.1913,0.0,0.0,0.0,0.0,0.0,0.0,-5.2213,-5.2826,-5.3041,-5.3446,-5.3967,-5.4677,-5.5554,-5.6639,-5.7336,-5.8208,-5.9286,-6.0202,-6.0929,-6.1403,-6.2098,-6.2396,-6.2396,-6.3173,-6.3615,-6.39,-6.5069,-6.5753,-6.5954,-6.6428,-6.6617,-6.6617,-6.6617,-6.6617,-6.6617,-6.6617,-6.6617,-6.6617,-6.6617,-6.6617,-6.6617,-6.6617,-6.6617,-6.6617,-6.6617,-6.6617,-6.6617,-6.6617,-6.667,-6.6796,-6.7057,-6.7336,-6.7593,-6.7848,-6.805,-6.8201,-6.8201,-6.8201,-6.8201,-6.8201,-6.8201,-6.8301,-6.855,-6.8699,-6.8896,-6.9334,-6.9655,-6.9798,-6.9798,-6.9798,-6.9798,-6.9798,-6.9798,-6.9798,-6.9798,-6.9798,-6.9751,-6.9703,-6.9382,-6.9237,-6.9237,-6.9091,-6.8994,-6.8994,-6.8896,-6.8797,-6.86,-6.8501,-6.8351,-6.8201,-6.8201,-6.8201,-6.8274,-6.7645,-6.7049,-6.6055,-6.5293,-6.4432,-6.3206,-6.2742,-6.217,-6.0727,-6.0055,-5.9287,-5.7901,-5.7033,-5.6349,-5.5863,-5.4405,-5.3025,0.0,-5.1172,-5.0434,-5.0168,-5.0356,0.0,0.0,-5.0993,-5.124,-5.1851,-5.1914,-5.2245,-5.306,-5.3502,-5.4387,-5.5778,-5.6473,-5.739,-5.8559,-5.9728,-6.0518,-6.1024,-6.1972,-6.2396,-6.2396,-6.2888,-6.3236,-6.3552,-6.469,-6.5353,-6.569,-6.6333,-6.6617,-6.6617,-6.6617,-6.6617,-6.6617,-6.6617,-6.6617,-6.6617,-6.6617,-6.6617,-6.6617,-6.6617,-6.6617,-6.6617,-6.6617,-6.6617,-6.6617,-6.6617,-6.6617,-6.667,-6.6953,-6.7213,-6.7439,-6.7746,-6.8,-6.8201,-6.8201,-6.8201,-6.8201,-6.8201,-6.8201,-6.8251,-6.8451,-6.855,-6.8797,-6.9334,-6.9559,-6.9703,-6.9798,-6.9798,-6.9798,-6.9798,-6.9798,-6.9798,-6.9798,-6.9798,-6.9798,-6.9798,-6.9655,-6.9559,-6.9559,-6.9382,-6.9285,-6.9285,-6.9188,-6.8994,-6.8748,-6.8649,-6.8451,-6.8201,-6.8201,-6.8201]},{"header":{"parameterUnit":"m.s-1","parameterCategory":1,"la1":30.6,"la2":29.2853,"lo1":-89.7004,"lo2":-87.6739,"dy":0.0162,"dx":0.0183,"nx":112,"ny":82,"refTime":"2023-06-14T12:00:00:Z","depth":0,"parameterNumber":3,"parameterNumberName":"V-component_of_WINDS"},"data":[0.0,0.0,0.0,0.0,0.0,0.0,0.0,0.0,0.0,0.0,0.0,0.0,0.0,0.0,0.0,0.0,0.0,0.0,0.0,0.0,0.0,0.0,0.0,0.0,0.0,0.0,0.0,0.0,0.0,0.0,0.0,0.0,0.0,0.0,0.0,0.0,0.0,0.0,0.0,0.0,0.0,0.0,0.0,0.0,0.0,0.0,0.0,0.0,0.0,0.0,0.0,0.0,0.0,0.0,0.0,0.0,0.0,0.0,0.0,0.0,0.0,0.0,0.0,0.0,0.0,0.0,0.0,0.0,0.0,0.0,0.0,0.0,0.0,0.0,0.0,0.0,0.0,0.0,0.0,0.0,0.0,0.0,0.0,0.0,0.0,0.0,0.0,0.0,0.0,0.0,-1.3568,-1.3307,-1.2587,-1.2099,-1.2099,-1.2166,-1.2307,-1.2569,0.0,0.0,0.0,0.0,0.0,0.0,0.0,0.0,0.0,0.0,0.0,0.0,0.0,0.0,0.0,0.0,0.0,0.0,0.0,0.0,0.0,0.0,0.0,0.0,0.0,0.0,0.0,0.0,0.0,0.0,0.0,0.0,0.0,0.0,0.0,0.0,0.0,0.0,0.0,0.0,0.0,0.0,0.0,0.0,0.0,0.0,0.0,0.0,0.0,0.0,0.0,0.0,0.0,0.0,0.0,0.0,0.0,0.0,0.0,0.0,0.0,0.0,0.0,0.0,0.0,0.0,0.0,0.0,0.0,0.0,0.0,0.0,0.0,0.0,0.0,0.0,0.0,0.0,0.0,0.0,0.0,0.0,0.0,0.0,0.0,0.0,0.0,0.0,0.0,0.0,0.0,0.0,0.0,0.0,0.0,0.0,0.0,0.0,0.0,0.0,0.0,0.0,0.0,0.0,-1.4079,-1.3313,-1.2917,-1.2665,-1.2665,-1.2864,-1.3153,-1.3562,0.0,0.0,0.0,0.0,0.0,0.0,0.0,0.0,0.0,0.0,0.0,0.0,0.0,0.0,0.0,0.0,0.0,0.0,0.0,0.0,0.0,0.0,0.0,0.0,0.0,0.0,0.0,0.0,0.0,0.0,0.0,0.0,0.0,0.0,0.0,0.0,0.0,0.0,0.0,0.0,0.0,0.0,0.0,0.0,0.0,0.0,0.0,0.0,0.0,0.0,0.0,0.0,0.0,0.0,0.0,0.0,0.0,0.0,0.0,0.0,0.0,0.0,0.0,0.0,0.0,0.0,0.0,0.0,0.0,0.0,0.0,0.0,0.0,0.0,0.0,0.0,0.0,0.0,0.0,0.0,0.0,0.0,0.0,0.0,0.0,0.0,0.0,0.0,0.0,0.0,0.0,0.0,0.0,0.0,0.0,0.0,0.0,0.0,0.0,0.0,0.0,0.0,0.0,-1.5188,-1.4742,-1.3949,-1.3662,-1.3525,-1.3525,-1.3697,-1.4026,-1.4483,-1.4217,0.0,0.0,0.0,0.0,0.0,0.0,0.0,0.0,0.0,0.0,0.0,0.0,0.0,0.0,0.0,0.0,0.0,0.0,0.0,0.0,0.0,0.0,0.0,0.0,0.0,0.0,0.0,0.0,0.0,0.0,0.0,0.0,0.0,0.0,0.0,0.0,0.0,0.0,0.0,0.0,0.0,0.0,0.0,0.0,0.0,0.0,0.0,0.0,0.0,0.0,0.0,0.0,0.0,0.0,0.0,0.0,0.0,0.0,0.0,0.0,0.0,0.0,0.0,0.0,0.0,0.0,0.0,0.0,0.0,0.0,0.0,0.0,0.0,0.0,0.0,0.0,0.0,0.0,0.0,0.0,0.0,0.0,0.0,0.0,0.0,0.0,0.0,0.0,0.0,0.0,0.0,0.0,0.0,0.0,0.0,0.0,0.0,0.0,0.0,0.0,0.0,0.0,-1.5805,-1.5387,-1.468,-1.4463,-1.4326,-1.4456,-1.461,-1.4955,-1.5544,-1.5716,0.0,0.0,0.0,0.0,0.0,0.0,0.0,0.0,0.0,0.0,0.0,0.0,0.0,0.0,0.0,0.0,0.0,0.0,0.0,0.0,0.0,0.0,0.0,0.0,0.0,0.0,0.0,0.0,0.0,0.0,0.0,0.0,0.0,0.0,0.0,0.0,0.0,0.0,0.0,0.0,0.0,0.0,0.0,0.0,0.0,0.0,0.0,0.0,0.0,0.0,0.0,0.0,0.0,0.0,0.0,0.0,0.0,0.0,0.0,0.0,0.0,0.0,0.0,0.0,0.0,0.0,0.0,0.0,0.0,0.0,0.0,0.0,0.0,0.0,0.0,0.0,0.0,0.0,0.0,0.0,0.0,0.0,0.0,0.0,0.0,0.0,0.0,0.0,0.0,0.0,0.0,0.0,0.0,0.0,0.0,0.0,0.0,0.0,0.0,0.0,0.0,0.0,-1.6191,-1.5867,-1.541,-1.511,-1.5082,-1.5498,-1.5649,-1.6179,-1.7022,-1.7179,0.0,0.0,0.0,0.0,0.0,0.0,0.0,0.0,0.0,0.0,0.0,0.0,0.0,0.0,0.0,0.0,0.0,0.0,0.0,0.0,0.0,0.0,0.0,0.0,0.0,0.0,0.0,0.0,0.0,0.0,0.0,0.0,0.0,0.0,0.0,0.0,0.0,0.0,0.0,0.0,0.0,0.0,0.0,0.0,0.0,0.0,0.0,0.0,0.0,0.0,0.0,0.0,0.0,0.0,0.0,0.0,0.0,0.0,0.0,0.0,0.0,0.0,0.0,0.0,0.0,0.0,0.0,0.0,0.0,0.0,0.0,0.0,0.0,0.0,0.0,0.0,0.0,0.0,0.0,0.0,0.0,0.0,0.0,0.0,0.0,0.0,0.0,0.0,0.0,0.0,0.0,0.0,0.0,0.0,0.0,0.0,0.0,0.0,0.0,0.0,0.0,0.0,-1.6782,-1.6456,-1.5814,-1.5901,-1.6031,-1.5885,-1.6359,-1.6926,-1.7644,0.0,0.0,0.0,0.0,0.0,0.0,0.0,0.0,0.0,0.0,0.0,0.0,0.0,0.0,0.0,0.0,0.0,0.0,0.0,0.0,0.0,0.0,0.0,0.0,0.0,0.0,0.0,0.0,0.0,0.0,0.0,0.0,0.0,0.0,0.0,0.0,0.0,0.0,0.0,0.0,0.0,0.0,0.0,0.0,0.0,0.0,0.0,0.0,0.0,0.0,0.0,0.0,0.0,0.0,0.0,0.0,0.0,0.0,0.0,0.0,0.0,0.0,0.0,0.0,0.0,0.0,0.0,0.0,0.0,0.0,0.0,0.0,0.0,0.0,0.0,0.0,0.0,0.0,0.0,0.0,0.0,0.0,0.0,0.0,0.0,0.0,0.0,0.0,0.0,0.0,0.0,0.0,0.0,0.0,0.0,0.0,0.0,0.0,0.0,0.0,0.0,0.0,-1.7683,-1.7584,-1.7293,-1.6747,-1.6868,-1.6985,-1.6907,-1.7318,-1.7851,-1.848,0.0,0.0,0.0,0.0,0.0,0.0,0.0,0.0,0.0,0.0,0.0,0.0,0.0,0.0,0.0,0.0,0.0,0.0,0.0,0.0,0.0,0.0,0.0,0.0,0.0,0.0,0.0,0.0,0.0,0.0,0.0,0.0,0.0,0.0,0.0,0.0,0.0,0.0,0.0,0.0,0.0,0.0,0.0,0.0,0.0,0.0,0.0,0.0,0.0,0.0,0.0,0.0,0.0,0.0,0.0,0.0,0.0,0.0,0.0,0.0,0.0,0.0,0.0,0.0,0.0,0.0,0.0,0.0,0.0,0.0,0.0,0.0,0.0,0.0,0.0,0.0,0.0,0.0,0.0,0.0,0.0,0.0,0.0,0.0,0.0,0.0,0.0,0.0,0.0,0.0,0.0,0.0,0.0,0.0,0.0,0.0,0.0,0.0,0.0,0.0,0.0,0.0,-1.9089,-1.8645,-1.8317,-1.8358,-1.8009,-1.795,-1.854,-1.8774,-1.9128,0.0,0.0,0.0,0.0,0.0,0.0,0.0,0.0,0.0,0.0,0.0,0.0,0.0,0.0,0.0,0.0,0.0,0.0,0.0,0.0,0.0,0.0,0.0,0.0,0.0,0.0,0.0,0.0,0.0,0.0,0.0,0.0,0.0,0.0,0.0,0.0,0.0,0.0,0.0,0.0,0.0,0.0,0.0,0.0,0.0,0.0,0.0,0.0,0.0,0.0,0.0,0.0,0.0,0.0,0.0,0.0,0.0,0.0,0.0,0.0,0.0,0.0,0.0,0.0,0.0,0.0,0.0,0.0,0.0,0.0,0.0,0.0,0.0,0.0,0.0,0.0,0.0,0.0,0.0,0.0,0.0,0.0,0.0,0.0,0.0,0.0,0.0,0.0,0.0,0.0,0.0,0.0,0.0,0.0,0.0,0.0,0.0,0.0,0.0,0.0,0.0,0.0,0.0,-1.9114,-1.9261,-1.9115,-1.8449,-1.8799,-1.8996,-1.8623,-1.9211,-1.9678,-1.9898,0.0,0.0,0.0,0.0,0.0,0.0,0.0,0.0,0.0,0.0,0.0,0.0,0.0,0.0,0.0,0.0,0.0,0.0,0.0,0.0,0.0,0.0,0.0,0.0,0.0,0.0,0.0,0.0,0.0,0.0,0.0,0.0,0.0,0.0,0.0,0.0,0.0,0.0,0.0,0.0,0.0,0.0,0.0,0.0,0.0,0.0,0.0,0.0,0.0,0.0,0.0,0.0,0.0,0.0,0.0,0.0,0.0,0.0,0.0,0.0,0.0,0.0,0.0,0.0,0.0,0.0,0.0,0.0,0.0,0.0,0.0,0.0,0.0,0.0,0.0,0.0,0.0,0.0,0.0,0.0,0.0,0.0,0.0,0.0,0.0,0.0,0.0,0.0,0.0,0.0,0.0,0.0,0.0,0.0,0.0,0.0,0.0,0.0,0.0,0.0,0.0,0.0,-2.0463,-2.0507,-2.0404,-1.9934,-2.0129,-2.0166,-1.9907,-2.036,-2.0587,-2.058,0.0,0.0,0.0,0.0,0.0,0.0,0.0,0.0,0.0,0.0,0.0,0.0,0.0,0.0,0.0,0.0,0.0,0.0,0.0,0.0,0.0,0.0,0.0,0.0,0.0,0.0,0.0,0.0,0.0,0.0,0.0,0.0,0.0,0.0,0.0,0.0,0.0,0.0,0.0,0.0,0.0,0.0,0.0,0.0,0.0,0.0,0.0,0.0,0.0,0.0,0.0,0.0,0.0,0.0,0.0,0.0,0.0,0.0,0.0,0.0,0.0,0.0,0.0,0.0,0.0,0.0,0.0,0.0,0.0,0.0,0.0,0.0,0.0,0.0,0.0,0.0,0.0,0.0,0.0,0.0,0.0,0.0,0.0,0.0,0.0,0.0,0.0,0.0,0.0,0.0,0.0,0.0,0.0,0.0,0.0,0.0,0.0,0.0,0.0,0.0,0.0,0.0,-2.2525,-2.2172,-2.1986,-2.2138,-2.1632,-2.1399,-2.1757,-2.1772,-2.1656,-2.1426,0.0,0.0,0.0,0.0,0.0,0.0,0.0,0.0,0.0,0.0,0.0,0.0,0.0,0.0,0.0,0.0,0.0,0.0,0.0,0.0,0.0,0.0,0.0,0.0,0.0,0.0,0.0,0.0,0.0,0.0,0.0,0.0,0.0,0.0,0.0,0.0,0.0,0.0,0.0,0.0,0.0,0.0,0.0,0.0,0.0,0.0,0.0,0.0,0.0,0.0,0.0,0.0,0.0,0.0,0.0,0.0,0.0,0.0,0.0,0.0,-2.3096,0.0,0.0,0.0,0.0,0.0,0.0,0.0,0.0,0.0,0.0,0.0,0.0,0.0,0.0,0.0,0.0,0.0,0.0,0.0,0.0,0.0,0.0,0.0,0.0,0.0,0.0,0.0,0.0,0.0,0.0,0.0,0.0,0.0,0.0,0.0,0.0,0.0,0.0,0.0,0.0,0.0,-2.3214,-2.3442,-2.328,-2.2273,-2.2469,-2.2461,-2.1869,-2.2086,-2.2036,-2.168,-2.1824,0.0,0.0,0.0,0.0,0.0,0.0,0.0,0.0,0.0,0.0,0.0,0.0,0.0,0.0,0.0,0.0,0.0,0.0,0.0,0.0,0.0,0.0,0.0,0.0,0.0,0.0,0.0,0.0,0.0,0.0,0.0,0.0,0.0,0.0,0.0,0.0,0.0,0.0,0.0,0.0,0.0,0.0,0.0,0.0,0.0,0.0,0.0,0.0,0.0,0.0,0.0,0.0,0.0,0.0,0.0,0.0,0.0,0.0,0.0,0.0,-2.3653,0.0,0.0,0.0,0.0,0.0,0.0,0.0,0.0,0.0,0.0,0.0,0.0,0.0,0.0,0.0,0.0,0.0,0.0,0.0,0.0,0.0,0.0,0.0,0.0,0.0,0.0,0.0,0.0,0.0,0.0,0.0,0.0,0.0,0.0,0.0,0.0,0.0,0.0,0.0,0.0,-2.4678,-2.469,-2.4589,-2.4252,-2.4118,-2.3872,-2.3373,-2.3344,-2.3122,-2.2441,-2.2361,0.0,0.0,0.0,0.0,0.0,0.0,0.0,0.0,0.0,0.0,0.0,0.0,0.0,0.0,0.0,0.0,0.0,0.0,0.0,0.0,0.0,0.0,0.0,0.0,0.0,0.0,0.0,0.0,0.0,0.0,0.0,0.0,0.0,0.0,0.0,0.0,0.0,0.0,0.0,0.0,0.0,0.0,0.0,0.0,0.0,0.0,0.0,0.0,0.0,0.0,0.0,0.0,0.0,-2.5511,-2.5993,-2.5993,-2.5993,-2.5993,-2.5978,-2.5267,-2.4831,-2.4574,-2.4372,0.0,0.0,0.0,0.0,0.0,0.0,0.0,0.0,0.0,0.0,0.0,0.0,0.0,0.0,0.0,0.0,0.0,0.0,0.0,0.0,0.0,0.0,-2.4571,-2.4713,-2.5201,-2.5305,-2.4195,0.0,0.0,0.0,0.0,0.0,0.0,0.0,0.0,0.0,0.0,0.0,-2.6217,-2.6038,-2.5972,-2.6358,-2.5923,-2.5439,-2.5113,-2.4926,-2.4393,-2.3368,-2.3111,-2.2843,0.0,0.0,0.0,0.0,0.0,0.0,0.0,0.0,0.0,0.0,0.0,0.0,0.0,0.0,0.0,0.0,0.0,0.0,0.0,0.0,0.0,0.0,0.0,0.0,0.0,0.0,0.0,0.0,0.0,0.0,0.0,0.0,-1.5495,-1.6448,0.0,0.0,0.0,0.0,0.0,0.0,0.0,0.0,0.0,0.0,0.0,0.0,0.0,-2.3715,-2.4521,-2.5596,-2.6075,-2.6092,-2.7152,-2.7582,-2.7582,-2.7582,-2.7582,-2.7564,-2.727,0.0,-2.5449,-2.5395,0.0,0.0,0.0,0.0,0.0,0.0,0.0,0.0,0.0,0.0,0.0,0.0,0.0,0.0,0.0,0.0,0.0,0.0,0.0,0.0,0.0,0.0,-2.5481,-2.6145,-2.6424,-2.6567,-2.6679,-2.6129,-2.5693,-2.5742,-2.6027,-2.6325,0.0,0.0,0.0,0.0,0.0,0.0,-2.7356,-2.7966,-2.7919,-2.6531,-2.676,-2.6685,-2.5906,-2.5798,-2.5369,-2.4418,-2.4083,-2.3691,-2.3237,-2.2795,0.0,0.0,0.0,0.0,0.0,0.0,0.0,0.0,0.0,0.0,0.0,0.0,0.0,0.0,0.0,0.0,0.0,0.0,0.0,0.0,0.0,0.0,0.0,0.0,0.0,0.0,0.0,0.0,0.0,-1.5597,-1.6954,-1.7912,-1.8481,-1.9117,0.0,0.0,0.0,0.0,0.0,0.0,0.0,0.0,0.0,-2.4748,-2.4894,-2.5326,-2.608,-2.6729,-2.7211,-2.7453,-2.8068,-2.8494,-2.8702,-2.8702,-2.8702,-2.8685,-2.8576,-2.8088,-2.7278,-2.6481,-2.6062,-2.6062,0.0,0.0,0.0,0.0,-2.627,-2.6214,-2.6214,-2.6158,-2.6081,-2.6293,0.0,0.0,0.0,0.0,0.0,0.0,0.0,-2.6482,-2.6877,-2.6982,-2.7084,-2.7384,-2.7717,-2.7947,-2.8297,-2.8104,-2.7698,-2.7084,-2.7241,-2.761,-2.7969,-2.8228,0.0,0.0,0.0,-2.8826,-2.8982,-2.8969,-2.8776,-2.8603,-2.8411,-2.792,-2.7013,-2.6931,-2.6514,-2.5382,-2.4941,-2.4606,-2.4469,-2.378,-2.3559,0.0,0.0,0.0,0.0,0.0,0.0,0.0,0.0,0.0,0.0,0.0,0.0,0.0,0.0,0.0,0.0,0.0,0.0,0.0,0.0,0.0,0.0,0.0,0.0,0.0,0.0,0.0,0.0,-1.7546,-1.8575,-1.9641,-2.0069,-2.0673,0.0,0.0,0.0,0.0,0.0,0.0,-2.4193,-2.4928,-2.576,-2.6589,-2.6693,-2.7133,-2.7808,-2.8276,-2.8656,-2.8951,-2.9202,-2.9464,-2.9722,-2.9693,-2.9744,-2.9761,-2.9847,-2.9613,-2.9044,-2.7621,-2.7001,-2.6894,-2.7188,-2.7435,-2.7586,-2.7618,-2.7635,-2.7696,-2.7756,-2.7817,-2.7869,-2.8149,-2.8237,-2.8237,-2.8008,0.0,0.0,0.0,0.0,-2.8207,-2.8229,-2.8537,-2.8728,-2.8637,-2.89,-2.9234,-2.9504,-2.9631,-2.9385,-2.8337,-2.8486,-2.8891,-2.9093,-2.9558,0.0,-2.9897,-2.9889,-3.0053,-3.0436,-3.0033,-2.9942,-3.0261,-2.9846,-2.9145,-2.8232,-2.8149,-2.7682,-2.6661,-2.6232,-2.595,-2.5753,-2.5053,-2.4777,-2.4876,0.0,0.0,0.0,0.0,0.0,0.0,0.0,0.0,0.0,0.0,0.0,0.0,0.0,0.0,0.0,0.0,0.0,0.0,0.0,0.0,0.0,0.0,0.0,0.0,0.0,0.0,0.0,0.0,0.0,-2.1984,-2.2416,0.0,0.0,0.0,0.0,-2.4969,-2.6087,-2.6686,-2.6743,-2.7488,-2.8108,-2.8577,-2.8933,-2.9324,-2.9669,-3.0431,-3.0839,-3.0857,-3.0912,-3.0885,-3.092,-3.0892,-3.0926,-3.0943,-3.1302,-3.1034,-3.0211,-2.9094,-2.841,-2.8147,-2.8147,-2.8147,-2.8196,-2.8525,-2.8656,-2.8656,-2.9097,-2.9162,-2.9162,-2.9196,-2.9261,-2.9196,-2.9196,-2.9196,0.0,0.0,-2.9783,-2.9815,-2.9752,-3.0042,-3.0219,-2.9815,-2.9997,-3.0251,-3.0267,-3.0537,-3.0473,-2.9393,-2.9829,-3.0326,-3.0326,0.0,-3.1471,-3.1439,-3.1668,-3.1734,-3.1324,-3.1727,-3.1675,-3.0416,-3.053,-3.0386,-2.9467,-2.937,-2.9077,-2.8345,-2.8208,-2.7893,-2.7018,-2.6662,-2.644,-2.6269,-2.6393,0.0,0.0,0.0,0.0,0.0,0.0,0.0,0.0,0.0,0.0,0.0,0.0,0.0,0.0,0.0,0.0,0.0,0.0,0.0,0.0,0.0,0.0,0.0,0.0,0.0,0.0,0.0,0.0,-2.2872,-2.3566,0.0,-2.5041,-2.5698,-2.6249,-2.6622,-2.7511,-2.8044,-2.8044,-2.8791,-2.9395,-2.9804,-3.0177,-3.0568,-3.0976,-3.1261,-3.1652,-3.2114,-3.1842,-3.1966,-3.2454,-3.2236,-3.209,-3.209,-3.2227,-3.1989,-3.1449,-3.1073,-3.0078,-2.8954,-2.9163,-2.9372,-2.9666,-3.0012,-3.0358,-3.0565,-3.0772,-3.0754,-3.0754,-3.0754,-3.0754,-3.0754,-3.0754,-3.0754,-3.084,-3.1234,-3.1158,-3.1128,-3.1588,-3.1629,-3.1572,-3.1896,-3.2092,-3.2255,-3.2467,-3.2614,-3.2598,-3.2206,-3.1992,-3.1903,-3.22,-3.2667,-3.3028,-3.3011,-3.283,-3.2724,-3.2762,-3.2471,-3.2313,-3.2251,-3.207,-3.1796,-3.1124,-3.0803,-3.0322,-2.9591,-2.9131,-2.8618,-2.8089,-2.7824,-2.7606,-2.7374,-2.7738,-2.8131,0.0,0.0,0.0,0.0,0.0,0.0,0.0,0.0,0.0,0.0,0.0,0.0,0.0,0.0,0.0,0.0,0.0,0.0,0.0,0.0,0.0,0.0,0.0,0.0,0.0,0.0,-2.3471,-2.4389,-2.5199,-2.5955,-2.6565,-2.7337,-2.7912,-2.8163,-2.9105,-2.9627,-2.9627,-3.0319,-3.0876,-3.1145,-3.1666,-3.2061,-3.2348,-3.2618,-3.2995,-3.3498,-3.2932,-3.3,-3.3509,-3.312,-3.2878,-3.2895,-3.3015,-3.2844,-3.2473,-3.2473,-3.1671,-3.0405,-3.0381,-3.0588,-3.0877,-3.1237,-3.1507,-3.1793,-3.1936,-3.1936,-3.1936,-3.1936,-3.1936,-3.1936,-3.1936,-3.1936,-3.2022,-3.2415,-3.2402,-3.2419,-3.2969,-3.2977,-3.2949,-3.3293,-3.3331,-3.3397,-3.3628,-3.3776,-3.3938,-3.4096,-3.3614,-3.3276,-3.3583,-3.3956,-3.4159,-3.4199,-3.3868,-3.3801,-3.4131,-3.3546,-3.3293,-3.3693,-3.3336,-3.2915,-3.2408,-3.205,-3.1549,-3.1091,-3.0437,-3.0035,-2.9636,-2.9617,-2.9423,-2.8866,-2.943,-3.0075,-3.0855,0.0,0.0,0.0,0.0,0.0,0.0,0.0,0.0,0.0,0.0,0.0,0.0,0.0,0.0,0.0,0.0,0.0,0.0,0.0,0.0,0.0,0.0,0.0,-2.3632,-2.4299,-2.5341,-2.6535,-2.7381,-2.8024,-2.8388,-2.9159,-2.9635,-2.9635,-3.0736,-3.1414,-3.1414,-3.2184,-3.2625,-3.2625,-3.3431,-3.3853,-3.3853,-3.4642,-3.5045,-3.4973,-3.427,-3.3907,-3.3943,-3.3505,-3.3306,-3.3323,-3.37,-3.3644,-3.323,-3.323,-3.3002,-3.2631,-3.1919,-3.1638,-3.1712,-3.199,-3.2137,-3.2227,-3.2685,-3.2831,-3.2831,-3.2831,-3.2831,-3.2831,-3.2831,-3.2831,-3.29,-3.3295,-3.3597,-3.3881,-3.3872,-3.4071,-3.4261,-3.3868,-3.3789,-3.3789,-3.3789,-3.4087,-3.4512,-3.4912,-3.4643,-3.439,-3.4374,-3.4783,-3.5059,-3.4941,-3.4912,0.0,-3.5312,-3.5014,-3.4744,-3.4678,-3.4287,-3.3777,-3.3337,-3.2961,-3.2762,-3.2731,-3.244,-3.2119,-3.1767,-3.2143,-3.1902,-3.0917,-3.1474,-3.2446,-3.3944,0.0,0.0,0.0,0.0,0.0,0.0,0.0,0.0,0.0,0.0,0.0,0.0,0.0,0.0,0.0,0.0,0.0,0.0,0.0,0.0,0.0,0.0,-2.5126,-2.5026,-2.5778,-2.6732,-2.7679,-2.8265,-2.881,-2.9214,-3.0241,-3.0882,-3.0882,-3.1744,-3.2258,-3.2258,-3.3028,-3.3486,-3.3486,-3.4275,-3.4697,-3.4697,-3.4917,-3.5174,-3.5449,-3.4646,-3.4439,-3.4705,-3.4284,-3.4076,-3.4094,-3.4487,-3.4581,-3.4504,-3.4504,-3.4426,-3.4186,-3.2816,-3.2534,-3.2743,-3.2818,-3.3305,-3.3881,-3.4536,-3.4776,-3.4852,-3.5158,-3.5234,-3.5234,-3.5234,-3.5234,-3.5175,-3.4992,-3.5019,-3.5098,-3.5025,-3.5117,-3.5191,-3.5383,-3.5451,-3.5451,-3.5451,-3.574,-3.5994,-3.6076,-3.6311,-3.6259,-3.5714,-3.5914,-3.6119,-3.614,-3.615,-3.6156,-3.6192,-3.5891,-3.5689,-3.588,-3.5759,-3.5674,-3.5504,-3.5152,-3.471,-3.4183,-3.3723,-3.3242,-3.266,-3.3033,-3.3157,-3.2985,-3.4018,-3.4537,0.0,0.0,0.0,0.0,0.0,0.0,0.0,0.0,0.0,0.0,0.0,0.0,0.0,0.0,0.0,0.0,0.0,0.0,0.0,0.0,0.0,0.0,-2.5882,-2.6793,-2.7415,-2.7799,-2.8183,-2.8724,-2.9498,-3.0076,-3.0296,-3.1121,-3.1708,-3.1873,-3.2496,-3.2936,-3.3101,-3.3707,-3.4147,-3.4312,-3.4935,-3.5284,-3.5284,-3.5449,-3.5632,-3.587,-3.522,-3.5042,-3.5273,-3.4838,-3.4642,-3.4642,-3.4881,-3.4984,-3.4984,-3.4984,-3.4984,-3.4933,0.0,0.0,0.0,0.0,-3.4359,-3.4951,-3.5409,-3.5712,-3.5867,-3.61,-3.6177,-3.6177,-3.6177,-3.6177,-3.6213,-3.6156,-3.6131,-3.6062,-3.605,-3.5994,-3.608,-3.6234,-3.632,-3.6354,-3.6525,-3.6878,-3.7115,-3.7115,-3.7452,0.0,-3.72,-3.6977,-3.6868,-3.6868,-3.6824,-3.6945,-3.7097,-3.6694,-3.649,-3.6856,-3.6718,-3.6632,-3.6632,-3.6244,0.0,0.0,0.0,-3.5031,-3.4799,-3.4709,0.0,0.0,0.0,-3.6625,-3.7029,-3.775,0.0,0.0,-3.7996,-3.8362,0.0,0.0,0.0,0.0,0.0,0.0,0.0,0.0,0.0,0.0,0.0,0.0,0.0,0.0,0.0,0.0,-2.7342,-2.8633,-3.0098,-3.0007,-2.9772,-2.9796,-3.0723,-3.1392,-3.1515,-3.1891,-3.2294,-3.2643,-3.3101,-3.3505,-3.3853,0.0,0.0,0.0,0.0,-3.5687,-3.5687,-3.6072,-3.6199,-3.6199,-3.5865,-3.5681,-3.5622,-3.5253,-3.5035,-3.5035,-3.5087,-3.5104,-3.5104,-3.5104,-3.5104,-3.5087,-3.5001,-3.4984,-3.4984,-3.5097,-3.5331,-3.5704,-3.5834,0.0,0.0,-3.6475,-3.6475,-3.6475,-3.6475,-3.6475,-3.6546,-3.6823,-3.693,-3.694,-3.6867,-3.6874,-3.6818,-3.6856,-3.686,-3.6946,-3.7308,-3.7726,-3.801,-3.801,-3.8376,-3.8743,-3.8743,-3.7962,-3.7445,-3.7445,-3.748,-3.7617,-3.7944,-3.7657,-3.7538,-3.7774,-3.755,0.0,-3.7291,-3.6991,-3.6706,-3.6673,-3.6745,-3.7039,-3.7398,-3.6797,-3.693,-3.8094,-3.7918,-3.8556,-3.9919,-3.9696,-4.031,-4.1637,-4.0389,-4.041,0.0,0.0,0.0,0.0,0.0,0.0,0.0,0.0,0.0,0.0,0.0,0.0,0.0,0.0,0.0,-2.7721,-2.893,-2.9982,-3.0664,-3.1581,-3.2018,-3.1807,-3.1759,-3.1902,-3.2227,-3.2685,-3.3028,-3.3101,-3.3762,-3.4202,-3.4275,-3.499,-3.543,-3.5504,-3.5889,-3.6091,-3.6091,-3.6512,-3.6488,-3.6186,0.0,0.0,-3.5564,-3.5477,-3.5412,-3.5412,-3.5737,-3.5874,-3.5874,-3.5874,-3.5874,-3.5823,-3.5207,-3.4984,-3.5097,-3.5704,-3.6044,-3.6237,-3.7187,-3.7611,-3.769,-3.8007,-3.8165,-3.8165,-3.8165,-3.8165,0.0,-3.786,-3.7737,-3.7747,-3.7738,-3.7781,-3.7869,-3.8159,-3.8165,-3.82,-3.8271,-3.8618,-3.8848,-3.8848,-3.9179,-3.9476,-3.9476,-3.9042,-3.8764,-3.8764,-3.9028,-3.924,-3.931,-3.9243,-3.9193,-3.9263,-3.9178,-3.9178,-3.9178,-3.9108,-3.8933,-3.8635,-3.8333,-3.8276,-3.8356,-3.8517,-3.8615,-3.8598,-3.949,-3.9891,-3.9919,-4.0833,-4.1373,-4.1657,-4.1379,-4.1854,0.0,0.0,0.0,0.0,0.0,0.0,0.0,0.0,0.0,0.0,0.0,-2.6232,0.0,0.0,-2.8318,-2.9006,-3.0069,-3.0936,-3.1505,-3.2441,-3.298,-3.2623,-3.267,-3.286,-3.3151,-3.3397,-3.36,-3.378,-3.4183,-3.4587,-3.499,-3.5394,-3.5705,-3.5907,-3.6109,-3.6311,-3.6531,-3.6732,-3.6707,-3.6525,-3.6534,-3.6244,-3.5887,-3.5794,-3.5806,-3.5806,-3.6011,-3.6097,-3.6097,-3.6097,-3.6097,-3.6063,-3.5686,-3.5532,-3.5629,-3.5977,-3.6445,-3.6861,-3.7454,-3.7924,-3.8322,-3.856,-3.856,-3.856,-3.856,-3.856,-3.856,-3.8322,-3.8468,-3.8588,-3.8383,-3.8436,-3.8687,-3.8814,-3.8837,-3.8891,-3.9068,-3.9449,-3.976,-3.976,-4.0072,-4.0385,-4.0385,-4.0205,-3.991,-3.9489,-3.9564,-3.9689,-3.9689,-3.9689,-3.9689,-3.9689,-3.9689,-3.9689,-3.9689,-3.9689,-3.9787,-4.0012,-3.9699,-3.9723,-4.0158,-4.0216,-4.0226,-4.0235,-4.0841,-4.1246,-4.1423,-4.2272,-4.2905,-4.3284,-4.3736,-4.3985,0.0,0.0,0.0,0.0,0.0,0.0,0.0,0.0,-2.5817,-2.6222,-2.7025,-2.7763,-2.8137,-2.8975,-2.9742,-3.0266,-3.1007,-3.1742,-3.2309,-3.307,-3.3447,-3.3289,-3.3611,-3.3888,-3.397,-3.4059,-3.4139,-3.4489,-3.4621,-3.4935,-3.5577,-3.5687,-3.5889,-3.6201,-3.6292,-3.6494,-3.6824,-3.6837,-3.6845,-3.6767,-3.6788,-3.6509,-3.6112,-3.6104,-3.6097,-3.6097,-3.6097,-3.6097,-3.6097,-3.6097,-3.6097,-3.6097,-3.6097,-3.6097,-3.6097,-3.6178,-3.6724,-3.7445,-3.7525,-3.8004,-3.856,-3.856,-3.856,-3.856,-3.856,-3.856,-3.8579,-3.8652,-3.8988,-3.9183,-3.9023,-3.9232,-3.9493,-3.9474,-3.9497,-3.9568,-3.989,-4.03,-4.0572,-4.0572,-4.0807,-4.106,-4.106,-4.106,-4.0807,-4.0131,-3.9943,-3.9943,-3.9943,-3.9943,-3.9943,-3.9943,-3.9943,-4.0028,-4.0113,-4.0113,-4.0451,-4.121,-4.0999,-4.1109,-4.1922,-4.1599,-4.1641,-4.2013,-4.2151,-4.2524,-4.3269,-4.3714,-4.4365,-4.5062,-4.5828,-4.5903,-2.5485,-2.536,-2.5394,-2.5588,-2.5912,-2.6243,0.0,0.0,-2.76,-2.7662,-2.8583,-2.935,-2.939,-3.0201,-3.1063,-3.1509,-3.2096,-3.2592,-3.3087,-3.3646,-3.4141,-3.4446,-3.463,-3.4672,-3.4701,-3.484,-3.4874,-3.4896,-3.5298,-3.5522,-3.5614,-3.5944,-3.6164,-3.6201,-3.6567,-3.6712,-3.6842,-3.7172,-3.7144,-3.6806,-3.6719,-3.6511,-3.6109,-3.608,-3.6097,-3.6097,-3.6097,-3.6097,-3.6097,-3.6097,-3.6097,-3.6097,-3.6097,-3.6097,-3.6178,-3.65,-3.6965,-3.7445,-3.7845,-3.8243,-3.856,-3.856,-3.856,-3.856,-3.856,-3.856,-3.8634,-3.9061,-3.9208,-3.941,-4.0143,-4.0281,-4.0409,-4.0811,-4.0903,-4.0921,-4.0958,-4.0976,-4.106,-4.106,-4.106,-4.106,-4.106,-4.106,-4.106,-4.0976,-4.0976,-4.0976,-4.0976,-4.0976,-4.0976,-4.0976,-4.0976,-4.1042,-4.1444,-4.1444,-4.1714,-4.2235,-4.2197,-4.2239,-4.2351,-4.2294,-4.2469,-4.2922,-4.33,-4.3775,-4.4229,-4.4663,-4.5076,-4.5523,-4.5976,-4.6322,-2.652,-2.6536,0.0,0.0,-2.7249,-2.7666,-2.7745,-2.8462,-2.9125,-2.9125,-2.9962,-3.0702,-3.0969,-3.1373,-3.1819,0.0,-3.2871,-3.3196,-3.3289,-3.4112,-3.4752,-3.4668,-3.5179,-3.5404,-3.522,-3.5463,-3.5571,-3.5321,-3.5736,-3.5943,-3.5944,-3.6109,-3.6311,-3.6567,-3.6751,-3.7062,-3.7521,-3.7402,-3.7299,-3.7117,-3.6815,-3.65,-3.6097,-3.6097,-3.6097,-3.6097,-3.6097,-3.6097,-3.6097,-3.6097,-3.6097,-3.6097,-3.6097,-3.6097,-3.6097,-3.6258,-3.6644,-3.7045,-3.7525,-3.7924,-3.8322,-3.8481,-3.856,-3.856,-3.856,-3.856,-3.8652,-3.9116,-3.941,-3.9722,-4.0308,-4.0639,-4.0859,-4.1024,-4.106,-4.106,-4.106,-4.106,-4.106,-4.106,-4.106,-4.1145,-4.1378,-4.1462,-4.1546,-4.1816,-4.1397,-4.106,-4.106,-4.1294,-4.1546,-4.1816,-4.19,-4.19,-4.2049,-4.2132,-4.2299,-4.2818,-4.2818,-4.2908,-4.3128,-4.3437,-4.365,-4.388,-4.426,-4.4537,-4.4766,-4.5192,-4.5691,-4.6399,-4.6811,-4.7433,-2.7558,0.0,0.0,-2.8105,-2.8452,-2.8817,-2.9027,-2.9653,-3.0222,-3.0346,-3.1008,-3.165,-3.1926,-3.2091,-3.2406,-3.3138,-3.343,-3.3598,-3.3757,-3.4604,-3.508,-3.4903,-3.5555,-3.5938,-3.5849,-3.6097,-3.6182,-3.5939,-3.6158,-3.6348,-3.6349,-3.6385,-3.6531,-3.6824,-3.7044,-3.7429,-3.8016,-3.7596,-3.7399,-3.7365,-3.6804,-3.642,-3.6097,-3.6097,-3.6097,-3.6097,-3.6097,-3.6097,-3.6097,-3.6097,-3.6097,-3.6097,-3.6097,-3.6097,-3.6097,-3.6097,-3.6339,-3.6742,-3.7205,-3.7685,-3.8084,-3.8481,-3.856,-3.856,-3.856,-3.8713,-3.8896,-3.9281,-3.9703,-4.0189,-4.0529,-4.084,-4.106,-4.106,-4.106,-4.106,-4.106,-4.106,-4.1145,-4.121,-4.1313,-4.1378,-4.1798,-4.1882,-4.2049,-4.2318,-4.19,-4.1481,-4.1481,-4.1714,-4.2049,-4.2318,-4.2402,-4.2485,-4.2569,-4.2569,-4.2818,-4.3234,-4.3317,-4.338,-4.3711,-4.4123,-4.4477,-4.4583,-4.4987,-4.5226,-4.5374,-4.5865,-4.6409,-4.7081,-4.7602,-4.8172,0.0,0.0,-2.9096,-2.9373,-2.9521,-2.9782,-3.0244,-3.0516,-3.0801,-3.1236,-3.1692,-3.1967,-3.1988,-3.2339,-3.2996,-3.3906,-3.3813,-3.3901,-3.4717,-3.504,-3.521,-3.521,-3.5689,-3.6191,0.0,-3.6661,-3.6701,-3.6649,-3.6764,-3.6793,-3.6812,-3.6754,-3.6824,-3.6842,-3.7576,-3.7979,-3.8016,-3.7629,-3.7428,-3.7365,-3.6563,-3.6097,-3.6097,-3.6097,-3.6097,-3.6097,-3.6097,-3.6097,-3.6097,-3.6097,-3.6097,-3.6097,-3.6097,-3.6097,-3.6097,-3.6097,-3.6339,-3.6742,-3.7205,-3.7685,-3.8084,-3.8481,-3.856,-3.856,-3.856,-3.8915,-3.93,-3.9785,-4.0207,-4.0547,-4.1016,-4.1042,-4.106,-4.106,-4.106,-4.106,-4.106,-4.106,-4.1229,-4.1612,-4.1695,-4.1798,-4.2318,-4.2402,-4.2402,-4.2402,-4.2402,-4.2318,-4.2318,-4.2402,-4.2402,-4.2402,-4.2402,-4.2569,-4.3068,-4.3068,-4.3234,-4.3628,-4.3711,-4.3711,-4.3711,-4.4123,-4.4616,-4.4944,-4.5434,-4.584,-4.6225,-4.673,-4.7132,-4.7571,-4.8092,-4.8511,0.0,0.0,-3.0274,-3.0199,-3.0282,-3.0493,-3.08,-3.1016,-3.1278,-3.1733,-3.2132,-3.2442,-3.2442,-3.2566,-3.3016,-3.3927,-3.4013,-3.4142,-3.4799,-3.5251,-3.5471,-3.521,-3.5689,0.0,0.0,0.0,0.0,-3.7196,-3.7153,-3.7107,-3.6812,-3.6829,-3.6952,-3.7209,-3.7741,-3.8144,-3.8438,-3.8011,-3.7685,-3.7365,-3.6483,-3.6097,-3.6097,-3.6097,-3.6097,-3.6097,-3.6097,-3.6097,-3.6097,-3.6097,-3.6097,-3.6097,-3.6097,-3.6258,-3.65,-3.65,-3.6804,-3.7205,-3.7365,-3.7685,-3.8084,-3.8481,-3.856,-3.856,-3.856,-3.8835,-3.9318,-3.9803,-4.0226,-4.0565,-4.095,-4.106,-4.106,-4.106,-4.106,-4.1145,-4.1462,-4.1546,-4.163,-4.2049,-4.2132,-4.2299,-4.2818,-4.2902,-4.2985,-4.3214,-4.2818,-4.2485,-4.2818,-4.2902,-4.2985,-4.3214,-4.3297,-4.3297,-4.3463,-4.3463,-4.3546,-4.3711,-4.3711,-4.3876,-4.4123,-4.4534,-4.5046,-4.5454,-4.5861,-4.6185,-4.6266,-4.6772,-4.7234,-4.7592,-4.8092,-4.8511,0.0,-3.0297,-3.088,-3.0875,-3.085,-3.0903,-3.119,-3.1174,-3.1257,-3.1712,-3.2168,-3.2421,-3.2421,-3.2509,-3.2782,-3.3523,-3.3731,-3.39,-3.4451,-3.5087,-3.5406,-3.521,-3.5689,-3.625,0.0,0.0,0.0,-3.7532,-3.7613,-3.7421,-3.7034,-3.7127,-3.7249,-3.7411,-3.7961,-3.8365,-3.864,-3.8163,-3.7685,-3.7125,-3.6563,-3.6258,-3.6097,-3.6097,-3.6097,-3.6097,-3.6097,-3.6097,-3.6097,-3.6258,-3.6339,-3.6339,-3.6483,-3.6724,-3.6965,-3.6965,-3.7294,-3.7784,-3.7641,-3.7854,-3.8282,-3.87,-3.8951,-3.908,-3.908,-3.9355,-3.9722,-3.9997,-4.0363,-4.073,-4.0987,-4.106,-4.106,-4.106,-4.1229,-4.1378,-4.1612,-4.1863,-4.2049,-4.2569,-4.2652,-4.2818,-4.3214,-4.3297,-4.338,-4.3628,-4.3214,-4.2965,-4.3317,-4.3297,-4.338,-4.3711,-4.3711,-4.3711,-4.3711,-4.3711,-4.3711,-4.3711,-4.3711,-4.3876,-4.437,-4.48,-4.5209,-4.5719,-4.6104,-4.6347,-4.6509,-4.6993,-4.7453,-4.7853,-4.8331,-4.867,-3.0078,-3.0559,-3.104,-3.1447,-3.1189,-3.0903,-3.1402,-3.1105,-3.0822,-3.1278,-3.1657,-3.1946,0.0,0.0,-3.235,-3.2799,-3.2972,-3.3256,-3.3719,-3.4588,-3.521,0.0,0.0,0.0,0.0,0.0,0.0,-3.793,0.0,-3.7789,-3.744,-3.7764,-3.7831,-3.7448,-3.8158,-3.856,-3.856,-3.8163,-3.7605,-3.6742,-3.6742,-3.6581,-3.6178,-3.6178,-3.6178,-3.6178,-3.6178,-3.6178,-3.6178,-3.6581,-3.6742,-3.6804,-3.7205,-3.7445,-3.7445,-3.7463,-3.7935,-3.8608,-3.8184,-3.8391,-3.8698,-3.9102,-3.952,-3.9932,-3.9932,-4.0226,-4.0473,-4.0473,-4.0749,-4.106,-4.106,-4.1145,-4.1145,-4.1145,-4.1462,-4.1695,-4.1779,-4.2132,-4.2569,-4.3068,-4.3151,-4.3234,-4.3628,-4.3711,-4.3711,-4.3711,-4.3711,-4.3711,-4.3711,-4.3711,-4.3711,-4.3711,-4.3711,-4.3711,-4.3711,-4.3711,-4.3711,-4.3711,-4.3711,-4.3958,-4.437,-4.48,-4.5209,-4.5698,-4.6104,-4.6509,-4.7014,-4.7373,-4.7853,-4.8352,-4.8749,-4.8907,-3.0188,-3.0821,-3.1425,-3.1351,-3.1034,-3.0851,-3.1138,-3.0945,-3.0748,-3.0984,-3.1093,-3.1119,0.0,0.0,0.0,-3.2004,-3.2651,0.0,-3.3719,-3.4588,0.0,0.0,0.0,-3.6348,-3.7226,-3.7305,0.0,0.0,-3.817,-3.7923,-3.7857,-3.7914,-3.7942,-3.7851,-3.8365,-3.856,-3.856,-3.8163,-3.7924,-3.7685,-3.7365,-3.7205,-3.7045,-3.7045,-3.7045,-3.7045,-3.7045,-3.7045,-3.7045,-3.7205,-3.7205,-3.7205,-3.7365,-3.7605,-3.7881,-3.8168,-3.8572,-3.9102,-3.9303,-3.9512,-3.9603,-3.9685,-3.984,-3.9932,-3.9932,-4.0226,-4.0473,-4.0473,-4.0749,-4.106,-4.106,-4.1294,-4.1546,-4.1546,-4.1882,-4.2318,-4.2633,-4.2818,-4.3068,-4.3463,-4.3546,-4.3546,-4.3711,-4.3711,-4.3711,-4.3711,-4.3711,-4.3711,-4.3711,-4.3711,-4.3711,-4.3711,-4.3711,-4.3711,-4.3711,-4.3711,-4.3711,-4.3711,-4.4041,-4.437,-4.48,-4.5291,-4.5698,-4.6104,-4.6266,-4.6509,-4.7014,-4.7373,-4.7853,-4.8352,-4.8749,-4.8907,-2.9992,-3.0787,-3.1527,-3.127,-3.0983,-3.0787,-3.0779,-3.0473,-3.0237,-3.0302,-3.0364,0.0,0.0,0.0,0.0,0.0,0.0,0.0,-3.3032,-3.4057,-3.4752,0.0,-3.5603,0.0,-3.7226,-3.7305,-3.7656,0.0,-3.8355,-3.8182,-3.7989,-3.8198,-3.8152,-3.7998,-3.842,-3.856,-3.856,-3.8402,-3.8163,-3.8004,-3.7765,-3.7605,-3.7445,-3.7445,-3.7445,-3.7445,-3.7445,-3.7445,-3.7445,-3.7605,-3.7685,-3.7685,-3.7845,-3.8084,-3.8261,-3.8479,-3.8948,-3.9538,-3.984,-4.0152,-4.0428,-4.0262,-4.0318,-4.0465,-4.0465,-4.0547,-4.073,-4.073,-4.0895,-4.1145,-4.1294,-4.1546,-4.1779,-4.1965,-4.2383,-4.2818,-4.3068,-4.3234,-4.3463,-4.3628,-4.3711,-4.3711,-4.3711,-4.3711,-4.3711,-4.3711,-4.3711,-4.3711,-4.3711,-4.3711,-4.3711,-4.3711,-4.3711,-4.3711,-4.3711,-4.3711,-4.3711,-4.3711,-4.4123,-4.4616,-4.4964,-4.5454,-4.5861,-4.6266,-4.6266,-4.659,-4.7234,-4.7533,-4.7933,-4.8591,-4.8828,-4.8907,-2.9725,-3.0543,-3.1338,-3.1167,-3.0931,-3.0651,-3.0255,-2.9838,-2.9452,-2.9338,0.0,0.0,-2.9453,0.0,-2.9905,-3.0399,0.0,-3.1191,-3.2111,-3.3223,-3.416,-3.4648,-3.543,-3.6289,-3.7207,-3.7305,-3.7656,-3.8516,-3.8574,-3.8495,-3.8159,-3.8463,-3.8419,-3.8089,-3.8456,-3.856,-3.856,-3.856,-3.8402,-3.8084,-3.8084,-3.7924,-3.7605,-3.7605,-3.7605,-3.7605,-3.7605,-3.7605,-3.7605,-3.7924,-3.8084,-3.8084,-3.8481,-3.856,-3.8658,-3.8615,-3.919,-3.9932,-3.9987,-4.0501,-4.1005,-4.0657,-4.0785,-4.106,-4.106,-4.106,-4.1145,-4.1145,-4.1145,-4.1313,-4.1714,-4.1863,-4.1965,-4.2402,-4.2818,-4.3151,-4.3151,-4.3463,-4.3711,-4.3711,-4.3711,-4.3711,-4.3711,-4.3711,-4.3711,-4.3711,-4.3711,-4.3711,-4.3711,-4.3711,-4.3711,-4.3711,-4.3711,-4.3711,-4.3711,-4.3711,-4.3711,-4.3711,-4.4205,-4.4616,-4.4964,-4.5454,-4.5942,-4.6266,-4.6266,-4.673,-4.7592,-4.7592,-4.8092,-4.8907,-4.8907,-4.8907,-2.9345,-2.9906,-3.0389,-3.0514,-3.0495,-3.0234,-2.9394,-2.9085,0.0,0.0,0.0,-2.7525,-2.7635,-2.799,0.0,-2.929,0.0,0.0,0.0,0.0,-3.3828,0.0,0.0,0.0,0.0,0.0,0.0,0.0,0.0,-3.8685,-3.8954,-3.8766,-3.855,-3.8511,-3.8524,-3.856,-3.856,-3.856,-3.856,-3.8481,-3.8481,-3.8481,-3.8402,-3.8402,-3.8402,-3.8402,-3.8402,-3.8402,-3.8402,-3.8481,-3.8481,-3.8481,-3.856,-3.856,-3.8597,-3.9006,-3.9428,-3.9968,-4.0235,-4.0675,-4.1042,-4.0987,-4.1005,-4.106,-4.106,-4.106,-4.1145,-4.1546,-4.163,-4.1714,-4.2151,-4.2569,-4.2902,-4.2985,-4.3297,-4.3628,-4.3628,-4.3628,-4.3711,-4.3711,-4.3711,-4.3711,-4.3711,-4.3711,-4.3711,-4.3711,-4.3711,-4.3711,-4.3711,-4.3711,-4.3711,-4.3711,-4.3711,-4.3711,-4.3711,-4.3711,-4.3711,-4.3711,-4.4452,-4.4964,-4.4964,-4.5779,-4.6266,-4.6266,-4.6266,-4.673,-4.7592,-4.7592,-4.8092,-4.8907,-4.8907,-4.8907,-2.8767,-2.9303,-2.9756,-2.9716,-2.9576,-2.9309,-2.8676,0.0,0.0,0.0,0.0,-2.6666,-2.6931,0.0,0.0,0.0,0.0,0.0,0.0,0.0,0.0,0.0,0.0,0.0,0.0,0.0,0.0,0.0,0.0,-3.9031,-3.9221,-3.9222,-3.9174,-3.8938,-3.8956,-3.8877,-3.856,-3.856,-3.856,-3.856,-3.856,-3.856,-3.856,-3.856,-3.856,-3.856,-3.856,-3.856,-3.856,-3.856,-3.856,-3.856,-3.856,-3.856,-3.8579,-3.886,-3.9171,-3.9575,-3.9997,-4.04,-4.0869,-4.1323,-4.1313,-4.106,-4.106,-4.121,-4.1462,-4.1612,-4.1882,-4.2132,-4.2652,-4.2902,-4.3151,-4.338,-4.3546,-4.3711,-4.3711,-4.3711,-4.3711,-4.3711,-4.3711,-4.3711,-4.3711,-4.3711,-4.3711,-4.3711,-4.3711,-4.3711,-4.3711,-4.3711,-4.3711,-4.3711,-4.3711,-4.3711,-4.3711,-4.3711,-4.3793,-4.4041,-4.4616,-4.5127,-4.5372,-4.5942,-4.6266,-4.6266,-4.6266,-4.667,-4.7314,-4.7533,-4.7933,-4.8591,-4.8828,-4.8907,-2.7869,-2.8474,-2.895,-2.8786,-2.8678,-2.8407,-2.7934,-2.7341,0.0,0.0,0.0,-2.5988,-2.6352,0.0,0.0,0.0,0.0,0.0,0.0,0.0,0.0,0.0,0.0,0.0,0.0,0.0,0.0,0.0,0.0,0.0,-3.9355,-3.9796,-3.9823,-3.943,-3.943,-3.9193,-3.8719,-3.8719,-3.8719,-3.856,-3.856,-3.856,-3.856,-3.856,-3.856,-3.856,-3.856,-3.856,-3.856,-3.856,-3.856,-3.856,-3.856,-3.856,-3.864,-3.8719,-3.8976,-3.9443,-3.9837,-4.028,-4.0842,-4.1472,-4.1472,-4.1229,-4.1313,-4.163,-4.1863,-4.1965,-4.2299,-4.2652,-4.3151,-4.3234,-4.3297,-4.3628,-4.3711,-4.3711,-4.3711,-4.3711,-4.3711,-4.3711,-4.3711,-4.3711,-4.3711,-4.3711,-4.3711,-4.3711,-4.3711,-4.3711,-4.3711,-4.3711,-4.3711,-4.3711,-4.3711,-4.3711,-4.3711,-4.3711,-4.3876,-4.437,-4.48,-4.5209,-4.5719,-4.6104,-4.6266,-4.6266,-4.6266,-4.6509,-4.7014,-4.7314,-4.7773,-4.8352,-4.8591,-4.8828,-2.6532,-2.7045,-2.7519,-2.7895,-2.7996,-2.7723,-2.6804,0.0,0.0,0.0,-2.4839,-2.4771,-2.5181,-2.5573,0.0,0.0,0.0,0.0,0.0,0.0,0.0,0.0,0.0,0.0,0.0,0.0,0.0,0.0,0.0,0.0,-3.9817,-4.0182,-4.0275,-3.9823,-3.9823,-3.9666,-3.9272,-3.9272,-3.9035,-3.856,-3.856,-3.856,-3.856,-3.856,-3.856,-3.856,-3.856,-3.856,-3.856,-3.856,-3.856,-3.856,-3.856,-3.856,-3.864,-3.9114,-3.9454,-3.9906,-4.0325,-4.0933,-4.1612,-4.165,-4.1665,-4.1695,-4.2151,-4.2318,-4.2402,-4.2818,-4.2985,-4.3151,-4.3546,-4.3628,-4.3628,-4.3711,-4.3711,-4.3711,-4.3711,-4.3711,-4.3711,-4.3711,-4.3711,-4.3711,-4.3711,-4.3711,-4.3711,-4.3711,-4.3711,-4.3711,-4.3711,-4.3711,-4.3711,-4.3711,-4.3711,-4.3711,-4.3711,-4.3711,-4.3876,-4.437,-4.48,-4.5209,-4.5719,-4.6104,-4.6266,-4.6266,-4.6266,-4.6509,-4.7014,-4.7014,-4.7474,-4.8273,-4.8352,-4.8591,-2.5846,-2.6235,-2.6428,-2.6772,-2.6675,-2.6419,-2.5868,0.0,0.0,-2.4763,-2.4498,-2.443,-2.4836,-2.526,-2.5795,0.0,0.0,0.0,0.0,0.0,0.0,0.0,0.0,0.0,0.0,0.0,0.0,0.0,0.0,0.0,-4.0647,-4.0822,-4.0685,-4.0275,-4.0275,-4.0059,-3.9666,-3.9666,-3.943,-3.9035,-3.9035,-3.8877,-3.856,-3.856,-3.856,-3.856,-3.856,-3.856,-3.856,-3.856,-3.856,-3.864,-3.8877,-3.9035,-3.9035,-3.9509,-3.9779,-3.9967,-4.0353,-4.0887,-4.1417,-4.1928,-4.229,-4.255,-4.2402,-4.2569,-4.2818,-4.3068,-4.3297,-4.3463,-4.3628,-4.3711,-4.3711,-4.3711,-4.3711,-4.3711,-4.3711,-4.3711,-4.3711,-4.3711,-4.3711,-4.3711,-4.3711,-4.3711,-4.3711,-4.3711,-4.3711,-4.3711,-4.3711,-4.3711,-4.3711,-4.3711,-4.3711,-4.3711,-4.3711,-4.3958,-4.4288,-4.4698,-4.5209,-4.5617,-4.6023,-4.6185,-4.6266,-4.6266,-4.6266,-4.6347,-4.659,-4.6852,-4.7174,-4.7554,-4.8034,-4.8432,-2.4769,-2.5112,-2.5224,-2.5349,-2.5265,-2.5025,0.0,0.0,0.0,-2.4196,-2.4159,-2.4194,-2.4537,-2.5065,-2.5601,0.0,0.0,0.0,0.0,0.0,0.0,0.0,0.0,0.0,0.0,0.0,0.0,0.0,0.0,0.0,-4.1152,-4.1172,-4.1094,-4.0763,-4.0685,-4.0529,-4.0059,-4.0059,-3.9902,-3.9509,-3.9509,-3.9272,-3.8956,-3.8956,-3.8956,-3.8956,-3.8956,-3.8956,-3.8956,-3.8956,-3.8956,-3.9035,-3.9351,-3.9509,-3.9509,-3.9902,-4.0059,-4.0175,-4.0559,-4.1002,-4.1422,-4.2168,-4.2693,-4.306,-4.2863,-4.3068,-4.3317,-4.3317,-4.3463,-4.3711,-4.3711,-4.3711,-4.3711,-4.3711,-4.3711,-4.3711,-4.3711,-4.3711,-4.3711,-4.3711,-4.3711,-4.3711,-4.3711,-4.3711,-4.3711,-4.3711,-4.3711,-4.3711,-4.3711,-4.3711,-4.3793,-4.3876,-4.3876,-4.3876,-4.3876,-4.4205,-4.4616,-4.5127,-4.5535,-4.5861,-4.6266,-4.6266,-4.6266,-4.6266,-4.6266,-4.6266,-4.6266,-4.659,-4.6852,-4.7014,-4.7635,-4.8034,-2.3017,-2.3415,-2.3738,-2.3738,-2.3738,-2.3645,0.0,0.0,-2.3499,-2.3499,-2.3681,-2.3904,-2.4152,-2.4882,-2.5543,-2.5947,0.0,0.0,0.0,0.0,0.0,0.0,0.0,0.0,0.0,0.0,0.0,0.0,0.0,0.0,-4.1152,-4.1172,-4.1172,-4.1172,-4.1172,-4.0997,-4.0509,-4.0509,-4.0275,-3.9902,-3.9902,-3.9902,-3.9902,-3.9902,-3.9902,-3.9902,-3.9902,-3.9902,-3.9902,-3.9902,-3.9902,-3.9902,-3.9902,-3.9902,-3.9902,-4.0353,-4.0509,-4.0588,-4.1016,-4.1465,-4.1875,-4.2305,-4.2734,-4.3164,-4.3574,-4.3711,-4.3711,-4.3711,-4.3711,-4.3711,-4.3711,-4.3711,-4.3711,-4.3711,-4.3711,-4.3711,-4.3711,-4.3711,-4.3711,-4.3711,-4.3711,-4.3711,-4.3711,-4.3711,-4.3711,-4.3711,-4.3711,-4.3711,-4.3711,-4.3711,-4.3876,-4.437,-4.437,-4.437,-4.437,-4.437,-4.478,-4.5617,-4.5719,-4.5861,-4.6266,-4.6266,-4.6266,-4.6266,-4.6266,-4.6266,-4.6266,-4.6266,-4.6509,-4.7014,-4.7014,-4.7474,-2.2028,-2.25,-2.2825,-2.2915,-2.2923,-2.2876,-2.2593,0.0,-2.3062,-2.3275,-2.3583,-2.3995,-2.4519,-2.5065,-2.5687,-2.653,-2.7807,0.0,0.0,0.0,0.0,0.0,0.0,0.0,0.0,0.0,0.0,0.0,0.0,0.0,-4.1172,-4.1172,-4.1172,-4.1172,-4.1172,-4.1094,-4.0997,-4.0997,-4.0763,-4.0275,-4.0275,-4.0216,-3.9902,-3.9902,-3.9902,-3.9902,-3.9902,-3.9902,-3.9902,-3.9902,-3.9902,-3.9902,-4.0216,-4.0275,-4.0353,-4.0841,-4.0997,-4.1016,-4.1172,-4.1445,-4.1816,-4.1953,-4.248,-4.3105,-4.3242,-4.3476,-4.3711,-4.3711,-4.3711,-4.3711,-4.3711,-4.3711,-4.3711,-4.3711,-4.3711,-4.3711,-4.3711,-4.3958,-4.4205,-4.4205,-4.437,-4.4636,-4.4636,-4.4636,-4.4636,-4.4636,-4.4636,-4.4636,-4.4636,-4.4636,-4.4636,-4.48,-4.48,-4.48,-4.48,-4.5127,-4.5372,-4.5719,-4.5942,-4.6185,-4.6266,-4.6266,-4.6266,-4.6266,-4.6266,-4.6266,-4.6266,-4.6266,-4.6509,-4.7014,-4.7314,-4.7693,0.0,-2.1472,-2.1717,-2.1959,-2.2003,0.0,0.0,0.0,-2.2558,-2.2895,-2.3327,-2.3881,-2.4652,-2.5338,-2.6122,-2.7082,0.0,0.0,0.0,0.0,0.0,0.0,0.0,0.0,0.0,0.0,0.0,0.0,0.0,0.0,-4.1172,-4.1172,-4.1172,-4.1172,-4.1172,-4.1172,-4.1172,-4.1172,-4.1094,-4.0763,-4.0763,-4.0607,-4.0391,-4.0391,-4.0391,-4.0391,-4.0391,-4.0391,0.0,-4.0391,-4.0391,-4.0391,-4.0685,-4.0763,-4.0841,-4.1094,-4.1172,-4.125,-4.1405,-4.1562,-4.1817,-4.2132,-4.2862,-4.3613,-4.3771,-4.3742,-4.3711,-4.3711,-4.3711,-4.3711,-4.3958,-4.3958,-4.4041,-4.4123,-4.4205,-4.4205,-4.4205,-4.4452,-4.4616,-4.4616,-4.48,-4.4964,-4.4964,-4.4964,-4.4964,-4.4964,-4.4964,-4.4964,-4.4964,-4.4964,-4.5046,-4.5209,-4.5291,-4.5291,-4.5454,-4.5617,-4.58,-4.5962,-4.6185,-4.6266,-4.6266,-4.6266,-4.6266,-4.6266,-4.6266,-4.6266,-4.6266,-4.6266,-4.6428,-4.6751,-4.7293,-4.7773,0.0,0.0,0.0,0.0,0.0,0.0,0.0,0.0,0.0,-2.2488,-2.3086,-2.3767,-2.4706,-2.5733,-2.671,-2.7585,0.0,0.0,0.0,0.0,0.0,0.0,0.0,0.0,0.0,0.0,0.0,0.0,0.0,0.0,-4.1172,-4.1172,-4.1172,-4.1172,-4.1172,-4.1172,-4.1172,-4.1172,-4.1172,-4.1172,-4.1172,-4.1172,-4.1172,-4.1172,-4.1172,0.0,-4.1172,-4.1172,-4.1172,-4.1172,-4.1172,-4.1172,-4.1172,-4.1172,-4.1172,-4.125,-4.125,-4.1327,-4.1695,-4.185,-4.2007,-4.2797,-4.3678,-4.4442,-4.4905,-4.4452,-4.3793,-4.3793,-4.3793,-4.3876,-4.437,-4.4452,-4.4534,-4.4882,-4.4964,-4.4964,-4.4964,-4.5046,-4.5046,-4.5046,-4.5046,-4.5127,-4.5127,-4.5127,-4.5127,-4.5127,-4.5127,-4.5127,-4.5127,-4.5127,-4.5291,-4.5719,-4.5719,-4.5861,-4.6266,-4.5942,-4.5861,-4.6266,-4.6266,-4.6266,-4.6266,-4.6266,-4.6266,-4.6266,-4.6266,-4.6266,-4.6266,-4.6266,-4.6266,-4.6347,-4.7213,-4.7592,-1.9264,0.0,-1.9962,-2.0369,-2.0473,0.0,0.0,0.0,0.0,0.0,0.0,0.0,0.0,0.0,0.0,0.0,0.0,0.0,0.0,0.0,0.0,0.0,0.0,0.0,0.0,0.0,0.0,0.0,0.0,-4.154,-4.125,-4.1172,-4.1172,-4.1172,-4.1172,-4.1172,-4.1172,-4.1172,-4.1172,-4.1172,-4.1172,-4.1172,-4.1172,-4.1172,-4.1172,-4.1172,-4.1172,-4.1172,-4.1172,-4.1172,-4.1172,-4.1172,-4.1172,-4.1172,-4.125,-4.156,-4.1695,-4.1695,-4.2159,-4.2293,-4.2433,-4.3295,-4.3678,-4.3999,-4.4804,-4.4882,-4.4718,-4.4718,-4.4718,-4.4718,-4.48,-4.4882,-4.4882,-4.4964,-4.4964,-4.4964,-4.4964,-4.5291,-4.5535,-4.5535,-4.5779,-4.6023,-4.6023,-4.6023,-4.6023,-4.6023,-4.6023,-4.6023,-4.6023,-4.6023,-4.6023,-4.6185,-4.6185,-4.6185,-4.6266,-4.6185,-4.6185,-4.6266,-4.6266,-4.6266,-4.6266,-4.6266,-4.6266,-4.6266,-4.6266,-4.6266,-4.6266,-4.6266,-4.6266,-4.6347,-4.7213,-4.7592,-1.8973,-1.9333,-1.9607,-2.0155,-2.052,-2.0801,0.0,0.0,0.0,0.0,0.0,0.0,0.0,0.0,0.0,0.0,0.0,0.0,0.0,0.0,0.0,0.0,0.0,0.0,0.0,0.0,0.0,0.0,0.0,-4.1992,-4.1778,-4.1621,-4.1367,-4.1172,-4.1172,-4.1172,-4.1172,-4.1172,-4.1172,-4.1172,-4.1172,-4.1172,-4.1172,-4.1172,-4.1172,-4.1172,-4.1172,-4.1172,-4.1172,-4.1172,-4.1172,-4.125,-4.1405,-4.1483,-4.154,-4.1927,-4.2082,-4.2139,-4.2544,-4.2774,-4.307,-4.3966,-4.4252,-4.4435,-4.5332,-4.5617,-4.5535,-4.5127,-4.4964,-4.5046,-4.5291,-4.5291,-4.5372,-4.5535,-4.5617,-4.5617,-4.5617,-4.5779,-4.5942,-4.5942,-4.6185,-4.6266,-4.6266,-4.6266,-4.6266,-4.6266,-4.6266,-4.6266,-4.6266,-4.6266,-4.6266,-4.6266,-4.6266,-4.6266,-4.6266,-4.6266,-4.6266,-4.6266,-4.6266,-4.6266,-4.6266,-4.6266,-4.6266,-4.6266,-4.6266,-4.6266,-4.6266,-4.6266,-4.6428,-4.667,-4.7293,-4.7693,-1.9058,-1.9299,-1.9566,-2.0279,-2.0911,-2.1392,0.0,0.0,0.0,0.0,0.0,0.0,0.0,0.0,0.0,0.0,0.0,0.0,0.0,0.0,0.0,0.0,0.0,0.0,0.0,0.0,0.0,0.0,0.0,-4.2644,-4.2584,-4.2191,-4.1837,-4.1405,-4.1405,-4.1405,-4.1405,-4.1327,-4.1327,-4.1405,-4.1405,-4.1405,-4.1405,-4.1405,-4.1405,-4.1405,-4.1405,-4.1405,-4.1405,-4.1405,-4.1405,-4.1405,-4.1773,-4.1927,-4.1927,-4.237,-4.2524,-4.2524,-4.2927,-4.3351,-4.3863,-4.4712,-4.5043,-4.525,-4.6099,-4.6266,-4.6185,-4.5372,-4.5209,-4.5291,-4.5698,-4.58,-4.5861,-4.6185,-4.6266,-4.6266,-4.6266,-4.6266,-4.6266,-4.6266,-4.6266,-4.6266,-4.6266,-4.6266,-4.6266,-4.6266,-4.6266,-4.6266,-4.6266,-4.6266,-4.6266,-4.6266,-4.6266,-4.6266,-4.6266,-4.6266,-4.6266,-4.6266,-4.6266,-4.6266,-4.6266,-4.6266,-4.6266,-4.6266,-4.6266,-4.6266,-4.6266,-4.6266,-4.6509,-4.7014,-4.7373,-4.7853,-1.9339,-1.9877,-2.0448,-2.1014,-2.1333,-2.1819,0.0,0.0,0.0,0.0,0.0,0.0,0.0,0.0,0.0,0.0,0.0,0.0,0.0,0.0,0.0,0.0,0.0,0.0,0.0,0.0,0.0,0.0,0.0,-4.3771,-4.3074,-4.2976,-4.2677,-4.2236,-4.2216,-4.2216,-4.2216,-4.185,-4.185,-4.2216,-4.2216,-4.2216,-4.2216,-4.2216,-4.2216,-4.2216,-4.2216,-4.2216,-4.2216,-4.2216,-4.2216,-4.2216,-4.2293,-4.2293,-4.237,-4.2774,-4.2927,-4.2927,-4.3386,-4.3787,-4.4277,-4.4815,-4.525,-4.5664,-4.6182,-4.6266,-4.6266,-4.6104,-4.6104,-4.6104,-4.6185,-4.6185,-4.6185,-4.6266,-4.6266,-4.6266,-4.6266,-4.6266,-4.6266,-4.6266,-4.6266,-4.6266,-4.6266,-4.6266,-4.6266,-4.6266,-4.6266,-4.6266,-4.6266,-4.6266,-4.6266,-4.6266,-4.6266,-4.6266,-4.6266,-4.6266,-4.6266,-4.6266,-4.6266,-4.6266,-4.6266,-4.6266,-4.6266,-4.6266,-4.6266,-4.6266,-4.6266,-4.6266,-4.6509,-4.7014,-4.7373,-4.7853,-1.9544,-2.0331,-2.1194,-2.2003,-2.2456,-2.2894,0.0,0.0,0.0,0.0,0.0,0.0,0.0,0.0,0.0,0.0,0.0,0.0,0.0,0.0,0.0,0.0,0.0,0.0,0.0,0.0,0.0,0.0,-4.4406,-4.4191,-4.383,-4.3331,-4.2853,-4.239,-4.237,-4.2524,-4.2697,-4.2544,-4.2467,-4.237,-4.237,-4.237,-4.237,-4.237,-4.237,-4.237,-4.237,-4.237,-4.237,-4.237,-4.237,-4.2447,-4.2621,-4.2697,-4.2774,-4.3157,-4.331,-4.3427,-4.3828,-4.4132,-4.4422,-4.5126,-4.5498,-4.5768,-4.6223,-4.6266,-4.6266,-4.6266,-4.6266,-4.6266,-4.6266,-4.6266,-4.6266,-4.6266,-4.6266,-4.6266,-4.6266,-4.6266,-4.6266,-4.6266,-4.6266,-4.6266,-4.6266,-4.6266,-4.6266,-4.6266,-4.6266,-4.6266,-4.6266,-4.6266,-4.6266,-4.6266,-4.6266,-4.6266,-4.6266,-4.6266,-4.6266,-4.6266,-4.6266,-4.6266,-4.6266,-4.6266,-4.6266,-4.6266,-4.6266,-4.6266,-4.6266,-4.6509,-4.6912,-4.7293,-4.7773,-4.8172,-2.0004,-2.0933,-2.1989,-2.3091,0.0,-2.4017,0.0,0.0,0.0,0.0,0.0,0.0,0.0,0.0,0.0,0.0,0.0,0.0,0.0,0.0,0.0,0.0,0.0,0.0,0.0,0.0,0.0,-4.5126,-4.4831,-4.4632,-4.4529,-4.3766,-4.3086,-4.2697,-4.2677,-4.2851,-4.3157,-4.3157,-4.3004,-4.2677,-4.2677,-4.2677,-4.2677,-4.2677,-4.2677,-4.2677,-4.2677,-4.2677,-4.2677,-4.2677,-4.2677,-4.2677,-4.3004,-4.3157,-4.3157,-4.3462,-4.3615,-4.3677,-4.4132,-4.4381,-4.4588,-4.5416,-4.5747,-4.5892,-4.6244,-4.6266,-4.6266,-4.6266,-4.6184,-4.6223,-4.6246,-4.6264,-4.6182,-4.6182,-4.6119,-4.6037,-4.6037,-4.6037,-4.6037,-4.6037,-4.6037,-4.6037,-4.6037,-4.6037,-4.6057,-4.6182,-4.6182,-4.6223,-4.6246,-4.6266,-4.6266,-4.6266,-4.6266,-4.6266,-4.6266,-4.6266,-4.6266,-4.6266,-4.6266,-4.6266,-4.6266,-4.6266,-4.6266,-4.6266,-4.6266,-4.6347,-4.6428,-4.6852,-4.7234,-4.7773,-4.8092,-4.8511,-2.1067,-2.1951,-2.2898,-2.4156,0.0,0.0,0.0,0.0,0.0,0.0,0.0,0.0,0.0,0.0,0.0,0.0,0.0,0.0,0.0,0.0,0.0,0.0,0.0,0.0,0.0,0.0,-4.5126,-4.5602,-4.5643,-4.5436,-4.5022,-4.4468,-4.4014,-4.3539,-4.3539,-4.3539,-4.3539,-4.3539,-4.3539,-4.3539,-4.3539,-4.3539,-4.3539,-4.3539,-4.3539,-4.3539,-4.3539,-4.3539,-4.3539,-4.3539,-4.3539,-4.3539,-4.3539,-4.3539,-4.3539,-4.3615,-4.3615,-4.3677,-4.4132,-4.4588,-4.5022,-4.5519,-4.5954,-4.6225,-4.6246,-4.6266,-4.6266,-4.6266,-4.6057,-4.583,-4.6244,-4.6037,-4.5726,-4.5726,-4.5395,-4.5084,-4.5084,-4.5084,-4.5084,-4.5084,-4.5084,-4.5084,-4.5084,-4.5084,-4.5229,-4.5664,-4.5726,-4.5892,-4.6204,-4.6266,-4.6266,-4.6266,-4.6266,-4.6266,-4.6266,-4.6266,-4.6266,-4.6266,-4.6266,-4.6266,-4.6266,-4.6266,-4.6266,-4.6266,-4.6266,-4.6509,-4.6933,-4.7014,-4.7394,-4.8273,-4.8273,-4.8511,-2.1555,-2.2667,-2.3777,-2.4849,0.0,0.0,0.0,0.0,0.0,0.0,0.0,0.0,0.0,0.0,0.0,0.0,0.0,0.0,0.0,0.0,0.0,0.0,0.0,0.0,0.0,-4.4298,-4.4629,-4.4815,-4.4815,-4.4753,-4.4567,-4.4132,-4.3801,-4.3615,-4.3615,-4.3615,-4.3615,-4.3615,-4.3615,-4.3615,-4.3615,-4.3615,-4.3615,-4.3615,-4.3615,-4.3615,-4.3615,-4.3615,-4.3615,-4.3615,-4.3615,-4.3615,-4.3615,-4.3615,-4.3615,-4.3615,-4.3615,-4.3677,-4.4132,-4.4608,-4.5064,-4.554,-4.5975,-4.6204,-4.6016,-4.5933,-4.5871,-4.5581,-4.5374,-4.5354,-4.5809,-4.5602,-4.525,-4.525,-4.5126,-4.5002,-4.5002,-4.5002,-4.5002,-4.5002,-4.5002,-4.5002,-4.5002,-4.5002,-4.5043,-4.5229,-4.5013,-4.4936,-4.5101,-4.4861,-4.4861,-4.5121,-4.5608,-4.6037,-4.6246,-4.6266,-4.6266,-4.6266,-4.6266,-4.6266,-4.6266,-4.6266,-4.6266,-4.6266,-4.659,-4.6706,-4.6573,-4.705,-4.7376,-4.7389,-4.7701,-4.7856,-2.2165,-2.3467,-2.4706,0.0,0.0,0.0,0.0,0.0,0.0,0.0,0.0,0.0,0.0,0.0,0.0,0.0,0.0,0.0,0.0,0.0,0.0,0.0,0.0,0.0,-4.3822,-4.4112,-4.436,-4.4505,-4.4381,-4.4298,-4.4298,-4.3863,-4.3615,-4.3615,-4.3615,-4.3615,-4.3615,-4.3615,-4.3615,-4.3615,-4.3615,-4.3615,-4.3615,-4.3615,-4.3615,-4.3615,-4.3615,-4.3691,-4.3767,-4.3767,-4.3822,-4.3995,-4.3843,-4.3767,-4.3767,-4.3615,-4.3615,-4.3677,-4.4132,-4.4505,-4.4857,-4.5312,-4.5744,-4.601,-4.5719,-4.5774,-4.579,-4.532,-4.5034,-4.4992,-4.5246,-4.5022,-4.4774,-4.4774,-4.467,-4.4567,-4.4567,-4.4567,-4.4567,-4.4567,-4.4567,-4.4567,-4.4567,-4.4567,-4.4608,-4.4753,-4.4461,-4.4208,-4.4351,-4.4035,-4.3956,-4.4371,-4.5054,-4.5581,-4.5892,-4.6057,-4.614,-4.614,-4.614,-4.6202,-4.6266,-4.6266,-4.6285,-4.6301,-4.6622,-4.6632,-4.6484,-4.7033,-4.7173,-4.7004,-4.7334,-4.7488,-2.3094,-2.4345,0.0,0.0,0.0,0.0,0.0,0.0,0.0,0.0,0.0,0.0,0.0,0.0,0.0,0.0,0.0,0.0,0.0,0.0,0.0,0.0,0.0,-4.3801,-4.4256,-4.4298,-4.4484,-4.494,-4.4546,-4.4298,-4.4298,-4.3863,-4.3615,-4.3615,-4.3615,-4.3615,-4.3615,-4.3615,-4.3615,-4.3615,-4.3615,-4.3615,-4.3615,-4.3615,-4.3615,-4.3615,-4.3615,-4.3843,-4.4222,-4.4222,-4.4428,-4.473,-4.4352,-4.4222,-4.4125,-4.3767,-4.3615,-4.3677,-4.4132,-4.4298,-4.4381,-4.4836,-4.5295,-4.5607,-4.5607,-4.5919,-4.6131,-4.5664,-4.5272,-4.4838,-4.4452,-4.4298,-4.4298,-4.4298,-4.3946,-4.3615,-4.3615,-4.3615,-4.3615,-4.3615,-4.3615,-4.3615,-4.3615,-4.3615,-4.376,-4.4236,-4.3911,-4.3841,-4.431,-4.4015,-4.3856,-4.4371,-4.4745,-4.4981,-4.5002,-4.5416,-4.5685,-4.5685,-4.5685,-4.5871,-4.6246,-4.6246,-4.628,-4.6321,-4.63,-4.6463,-4.6751,-4.6828,-4.7081,-4.7488,-4.7488,-4.7488,-2.4041,0.0,0.0,0.0,0.0,0.0,0.0,0.0,0.0,0.0,0.0,0.0,0.0,0.0,0.0,0.0,0.0,0.0,0.0,0.0,0.0,0.0,0.0,-4.3656,-4.3801,-4.3822,-4.3884,-4.4008,-4.3905,-4.3822,-4.3822,-4.3698,-4.3615,-4.3615,-4.3615,-4.3615,-4.3615,-4.3615,-4.3615,-4.3615,-4.3615,-4.3615,-4.3615,-4.3898,-4.3974,-4.4071,-4.4277,-4.4504,-4.4654,-4.4654,-4.4654,-4.4805,-4.4654,-4.4654,-4.4579,-4.4504,-4.4428,-4.4449,-4.4597,-4.485,-4.5166,-4.5293,-4.5645,-4.5934,-4.5595,-4.5566,-4.5579,-4.5163,-4.4972,-4.4791,-4.4715,-4.4411,-4.4183,-4.3898,-4.3718,-4.3615,-4.3615,-4.3615,-4.3615,-4.3615,-4.3615,-4.3615,-4.3615,-4.3615,-4.3656,-4.3801,-4.3439,-4.3192,-4.3005,-4.3082,-4.338,-4.3861,-4.4272,-4.465,-4.496,-4.5126,-4.5209,-4.5209,-4.5209,-4.5395,-4.5871,-4.5799,-4.5807,-4.5817,-4.6365,-4.6519,-4.6332,-4.6561,-4.6615,-4.6439,-4.6439,-4.6439,0.0,0.0,0.0,0.0,0.0,0.0,0.0,0.0,0.0,0.0,0.0,0.0,0.0,0.0,0.0,0.0,0.0,0.0,0.0,0.0,0.0,0.0,0.0,-4.3615,-4.3615,-4.3615,-4.3615,-4.3615,-4.3615,-4.3615,-4.3615,-4.3615,-4.3615,-4.3615,-4.3615,-4.3615,-4.3615,-4.3615,-4.3615,-4.3615,-4.3767,-4.3843,-4.3843,-4.405,-4.4277,-4.4428,-4.488,-4.5031,-4.5031,-4.5181,-4.5256,-4.5256,-4.5106,-4.5031,-4.5031,-4.488,-4.4805,-4.4805,-4.4805,-4.4996,-4.523,-4.523,-4.5498,-4.5843,-4.5544,-4.5534,-4.5621,-4.5191,-4.5031,-4.5031,-4.4805,-4.4654,-4.4352,-4.3919,-4.3691,-4.3615,-4.3615,-4.3615,-4.3615,-4.3615,-4.3615,-4.3615,-4.3615,-4.3615,-4.3615,-4.3615,-4.3233,-4.2851,-4.2447,-4.2774,-4.3126,-4.3392,-4.3798,-4.4132,-4.4422,-4.4608,-4.4712,-4.4712,-4.4712,-4.4914,-4.5362,-4.5514,-4.5679,-4.5799,-4.6241,-4.6387,-4.6063,-4.6289,-4.6286,-4.6002,-4.6002,-4.6002,0.0,0.0,0.0,0.0,0.0,0.0,0.0,0.0,0.0,0.0,0.0,0.0,0.0,0.0,0.0,0.0,0.0,0.0,-4.3553,0.0,0.0,0.0,-4.3615,-4.3615,-4.3615,-4.3615,-4.3615,-4.3615,-4.3615,-4.3615,-4.3615,-4.3615,-4.3615,-4.3615,-4.3615,-4.3615,-4.3615,-4.3615,-4.3615,-4.3615,-4.3995,-4.4201,-4.4277,-4.4277,-4.4504,-4.4955,-4.533,-4.548,-4.548,-4.5853,-4.6002,-4.5928,-4.563,-4.548,-4.5405,-4.5031,-4.488,-4.488,-4.488,-4.488,-4.488,-4.488,-4.5181,-4.548,-4.548,-4.5704,-4.5928,-4.5555,-4.548,-4.5405,-4.5031,-4.488,-4.473,-4.4428,-4.3974,-4.3691,-4.3691,-4.3615,-4.3615,-4.3615,-4.3615,-4.3615,-4.3615,-4.3615,-4.3615,-4.3615,-4.331,-4.2927,-4.2524,-4.2851,-4.3081,-4.3081,-4.3386,-4.3615,-4.3615,-4.3987,-4.4236,-4.4236,-4.4236,-4.4467,-4.4852,-4.5328,-4.5658,-4.6074,-4.6052,-4.6063,-4.6002,-4.6002,-4.6002,-4.6002,-4.6002,-4.6002,0.0,0.0,0.0,0.0,0.0,0.0,0.0,0.0,0.0,0.0,0.0,0.0,0.0,0.0,0.0,0.0,0.0,0.0,0.0,-4.3615,-4.3615,-4.3615,-4.3615,-4.3615,-4.3615,-4.3615,-4.3615,-4.3615,-4.3615,-4.3615,-4.3615,-4.3615,-4.3615,-4.3615,-4.3615,-4.3615,-4.3615,-4.3615,-4.3615,-4.3615,-4.3995,-4.4352,-4.4654,-4.5031,-4.533,-4.5779,-4.5853,-4.5853,-4.5853,-4.5928,-4.6002,-4.6002,-4.5928,-4.5853,-4.5853,-4.5779,-4.5779,-4.5779,-4.5779,-4.5779,-4.5779,-4.5779,-4.5779,-4.5853,-4.5853,-4.5928,-4.6002,-4.5928,-4.5853,-4.5853,-4.5779,-4.548,-4.5256,-4.5181,-4.4579,-4.4071,-4.4071,-4.3843,-4.3615,-4.3615,-4.3615,-4.3615,-4.3615,-4.3615,-4.3615,-4.3615,-4.3539,-4.3462,-4.3365,-4.3462,-4.3462,-4.3462,-4.3539,-4.3615,-4.3615,-4.3698,-4.376,-4.376,-4.4065,-4.4424,-4.4803,-4.4909,-4.5136,-4.5556,-4.5856,-4.6037,-4.6002,-4.6002,-4.6002,-4.6002,-4.6002,-4.6002,0.0,0.0,0.0,0.0,0.0,0.0,0.0,0.0,0.0,0.0,0.0,0.0,0.0,0.0,0.0,0.0,0.0,0.0,0.0,-4.3615,-4.3615,-4.3615,-4.3615,-4.3615,-4.3615,-4.3615,-4.3615,-4.3615,-4.3615,-4.3615,-4.3615,-4.3615,-4.3615,-4.3615,-4.3615,-4.3615,-4.3615,-4.3615,-4.3691,-4.3919,-4.4277,-4.4805,-4.5405,-4.563,-4.5779,-4.6002,-4.6002,-4.6002,-4.6002,-4.6002,-4.6002,-4.6002,-4.6002,-4.6002,-4.6002,-4.6002,-4.6002,-4.6002,-4.6002,-4.6002,-4.6002,-4.6002,-4.6151,-4.6225,-4.6077,-4.6151,-4.6225,-4.6077,-4.6002,-4.6002,-4.6002,-4.5853,-4.5704,-4.5704,-4.5106,-4.4504,-4.4504,-4.4125,-4.3919,-4.3919,-4.3767,-4.3615,-4.3615,-4.3615,-4.3615,-4.3615,-4.3615,-4.3615,-4.3615,-4.3615,-4.3615,-4.3615,-4.3615,-4.3615,-4.3615,-4.3615,-4.3615,-4.3615,-4.3995,-4.4352,-4.4805,-4.4955,-4.5256,-4.5704,-4.5928,-4.6002,-4.6002,-4.6002,-4.6002,-4.6002,-4.6002,-4.6002,0.0,0.0,0.0,0.0,0.0,0.0,0.0,0.0,0.0,0.0,0.0,0.0,0.0,0.0,0.0,0.0,0.0,0.0,0.0,-4.3615,-4.3615,-4.3615,-4.3615,-4.3615,-4.3615,-4.3615,-4.3615,-4.3615,-4.3615,-4.3615,-4.3615,-4.3615,-4.3615,-4.3615,-4.3615,-4.3615,-4.3615,-4.3691,-4.3843,-4.4222,-4.4654,-4.5256,-4.6002,-4.6002,-4.6002,-4.6002,-4.6002,-4.6002,-4.6002,-4.6002,-4.6002,-4.6002,-4.6002,-4.6002,-4.6002,-4.6002,-4.6002,-4.6002,-4.6077,-4.6077,-4.6151,-4.6151,-4.6448,-4.667,-4.6299,-4.6448,-4.6596,-4.6225,-4.6077,-4.6077,-4.6002,-4.6002,-4.6002,-4.6002,-4.548,-4.4955,-4.4955,-4.4579,-4.4277,-4.4277,-4.3995,-4.3691,-4.3691,-4.3615,-4.3615,-4.3615,-4.3615,-4.3615,-4.3615,-4.3615,-4.3615,-4.3615,-4.3615,-4.3615,-4.3615,-4.3615,-4.3615,-4.3691,-4.405,-4.4504,-4.488,-4.5256,-4.563,-4.6002,-4.6002,-4.6002,-4.6002,-4.6002,-4.6002,-4.6002,-4.6002,-4.6002,0.0,0.0,0.0,0.0,0.0,0.0,0.0,0.0,0.0,0.0,0.0,0.0,0.0,0.0,0.0,0.0,0.0,0.0,0.0,-4.3615,-4.3615,-4.3615,-4.3615,-4.3615,-4.3615,-4.3615,-4.3615,-4.3615,-4.3615,-4.3615,-4.3615,-4.3615,-4.3615,-4.3615,-4.3615,-4.3615,-4.3615,-4.3995,-4.4146,-4.4201,-4.4955,-4.5555,-4.6002,-4.6002,-4.6002,-4.6002,-4.6002,-4.6002,-4.6002,-4.6002,-4.6002,-4.6002,-4.6002,-4.6002,-4.6002,-4.6002,-4.6002,-4.6077,-4.6374,-4.6522,-4.6596,-4.6891,-4.7038,-4.7112,-4.7061,-4.7038,-4.7038,-4.6596,-4.6522,-4.6448,-4.6077,-4.6002,-4.6002,-4.6002,-4.5928,-4.5779,-4.5405,-4.5031,-4.473,-4.473,-4.4428,-4.4125,-4.4125,-4.3843,-4.3615,-4.3615,-4.3615,-4.3615,-4.3615,-4.3615,-4.3615,-4.3615,-4.3615,-4.3615,-4.3615,-4.3615,-4.3767,-4.4146,-4.4504,-4.488,-4.533,-4.5704,-4.5928,-4.6002,-4.6002,-4.6002,-4.6002,-4.6002,-4.6002,-4.6002,-4.6002,-4.6002,0.0,0.0,0.0,0.0,0.0,0.0,0.0,0.0,0.0,0.0,0.0,0.0,0.0,0.0,0.0,0.0,0.0,0.0,0.0,-4.3615,-4.3615,-4.3615,-4.3615,-4.3615,-4.3615,-4.3615,-4.3615,-4.3615,-4.3615,-4.3615,-4.3615,-4.3615,-4.3615,-4.3615,-4.3843,-4.3919,-4.3919,-4.4352,-4.4654,-4.488,-4.548,-4.5853,-4.6002,-4.6002,-4.6002,-4.6002,-4.6002,-4.6002,-4.6002,-4.6002,-4.6002,-4.6002,-4.6002,-4.6002,-4.6002,-4.6002,-4.6151,-4.6374,-4.6522,-4.6743,-4.6965,-4.7112,-4.7355,-4.7502,-4.7259,-4.7355,-4.7428,-4.6743,-4.6596,-4.6522,-4.6077,-4.6002,-4.6002,-4.6002,-4.6002,-4.5928,-4.5779,-4.5405,-4.5106,-4.4805,-4.4654,-4.4504,-4.4504,-4.4352,-4.4277,-4.4277,-4.405,-4.3919,-4.3919,-4.3767,-4.3615,-4.3615,-4.3615,-4.3615,-4.3615,-4.3615,-4.3767,-4.4125,-4.4579,-4.4955,-4.5405,-4.5779,-4.6002,-4.6002,-4.6002,-4.6002,-4.6002,-4.6002,-4.6002,-4.6002,-4.6002,-4.6002,0.0,0.0,0.0,0.0,0.0,0.0,0.0,0.0,0.0,0.0,0.0,0.0,0.0,0.0,0.0,0.0,0.0,0.0,0.0,-4.3615,-4.3615,-4.3615,-4.3615,-4.3615,-4.3615,-4.3615,-4.3615,-4.3615,-4.3615,-4.3615,-4.3615,-4.3615,-4.3615,-4.3767,-4.405,-4.4277,-4.4352,-4.473,-4.5181,-4.5555,-4.5853,-4.6002,-4.6002,-4.6002,-4.6002,-4.6002,-4.6002,-4.6002,-4.6002,-4.6002,-4.6002,-4.6002,-4.6002,-4.6002,-4.6002,-4.6151,-4.6374,-4.6596,-4.6817,-4.7112,-4.7355,-4.7502,-4.7721,-4.7868,-4.7575,-4.7721,-4.7794,-4.6965,-4.6743,-4.667,-4.6151,-4.6002,-4.6002,-4.6002,-4.6002,-4.6002,-4.6002,-4.5779,-4.548,-4.5181,-4.5031,-4.4955,-4.4955,-4.488,-4.4805,-4.4805,-4.4504,-4.4352,-4.4352,-4.3974,-4.3767,-4.3767,-4.3691,-4.3615,-4.3615,-4.3615,-4.3767,-4.4125,-4.4579,-4.4955,-4.5405,-4.5779,-4.6002,-4.6002,-4.6002,-4.6002,-4.6002,-4.6002,-4.6002,-4.6002,-4.6002,-4.6002,0.0,0.0,0.0,0.0,0.0,0.0,0.0,0.0,0.0,0.0,0.0,0.0,0.0,0.0,0.0,0.0,0.0,0.0,0.0,-4.3615,-4.3615,-4.3615,-4.3615,-4.3615,-4.3615,-4.3615,-4.3615,-4.3615,-4.3615,-4.3615,-4.3615,-4.3615,-4.3767,-4.4125,-4.4201,-4.4352,-4.4805,-4.5181,-4.5555,-4.6002,-4.6002,-4.6002,-4.6002,-4.6002,-4.6002,-4.6002,-4.6002,-4.6002,-4.6002,-4.6002,-4.6002,-4.6002,-4.6002,-4.6002,-4.6077,-4.6448,-4.6596,-4.667,-4.7502,-4.7721,-4.7794,-4.8232,-4.8328,-4.8377,-4.8328,-4.8328,-4.8159,-4.7428,-4.7186,-4.6965,-4.6225,-4.6002,-4.6002,-4.6002,-4.6002,-4.6002,-4.6002,-4.6002,-4.5928,-4.5928,-4.563,-4.5405,-4.5405,-4.5031,-4.4805,-4.4805,-4.4805,-4.4805,-4.4805,-4.4428,-4.4125,-4.4125,-4.3843,-4.3615,-4.3615,-4.3615,-4.3767,-4.4125,-4.4579,-4.4955,-4.5405,-4.5779,-4.6002,-4.6002,-4.6002,-4.6002,-4.6002,-4.6002,-4.6002,-4.6002,-4.6002,-4.6002,0.0,0.0,0.0,0.0,0.0,0.0,0.0,0.0,0.0,0.0,0.0,0.0,0.0,0.0,0.0,0.0,0.0,0.0,0.0,0.0,-4.2745,-4.2745,-4.2745,-4.2745,-4.2745,-4.2745,-4.2745,-4.2745,-4.2745,-4.2894,-4.3043,-4.3118,-4.3266,-4.3711,-4.3933,-4.443,-4.5122,-4.5552,-4.5853,-4.6002,-4.6002,-4.6002,-4.6002,-4.6002,-4.6002,-4.6002,-4.6002,-4.6002,-4.6002,-4.6002,-4.6002,-4.6002,-4.6002,-4.6002,-4.6077,-4.6448,-4.6743,-4.7038,-4.7648,-4.7941,-4.8232,-4.8328,-4.84,-4.84,-4.84,-4.8232,-4.7868,-4.7355,-4.7038,-4.667,-4.6151,-4.6002,-4.6002,-4.6002,-4.6002,-4.6002,-4.6002,-4.6002,-4.6002,-4.6002,-4.5853,-4.5779,-4.5779,-4.5704,-4.5555,-4.5555,-4.533,-4.5181,-4.5181,-4.4805,-4.4504,-4.4201,-4.4071,-4.3919,-4.3615,-4.3615,-4.3767,-4.4125,-4.4579,-4.4955,-4.5405,-4.5779,-4.6002,-4.6002,-4.6002,-4.6002,-4.6002,-4.6002,-4.6002,-4.6002,-4.6002,-4.6002,0.0,0.0,0.0,0.0,0.0,0.0,0.0,0.0,0.0,0.0,0.0,0.0,0.0,0.0,0.0,0.0,0.0,0.0,0.0,0.0,-4.2322,-4.2322,-4.2322,-4.2322,-4.2322,-4.2396,-4.249,-4.249,-4.2543,-4.2785,-4.3005,-4.3005,-4.3224,-4.3568,-4.4004,-4.4467,-4.5063,-4.5544,-4.5762,-4.5784,-4.5915,-4.6002,-4.6002,-4.6002,-4.6002,-4.6002,-4.6002,-4.6002,-4.6002,-4.6002,-4.6002,-4.6002,-4.6002,-4.6077,-4.6225,-4.667,-4.7061,-4.7502,-4.7868,-4.8159,-4.84,-4.84,-4.84,-4.84,-4.84,-4.8086,-4.7721,-4.7332,-4.6891,-4.6522,-4.6077,-4.6002,-4.6002,-4.6002,-4.6002,-4.6002,-4.6002,-4.6002,-4.6002,-4.6002,-4.6002,-4.6002,-4.6002,-4.6002,-4.6002,-4.6002,-4.5779,-4.563,-4.563,-4.5106,-4.473,-4.4428,-4.4125,-4.3919,-4.3615,-4.3615,-4.3691,-4.3995,-4.4504,-4.4955,-4.5181,-4.5704,-4.6002,-4.6002,-4.6002,-4.6002,-4.6002,-4.6002,-4.6002,-4.6002,-4.6002,-4.6002,0.0,0.0,0.0,0.0,0.0,0.0,0.0,0.0,0.0,0.0,0.0,0.0,0.0,0.0,0.0,0.0,0.0,0.0,0.0,0.0,-4.2302,-4.2302,-4.2302,-4.2281,-4.2302,-4.2596,-4.2743,-4.2816,-4.3182,-4.338,-4.338,-4.3401,-4.3547,-4.3961,-4.4344,-4.4561,-4.4561,-4.5041,-4.5303,-4.5325,-4.5762,-4.598,-4.6002,-4.6002,-4.6002,-4.6002,-4.6002,-4.6002,-4.6002,-4.6002,-4.6002,-4.6002,-4.6002,-4.6299,-4.667,-4.7038,-4.7502,-4.7868,-4.8232,-4.84,-4.84,-4.84,-4.84,-4.84,-4.84,-4.8086,-4.7721,-4.7355,-4.6891,-4.6522,-4.6077,-4.6002,-4.6002,-4.6002,-4.6002,-4.6002,-4.6002,-4.6002,-4.6002,-4.6002,-4.6002,-4.6002,-4.6002,-4.6002,-4.6002,-4.6002,-4.6002,-4.6002,-4.6002,-4.533,-4.4805,-4.4805,-4.405,-4.3615,-4.3615,-4.3615,-4.3615,-4.3615,-4.4352,-4.4805,-4.4805,-4.5555,-4.6002,-4.6002,-4.6002,-4.6002,-4.6002,-4.6002,-4.6002,-4.6002,-4.6002,-4.6002,-3.4146,0.0,0.0,0.0,0.0,0.0,0.0,0.0,0.0,0.0,0.0,0.0,0.0,0.0,0.0,0.0,0.0,0.0,0.0,0.0,-4.1255,-4.1255,-4.1255,-4.1399,-4.1707,-4.1779,-4.1922,0.0,-4.233,-4.2543,-4.2827,-4.3132,-4.3295,-4.3437,-4.3883,-4.4058,-4.4058,-4.4539,-4.4976,-4.5325,-4.5456,-4.5675,-4.6002,-4.6299,-4.6448,-4.6448,-4.6743,-4.6891,-4.6817,-4.6225,-4.6151,-4.6448,-4.6448,-4.667,-4.7038,-4.7502,-4.7721,-4.7868,-4.8232,-4.84,-4.84,-4.84,-4.84,-4.84,-4.84,-4.7941,-4.7332,-4.7186,-4.667,-4.6151,-4.6002,-4.6002,-4.6002,-4.6002,-4.6002,-4.6002,-4.6002,-4.6002,-4.6002,-4.6002,-4.6002,-4.6002,-4.6002,-4.6002,-4.6002,-4.6002,-4.6002,-4.6002,-4.6002,-4.5555,-4.5106,-4.4805,-4.4352,-4.3919,-4.3615,-4.3615,-4.3615,-4.3615,-4.4352,-4.4805,-4.4805,-4.5555,-4.6002,-4.6002,-4.6002,-4.6002,-4.6002,-4.6002,-4.6002,-4.6002,-4.6002,-4.6002,-3.5005,-3.5067,-3.5148,-3.5583,0.0,0.0,-3.7053,-3.786,0.0,0.0,0.0,0.0,0.0,0.0,0.0,0.0,0.0,0.0,0.0,0.0,-4.0323,-4.0323,-4.0464,-4.0675,-4.0885,-4.1165,-4.1444,-4.1631,-4.1963,-4.2365,-4.2861,-4.3093,-4.3184,-4.3184,-4.3447,-4.3578,-4.3578,-4.4058,-4.4501,-4.493,-4.5347,-4.575,-4.6161,-4.6655,-4.6817,-4.6891,-4.7112,-4.7186,-4.7186,-4.667,-4.667,-4.6817,-4.6817,-4.7112,-4.7502,-4.7721,-4.7941,-4.8086,-4.8305,-4.84,-4.84,-4.84,-4.84,-4.84,-4.84,-4.7868,-4.7186,-4.7186,-4.6596,-4.6002,-4.6002,-4.6002,-4.6002,-4.6002,-4.6002,-4.6002,-4.6002,-4.6002,-4.6002,-4.6002,-4.6002,-4.6002,-4.6002,-4.6002,-4.6002,-4.6002,-4.6002,-4.5928,-4.5779,-4.5405,-4.5031,-4.4579,-4.4201,-4.3843,-4.3615,-4.3615,-4.3691,-4.3843,-4.4428,-4.488,-4.5031,-4.563,-4.6002,-4.6002,-4.6002,-4.6002,-4.6002,-4.6002,-4.6002,-4.6002,-4.6002,-4.6002,-3.6183,-3.5894,-3.5666,-3.608,-3.6535,0.0,-3.7405,-3.786,-3.8295,0.0,0.0,0.0,0.0,0.0,0.0,0.0,0.0,0.0,0.0,0.0,-3.9537,-3.9537,-3.9881,-4.0156,-4.0225,-4.075,-4.1158,-4.1158,-4.1888,-4.2529,-4.2988,-4.3053,-4.3097,-4.3097,-4.3141,-4.3184,-4.3184,-4.3648,-4.403,-4.4379,-4.5379,-4.6061,-4.6396,-4.6961,-4.7281,-4.7259,-4.7332,-4.7332,-4.7332,-4.7332,-4.7355,-4.7281,-4.7281,-4.7502,-4.7868,-4.7868,-4.8086,-4.84,-4.84,-4.84,-4.84,-4.84,-4.84,-4.84,-4.84,-4.7868,-4.7281,-4.7134,-4.6596,-4.6002,-4.6002,-4.6002,-4.6002,-4.6002,-4.6002,-4.6002,-4.6002,-4.6002,-4.6002,-4.6002,-4.6002,-4.6002,-4.6002,-4.6002,-4.6002,-4.6002,-4.5928,-4.5779,-4.548,-4.5031,-4.4579,-4.4201,-4.3843,-4.3615,-4.3615,-4.3615,-4.3767,-4.4125,-4.4579,-4.4955,-4.5405,-4.5779,-4.6002,-4.6002,-4.6002,-4.6002,-4.6002,-4.6002,-4.6002,-4.6002,-4.6002,-4.6002,-3.666,-3.6597,-3.6556,-3.6639,-3.7011,0.0,-3.7467,-3.786,-3.8212,0.0,0.0,0.0,0.0,0.0,0.0,0.0,0.0,0.0,0.0,0.0,0.0,-3.995,-4.0087,-4.0272,-4.0886,-4.1001,-4.1204,-4.1542,-4.1719,-4.1874,-4.1983,-4.2354,-4.2573,-4.2573,-4.2966,-4.3184,-4.3184,-4.3529,-4.3981,-4.4379,-4.531,-4.6016,-4.6418,-4.7276,-4.7648,-4.7721,-4.8013,-4.8159,-4.8159,-4.8159,-4.7941,-4.7648,-4.7648,-4.7941,-4.8305,-4.8305,-4.8305,-4.84,-4.84,-4.84,-4.84,-4.84,-4.84,-4.84,-4.84,-4.8086,-4.7575,-4.6891,-4.6374,-4.6002,-4.6002,-4.6002,-4.6002,-4.6002,-4.6002,-4.6002,-4.6002,-4.6002,-4.6002,-4.6002,-4.6002,-4.6002,-4.6002,-4.6002,-4.6002,-4.6002,-4.5704,-4.548,-4.5405,-4.4805,-4.4277,-4.4201,-4.3843,-4.3615,-4.3615,-4.3615,-4.3767,-4.4125,-4.4579,-4.4955,-4.5405,-4.5779,-4.6002,-4.6002,-4.6002,-4.6002,-4.6002,-4.6002,-4.6002,-4.6002,-4.6002,-4.6002,-3.7488,-3.7156,-3.6867,-3.7094,-3.7322,0.0,0.0,-3.8026,-3.8196,0.0,0.0,0.0,0.0,0.0,0.0,0.0,0.0,0.0,0.0,0.0,0.0,-3.8901,-3.9099,-3.9341,-3.967,-4.0082,-4.0627,-4.1306,-4.135,-4.1459,-4.1677,-4.1918,-4.2158,-4.242,-4.266,-4.2992,-4.3441,-4.365,-4.3969,-4.4631,-4.5335,-4.5972,-4.6683,-4.7421,-4.7858,-4.8086,-4.8328,-4.84,-4.84,-4.84,-4.8305,-4.8086,-4.8086,-4.8232,-4.84,-4.84,-4.84,-4.84,-4.84,-4.84,-4.84,-4.84,-4.84,-4.84,-4.84,-4.8086,-4.7648,-4.6817,-4.6448,-4.6225,-4.6077,-4.6002,-4.6002,-4.6002,-4.6002,-4.6002,-4.6002,-4.6002,-4.6002,-4.6002,-4.6002,-4.6002,-4.6002,-4.6002,-4.5928,-4.5704,-4.5555,-4.5256,-4.488,-4.4428,-4.4125,-4.3919,-4.3691,-4.3615,-4.3615,-4.3615,-4.3843,-4.4428,-4.4654,-4.5106,-4.5704,-4.5928,-4.6002,-4.6002,-4.6002,-4.6002,-4.6002,-4.6002,-4.6002,-4.6002,-4.6002,-4.6002,-3.844,-3.7839,-3.7281,-3.7653,-3.7695,-3.7715,0.0,0.0,0.0,0.0,0.0,0.0,0.0,0.0,0.0,0.0,0.0,0.0,0.0,0.0,0.0,-3.7869,-3.8144,-3.8312,-3.8375,-3.906,-3.9733,-4.052,-4.0672,-4.0891,-4.1262,-4.1459,-4.1743,-4.2204,-4.2379,-4.2892,-4.3634,-4.3791,-4.4181,-4.48,-4.5391,-4.6055,-4.6747,-4.7367,-4.7872,-4.824,-4.8354,-4.84,-4.84,-4.84,-4.84,-4.84,-4.84,-4.84,-4.84,-4.84,-4.84,-4.84,-4.84,-4.84,-4.84,-4.84,-4.84,-4.84,-4.84,-4.8086,-4.7648,-4.7038,-4.6743,-4.6522,-4.6225,-4.6077,-4.6002,-4.6002,-4.6002,-4.6002,-4.6002,-4.6002,-4.6002,-4.6002,-4.6002,-4.6002,-4.6002,-4.5928,-4.5779,-4.548,-4.5256,-4.4955,-4.4277,-4.4125,-4.3995,-4.3615,-4.3615,-4.3615,-4.3615,-4.3615,-4.3898,-4.473,-4.4805,-4.5181,-4.6002,-4.6002,-4.6002,-4.6002,-4.6002,-4.6002,-4.6002,-4.6002,-4.6002,-4.6002,-4.6002,-4.6002,-3.9323,-3.8931,-3.8559,-3.8621,-3.8398,-3.8129,-3.8171,0.0,-3.8179,-3.8049,0.0,0.0,0.0,0.0,0.0,0.0,0.0,0.0,0.0,0.0,0.0,-3.812,-3.8249,-3.8438,-3.8712,-3.8818,-3.8969,-3.9015,-3.9471,-3.9797,-3.9863,-4.0607,-4.1242,-4.1596,-4.2457,-4.3148,-4.3555,-4.43,-4.4732,-4.48,-4.5668,-4.6081,-4.6242,-4.7206,-4.7594,-4.7757,-4.8194,-4.84,-4.84,-4.84,-4.84,-4.84,-4.84,-4.84,-4.84,-4.84,-4.84,-4.84,-4.84,-4.84,-4.84,-4.84,-4.84,-4.84,-4.84,-4.8086,-4.7794,-4.7721,-4.7112,-4.6596,-4.6522,-4.6299,-4.6002,-4.6002,-4.6002,-4.6002,-4.6002,-4.6002,-4.6002,-4.6002,-4.6002,-4.6002,-4.6002,-4.5704,-4.548,-4.5405,-4.4805,-4.4277,-4.4201,-4.3919,-4.3615,-4.3615,-4.3615,-4.3615,-4.3615,-4.3615,-4.3898,-4.473,-4.4805,-4.5181,-4.6002,-4.6002,-4.6002,-4.6002,-4.6002,-4.6002,-4.6002,-4.6002,-4.6002,-4.6002,-4.6002,-4.6002,-4.0013,-3.953,-3.9117,-3.8848,-3.8641,-3.8502,-3.8253,-3.8191,-3.8117,-3.7908,0.0,0.0,0.0,0.0,0.0,0.0,-3.7461,0.0,0.0,0.0,0.0,0.0,0.0,0.0,-3.7942,-3.7986,-3.8288,-3.9023,-3.9327,-3.95,-3.9689,-4.0354,-4.0928,-4.1347,-4.2037,-4.2884,-4.3872,-4.4211,-4.4664,-4.5142,-4.5508,-4.5829,-4.615,-4.6862,-4.7367,-4.7594,-4.8171,-4.84,-4.84,-4.84,-4.84,-4.84,-4.84,-4.84,-4.84,-4.84,-4.84,-4.84,-4.84,-4.84,-4.84,-4.84,-4.84,-4.84,-4.84,-4.8305,-4.8086,-4.7868,-4.7575,-4.7208,-4.6743,-4.6448,-4.6299,-4.6077,-4.6002,-4.6002,-4.6002,-4.6002,-4.6002,-4.6002,-4.6002,-4.5928,-4.5704,-4.548,-4.5256,-4.4805,-4.4428,-4.4146,-4.3919,-4.3691,-4.3615,-4.3615,-4.3615,-4.3615,-4.3615,-4.3615,-4.3843,-4.4428,-4.488,-4.533,-4.563,-4.5853,-4.6002,-4.6002,-4.6002,-4.6002,-4.6002,-4.6002,-4.6002,-4.6002,-4.6002,-4.6002,-4.0717,-4.0261,-3.9785,-3.9261,-3.8972,-3.8703,-3.844,-3.8274,-3.8162,-3.7996,-3.7869,0.0,0.0,0.0,-3.7374,-3.7374,0.0,-3.6653,0.0,0.0,0.0,0.0,0.0,0.0,0.0,-3.722,-3.7692,-3.8775,-3.8953,-3.9232,-3.9613,-4.0083,-4.0576,-4.1219,-4.1714,-4.2519,-4.3799,-4.4073,-4.4526,-4.5163,-4.5369,-4.5553,-4.5921,-4.6426,-4.6954,-4.7459,-4.7964,-4.8263,-4.84,-4.84,-4.84,-4.84,-4.84,-4.84,-4.84,-4.84,-4.84,-4.84,-4.84,-4.84,-4.84,-4.84,-4.84,-4.84,-4.84,-4.84,-4.8328,-4.8013,-4.7868,-4.7648,-4.6965,-4.667,-4.6522,-4.6077,-4.6002,-4.6002,-4.6002,-4.6002,-4.6002,-4.6002,-4.6002,-4.5853,-4.548,-4.533,-4.5031,-4.4277,-4.4125,-4.3919,-4.3615,-4.3615,-4.3615,-4.3615,-4.3615,-4.3615,-4.3615,-4.3615,-4.3767,-4.4125,-4.488,-4.5256,-4.5256,-4.5555,-4.5704,-4.5704,-4.5779,-4.5853,-4.5853,-4.5928,-4.6002,-4.6002,-4.6002,-4.6002,-4.1648,-4.1193,-4.0737,-4.0303,-3.9447,-3.8786,-3.8765,-3.8502,-3.8246,-3.8463,-3.8146,-3.7868,-3.8059,-3.7702,-3.7374,-3.7374,-3.7003,0.0,0.0,0.0,0.0,0.0,0.0,0.0,0.0,-3.6809,-3.7068,-3.7641,-3.8052,-3.8544,-3.9075,-3.9568,-4.0208,-4.1103,-4.1579,-4.2207,-4.3142,-4.4107,-4.4612,-4.4635,-4.5117,-4.5438,-4.5461,-4.5921,-4.6426,-4.6931,-4.7436,-4.7941,-4.84,-4.84,-4.84,-4.84,-4.84,-4.84,-4.84,-4.84,-4.84,-4.84,-4.84,-4.84,-4.84,-4.84,-4.84,-4.84,-4.84,-4.84,-4.84,-4.84,-4.8086,-4.7721,-4.7281,-4.6891,-4.6522,-4.6077,-4.6002,-4.6002,-4.6002,-4.6002,-4.6002,-4.6002,-4.6002,-4.5853,-4.548,-4.5106,-4.4654,-4.4277,-4.3843,-4.3615,-4.3615,-4.3615,-4.3615,-4.3615,-4.3615,-4.3615,-4.3615,-4.3615,-4.3767,-4.4125,-4.4579,-4.4805,-4.4805,-4.4805,-4.4805,-4.4805,-4.5256,-4.5405,-4.5405,-4.5779,-4.6002,-4.6002,-4.6002,-4.6002,-4.2145,-4.169,-4.1234,-4.0779,-4.0199,-3.953,-3.891,-3.8662,-3.8553,-3.8243,-3.8207,-3.8167,-3.7835,-3.7801,-3.7745,-3.744,-3.6719,-3.6209,0.0,-3.5846,0.0,0.0,0.0,0.0,0.0,0.0,-3.6645,-3.7334,-3.7572,-3.7947,-3.8762,-3.9181,-3.9901,-4.0868,-4.1371,-4.2097,-4.3074,-4.3739,-4.4267,-4.4612,-4.5117,-4.5438,-4.5438,-4.5898,-4.6219,-4.6426,-4.7275,-4.7663,-4.7918,-4.8263,-4.84,-4.84,-4.84,-4.84,-4.84,-4.84,-4.84,-4.84,-4.84,-4.84,-4.84,-4.84,-4.84,-4.84,-4.84,-4.84,-4.84,-4.84,-4.8328,-4.8086,-4.7721,-4.7259,-4.6891,-4.6522,-4.6225,-4.6002,-4.6002,-4.6002,-4.6002,-4.6002,-4.6002,-4.5853,-4.548,-4.5256,-4.4955,-4.4277,-4.3843,-4.3615,-4.3615,-4.3615,-4.3615,-4.3615,-4.3615,-4.3615,-4.3615,-4.3615,-4.3691,-4.3767,-4.4201,-4.4428,-4.4428,-4.4654,-4.4805,-4.4805,-4.4955,-4.5106,-4.5405,-4.5555,-4.5779,-4.6002,-4.6002,-4.6002,-4.2663,-4.2269,-4.1897,-4.1276,-4.08,-4.0261,-3.9495,-3.9206,-3.8942,-3.8594,-3.8629,-3.8594,-3.8143,-3.8109,-3.8008,-3.768,-3.6697,-3.6019,0.0,-3.5748,-3.5643,-3.595,-3.5753,0.0,0.0,-3.6205,-3.6465,-3.7156,-3.7201,-3.7611,-3.855,-3.8872,-3.9515,-4.0525,-4.103,-4.1696,-4.2545,-4.3395,-4.3969,-4.4336,-4.5025,-4.5438,-4.5438,-4.5691,-4.5944,-4.6173,-4.7,-4.7482,-4.7617,-4.8194,-4.84,-4.84,-4.84,-4.84,-4.84,-4.84,-4.84,-4.84,-4.84,-4.84,-4.84,-4.84,-4.84,-4.84,-4.84,-4.84,-4.84,-4.84,-4.84,-4.8328,-4.7868,-4.7502,-4.7112,-4.667,-4.6299,-4.6002,-4.6002,-4.6002,-4.6002,-4.6002,-4.6002,-4.5928,-4.563,-4.548,-4.5106,-4.4277,-4.3995,-4.3767,-4.3615,-4.3615,-4.3615,-4.3615,-4.3615,-4.3615,-4.3615,-4.3615,-4.3615,-4.3615,-4.3843,-4.3995,-4.3995,-4.4201,-4.4352,-4.4352,-4.4504,-4.4805,-4.5181,-4.533,-4.563,-4.6002,-4.6002,-4.6002]}]]